[[{"header":{"parameterUnit":"m.s-1","parameterCategory":1,"la1":30.6,"la2":29.2853,"lo1":-89.7004,"lo2":-87.6739,"dy":0.0162,"dx":0.0183,"nx":112,"ny":82,"refTime":"2024-07-12T18:00:00:Z","depth":0,"parameterNumber":2,"parameterNumberName":"U-component_of_WINDS"},"data":[0.0,0.0,0.0,0.0,0.0,0.0,0.0,0.0,0.0,0.0,0.0,0.0,0.0,0.0,0.0,0.0,0.0,0.0,0.0,0.0,0.0,0.0,0.0,0.0,0.0,0.0,0.0,0.0,0.0,0.0,0.0,0.0,0.0,0.0,0.0,0.0,0.0,0.0,0.0,0.0,0.0,0.0,0.0,0.0,0.0,0.0,0.0,0.0,0.0,0.0,0.0,0.0,0.0,0.0,0.0,0.0,0.0,0.0,0.0,0.0,0.0,0.0,0.0,0.0,0.0,0.0,0.0,0.0,0.0,0.0,0.0,0.0,0.0,0.0,0.0,0.0,0.0,0.0,0.0,0.0,0.0,0.0,0.0,0.0,0.0,0.0,0.0,0.0,0.0,0.0,-2.9128,-2.9708,-2.8043,-2.6944,-2.7036,-2.6138,-2.5869,-2.6566,0.0,0.0,0.0,0.0,0.0,0.0,0.0,0.0,0.0,0.0,0.0,0.0,0.0,0.0,0.0,0.0,0.0,0.0,0.0,0.0,0.0,0.0,0.0,0.0,0.0,0.0,0.0,0.0,0.0,0.0,0.0,0.0,0.0,0.0,0.0,0.0,0.0,0.0,0.0,0.0,0.0,0.0,0.0,0.0,0.0,0.0,0.0,0.0,0.0,0.0,0.0,0.0,0.0,0.0,0.0,0.0,0.0,0.0,0.0,0.0,0.0,0.0,0.0,0.0,0.0,0.0,0.0,0.0,0.0,0.0,0.0,0.0,0.0,0.0,0.0,0.0,0.0,0.0,0.0,0.0,0.0,0.0,0.0,0.0,0.0,0.0,0.0,0.0,0.0,0.0,0.0,0.0,0.0,0.0,0.0,0.0,0.0,0.0,0.0,0.0,0.0,0.0,0.0,0.0,-2.8248,-2.8676,-2.7628,-2.7111,-2.7626,-2.69,-2.6475,-2.6594,0.0,0.0,0.0,0.0,0.0,0.0,0.0,0.0,0.0,0.0,0.0,0.0,0.0,0.0,0.0,0.0,0.0,0.0,0.0,0.0,0.0,0.0,0.0,0.0,0.0,0.0,0.0,0.0,0.0,0.0,0.0,0.0,0.0,0.0,0.0,0.0,0.0,0.0,0.0,0.0,0.0,0.0,0.0,0.0,0.0,0.0,0.0,0.0,0.0,0.0,0.0,0.0,0.0,0.0,0.0,0.0,0.0,0.0,0.0,0.0,0.0,0.0,0.0,0.0,0.0,0.0,0.0,0.0,0.0,0.0,0.0,0.0,0.0,0.0,0.0,0.0,0.0,0.0,0.0,0.0,0.0,0.0,0.0,0.0,0.0,0.0,0.0,0.0,0.0,0.0,0.0,0.0,0.0,0.0,0.0,0.0,0.0,0.0,0.0,0.0,0.0,0.0,0.0,-2.8945,-2.8713,-2.8339,-2.7744,-2.7495,-2.7781,-2.7457,-2.7062,-2.6631,-2.6081,0.0,0.0,0.0,0.0,0.0,0.0,0.0,0.0,0.0,0.0,0.0,0.0,0.0,0.0,0.0,0.0,0.0,0.0,0.0,0.0,0.0,0.0,0.0,0.0,0.0,0.0,0.0,0.0,0.0,0.0,0.0,0.0,0.0,0.0,0.0,0.0,0.0,0.0,0.0,0.0,0.0,0.0,0.0,0.0,0.0,0.0,0.0,0.0,0.0,0.0,0.0,0.0,0.0,0.0,0.0,0.0,0.0,0.0,0.0,0.0,0.0,0.0,0.0,0.0,0.0,0.0,0.0,0.0,0.0,0.0,0.0,0.0,0.0,0.0,0.0,0.0,0.0,0.0,0.0,0.0,0.0,0.0,0.0,0.0,0.0,0.0,0.0,0.0,0.0,0.0,0.0,0.0,0.0,0.0,0.0,0.0,0.0,0.0,0.0,0.0,0.0,0.0,-2.9715,-2.9371,-2.8501,-2.8033,-2.7879,-2.8071,-2.7741,-2.7246,-2.6649,-2.618,0.0,0.0,0.0,0.0,0.0,0.0,0.0,0.0,0.0,0.0,0.0,0.0,0.0,0.0,0.0,0.0,0.0,0.0,0.0,0.0,0.0,0.0,0.0,0.0,0.0,0.0,0.0,0.0,0.0,0.0,0.0,0.0,0.0,0.0,0.0,0.0,0.0,0.0,0.0,0.0,0.0,0.0,0.0,0.0,0.0,0.0,0.0,0.0,0.0,0.0,0.0,0.0,0.0,0.0,0.0,0.0,0.0,0.0,0.0,0.0,0.0,0.0,0.0,0.0,0.0,0.0,0.0,0.0,0.0,0.0,0.0,0.0,0.0,0.0,0.0,0.0,0.0,0.0,0.0,0.0,0.0,0.0,0.0,0.0,0.0,0.0,0.0,0.0,0.0,0.0,0.0,0.0,0.0,0.0,0.0,0.0,0.0,0.0,0.0,0.0,0.0,0.0,-2.9365,-2.9597,-2.9339,-2.8393,-2.8099,-2.8838,-2.7548,-2.6667,-2.6603,-2.5867,0.0,0.0,0.0,0.0,0.0,0.0,0.0,0.0,0.0,0.0,0.0,0.0,0.0,0.0,0.0,0.0,0.0,0.0,0.0,0.0,0.0,0.0,0.0,0.0,0.0,0.0,0.0,0.0,0.0,0.0,0.0,0.0,0.0,0.0,0.0,0.0,0.0,0.0,0.0,0.0,0.0,0.0,0.0,0.0,0.0,0.0,0.0,0.0,0.0,0.0,0.0,0.0,0.0,0.0,0.0,0.0,0.0,0.0,0.0,0.0,0.0,0.0,0.0,0.0,0.0,0.0,0.0,0.0,0.0,0.0,0.0,0.0,0.0,0.0,0.0,0.0,0.0,0.0,0.0,0.0,0.0,0.0,0.0,0.0,0.0,0.0,0.0,0.0,0.0,0.0,0.0,0.0,0.0,0.0,0.0,0.0,0.0,0.0,0.0,0.0,0.0,0.0,-2.9446,-2.9425,0.0,-2.88,-2.8677,-2.8966,-2.7989,-2.7135,-2.664,0.0,0.0,0.0,0.0,0.0,0.0,0.0,0.0,0.0,0.0,0.0,0.0,0.0,0.0,0.0,0.0,0.0,0.0,0.0,0.0,0.0,0.0,0.0,0.0,0.0,0.0,0.0,0.0,0.0,0.0,0.0,0.0,0.0,0.0,0.0,0.0,0.0,0.0,0.0,0.0,0.0,0.0,0.0,0.0,0.0,0.0,0.0,0.0,0.0,0.0,0.0,0.0,0.0,0.0,0.0,0.0,0.0,0.0,0.0,0.0,0.0,0.0,0.0,0.0,0.0,0.0,0.0,0.0,0.0,0.0,0.0,0.0,0.0,0.0,0.0,0.0,0.0,0.0,0.0,0.0,0.0,0.0,0.0,0.0,0.0,0.0,0.0,0.0,0.0,0.0,0.0,0.0,0.0,0.0,0.0,0.0,0.0,0.0,0.0,0.0,0.0,0.0,-2.9136,-2.9354,-2.9207,0.0,-2.8631,-2.853,-2.8273,-2.7502,-2.6765,-2.61,0.0,0.0,0.0,0.0,0.0,0.0,0.0,0.0,0.0,0.0,0.0,0.0,0.0,0.0,0.0,0.0,0.0,0.0,0.0,0.0,0.0,0.0,0.0,0.0,0.0,0.0,0.0,0.0,0.0,0.0,0.0,0.0,0.0,0.0,0.0,0.0,0.0,0.0,0.0,0.0,0.0,0.0,0.0,0.0,0.0,0.0,0.0,0.0,0.0,0.0,0.0,0.0,0.0,0.0,0.0,0.0,0.0,0.0,0.0,0.0,0.0,0.0,0.0,0.0,0.0,0.0,0.0,0.0,0.0,0.0,0.0,0.0,0.0,0.0,0.0,0.0,0.0,0.0,0.0,0.0,0.0,0.0,0.0,0.0,0.0,0.0,0.0,0.0,0.0,0.0,0.0,0.0,0.0,0.0,0.0,0.0,0.0,0.0,0.0,0.0,0.0,0.0,-2.8317,-2.897,-2.8985,-2.7914,-2.7787,-2.7457,-2.6677,-2.5851,-2.5262,0.0,0.0,0.0,0.0,0.0,0.0,0.0,0.0,0.0,0.0,0.0,0.0,0.0,0.0,0.0,0.0,0.0,0.0,0.0,0.0,0.0,0.0,0.0,0.0,0.0,0.0,0.0,0.0,0.0,0.0,0.0,0.0,0.0,0.0,0.0,0.0,0.0,0.0,0.0,0.0,0.0,0.0,0.0,0.0,0.0,0.0,0.0,0.0,0.0,0.0,0.0,0.0,0.0,0.0,0.0,0.0,0.0,0.0,0.0,0.0,0.0,0.0,0.0,0.0,0.0,0.0,0.0,0.0,0.0,0.0,0.0,0.0,0.0,0.0,0.0,0.0,0.0,0.0,0.0,0.0,0.0,0.0,0.0,0.0,0.0,0.0,0.0,0.0,0.0,0.0,0.0,0.0,0.0,0.0,0.0,0.0,0.0,0.0,0.0,0.0,0.0,0.0,0.0,-2.8082,-2.8231,-2.8154,-2.7836,-2.7291,-2.686,-2.6622,-2.5851,-2.5362,-2.5262,0.0,0.0,0.0,0.0,0.0,0.0,0.0,0.0,0.0,0.0,0.0,0.0,0.0,0.0,0.0,0.0,0.0,0.0,0.0,0.0,0.0,0.0,0.0,0.0,0.0,0.0,0.0,0.0,0.0,0.0,0.0,0.0,0.0,0.0,0.0,0.0,0.0,0.0,0.0,0.0,0.0,0.0,0.0,0.0,0.0,0.0,0.0,0.0,0.0,0.0,0.0,0.0,0.0,0.0,0.0,0.0,0.0,0.0,0.0,0.0,0.0,0.0,0.0,0.0,0.0,0.0,0.0,0.0,0.0,0.0,0.0,0.0,0.0,0.0,0.0,0.0,0.0,0.0,0.0,0.0,0.0,0.0,0.0,0.0,0.0,0.0,0.0,0.0,0.0,0.0,0.0,0.0,0.0,0.0,0.0,0.0,0.0,0.0,0.0,0.0,0.0,0.0,-2.7084,-2.7248,-2.72,-2.6869,-2.6401,-2.5988,-2.5676,-2.5091,-2.4668,-2.4523,0.0,0.0,0.0,0.0,0.0,0.0,0.0,0.0,0.0,0.0,0.0,0.0,0.0,0.0,0.0,0.0,0.0,0.0,0.0,0.0,0.0,0.0,0.0,0.0,0.0,0.0,0.0,0.0,0.0,0.0,0.0,0.0,0.0,0.0,0.0,0.0,0.0,0.0,0.0,0.0,0.0,0.0,0.0,0.0,0.0,0.0,0.0,0.0,0.0,0.0,0.0,0.0,0.0,0.0,0.0,0.0,0.0,0.0,0.0,0.0,0.0,0.0,0.0,0.0,0.0,0.0,0.0,0.0,0.0,0.0,0.0,0.0,0.0,0.0,0.0,0.0,0.0,0.0,0.0,0.0,0.0,0.0,0.0,0.0,0.0,0.0,0.0,0.0,0.0,0.0,0.0,0.0,0.0,0.0,0.0,0.0,0.0,0.0,0.0,0.0,0.0,0.0,-2.568,-2.6231,-2.6291,-2.5495,-2.5338,-2.4999,-2.4254,-2.3887,-2.3566,-2.3268,0.0,0.0,0.0,0.0,0.0,0.0,0.0,0.0,0.0,0.0,0.0,0.0,0.0,0.0,0.0,0.0,0.0,0.0,0.0,0.0,0.0,0.0,0.0,0.0,0.0,0.0,0.0,0.0,0.0,0.0,0.0,0.0,0.0,0.0,0.0,0.0,0.0,0.0,0.0,0.0,0.0,0.0,0.0,0.0,0.0,0.0,0.0,0.0,0.0,0.0,0.0,0.0,0.0,0.0,0.0,0.0,0.0,0.0,0.0,0.0,-2.6976,0.0,0.0,0.0,0.0,0.0,0.0,0.0,0.0,0.0,0.0,0.0,0.0,0.0,0.0,0.0,0.0,0.0,0.0,0.0,0.0,0.0,0.0,0.0,0.0,0.0,0.0,0.0,0.0,0.0,0.0,0.0,0.0,0.0,0.0,0.0,0.0,0.0,0.0,0.0,0.0,0.0,-2.5545,-2.614,-2.6291,-2.5495,-2.4823,-2.4382,-2.4208,-2.3887,-2.3671,-2.3597,-2.3021,0.0,0.0,0.0,0.0,0.0,0.0,0.0,0.0,0.0,0.0,0.0,0.0,0.0,0.0,0.0,0.0,0.0,0.0,0.0,0.0,0.0,0.0,0.0,0.0,0.0,0.0,0.0,0.0,0.0,0.0,0.0,0.0,0.0,0.0,0.0,0.0,0.0,0.0,0.0,0.0,0.0,0.0,0.0,0.0,0.0,0.0,0.0,0.0,0.0,0.0,0.0,0.0,0.0,0.0,0.0,0.0,0.0,0.0,0.0,0.0,-2.7644,0.0,0.0,0.0,0.0,0.0,0.0,0.0,0.0,0.0,0.0,0.0,0.0,0.0,0.0,0.0,0.0,0.0,0.0,0.0,0.0,0.0,0.0,0.0,0.0,0.0,0.0,0.0,0.0,0.0,0.0,0.0,0.0,0.0,0.0,0.0,0.0,0.0,0.0,0.0,0.0,-2.4869,-2.519,-2.5291,-2.486,-2.4447,-2.4142,-2.3967,-2.364,-2.3392,-2.3221,-2.2781,0.0,0.0,0.0,0.0,0.0,0.0,0.0,0.0,0.0,0.0,0.0,0.0,0.0,0.0,0.0,0.0,0.0,0.0,0.0,0.0,0.0,0.0,0.0,0.0,0.0,0.0,0.0,0.0,0.0,0.0,0.0,0.0,0.0,0.0,0.0,0.0,0.0,0.0,0.0,0.0,0.0,0.0,0.0,0.0,0.0,0.0,0.0,0.0,0.0,0.0,0.0,0.0,0.0,-2.8573,-2.8602,-2.9073,-2.8378,-2.8424,-2.901,-2.8303,-2.8393,-2.8932,-2.8023,0.0,0.0,0.0,0.0,0.0,0.0,0.0,0.0,0.0,0.0,0.0,0.0,0.0,0.0,0.0,0.0,0.0,0.0,0.0,0.0,0.0,0.0,0.0,0.0,-2.8247,-2.8435,0.0,0.0,0.0,0.0,0.0,0.0,0.0,0.0,0.0,0.0,0.0,0.0,-2.4428,-2.4401,-2.4355,-2.4208,-2.4151,-2.3996,-2.3714,-2.3346,-2.2988,-2.2721,-2.2445,-2.231,0.0,0.0,0.0,0.0,0.0,0.0,0.0,0.0,0.0,0.0,0.0,0.0,0.0,0.0,0.0,0.0,0.0,0.0,0.0,0.0,0.0,0.0,0.0,0.0,0.0,0.0,0.0,0.0,0.0,0.0,0.0,0.0,-2.3027,-2.3965,0.0,0.0,0.0,0.0,0.0,0.0,0.0,0.0,0.0,0.0,0.0,0.0,0.0,-2.7775,-2.79,-2.8582,-2.8996,-2.9102,-2.9765,-2.9727,-2.9092,-2.881,-2.8743,-2.8821,-2.8529,0.0,-2.9755,-2.8708,0.0,0.0,0.0,0.0,0.0,0.0,0.0,0.0,0.0,0.0,0.0,0.0,0.0,0.0,0.0,0.0,0.0,0.0,0.0,0.0,0.0,0.0,-2.9417,-2.9417,-2.9345,-2.9238,0.0,-2.8201,-2.7278,-2.6999,-2.6944,0.0,0.0,0.0,0.0,0.0,0.0,0.0,-2.5338,-2.5247,-2.4961,-2.4263,-2.3946,-2.3744,-2.3692,-2.3126,-2.2746,-2.2686,-2.2445,-2.231,-2.231,-2.231,0.0,0.0,0.0,0.0,0.0,0.0,0.0,0.0,0.0,0.0,0.0,0.0,0.0,0.0,0.0,0.0,0.0,0.0,0.0,0.0,0.0,0.0,0.0,0.0,0.0,0.0,0.0,0.0,0.0,-2.2978,-2.4551,-2.4424,-2.5596,-2.624,0.0,0.0,0.0,0.0,0.0,0.0,0.0,0.0,0.0,-2.8544,-2.8563,-2.8804,-2.9304,-2.965,-2.9833,-2.9833,-2.9717,-2.9413,-2.8906,-2.8374,-2.806,-2.7945,-2.7695,-2.8122,-2.8934,-2.896,-2.8816,-2.8581,0.0,0.0,0.0,0.0,-2.8437,-2.8741,-2.8855,-2.8827,0.0,-2.8455,0.0,0.0,0.0,0.0,0.0,0.0,0.0,0.0,0.0,0.0,0.0,-2.9411,-2.9353,-2.9178,-2.9178,-2.8681,-2.8183,0.0,-2.8077,-2.7917,-2.7368,0.0,0.0,0.0,0.0,-2.5796,-2.5458,-2.5017,-2.4527,-2.3983,-2.3795,-2.3544,-2.3165,-2.2864,-2.2643,-2.2473,-2.236,-2.231,-2.231,-2.231,-2.231,0.0,0.0,0.0,0.0,0.0,0.0,0.0,0.0,0.0,0.0,0.0,0.0,0.0,0.0,0.0,0.0,0.0,0.0,0.0,0.0,0.0,0.0,0.0,0.0,0.0,0.0,0.0,0.0,-2.4355,-2.5459,-2.4814,-2.6269,-2.6982,0.0,0.0,0.0,0.0,0.0,0.0,-2.7226,-2.7852,-2.8573,-2.941,-2.9429,-2.9737,-3.0388,-3.0398,-3.0398,-3.0388,-2.9461,-2.8833,-2.8458,-2.7547,-2.7028,-2.6886,-2.6841,-2.7287,-2.8077,-2.8725,-2.8997,-2.8994,-2.8994,-2.8994,-2.8994,-2.8994,-2.9122,-2.9375,-2.9769,-2.965,-2.9306,-2.9237,0.0,-2.7936,-2.7484,0.0,0.0,0.0,0.0,-2.7801,-2.8399,-2.8296,-2.8194,-2.8845,-2.8676,-2.8434,-2.8659,-2.8695,-2.8737,0.0,-2.8994,-2.8824,-2.8209,0.0,0.0,0.0,0.0,-2.5674,-2.5585,-2.4695,-2.3937,-2.3619,-2.35,-2.3245,-2.2746,-2.2634,-2.25,-2.2302,-2.231,-2.231,-2.231,-2.231,-2.231,-2.231,0.0,0.0,0.0,0.0,0.0,0.0,0.0,0.0,0.0,0.0,0.0,0.0,0.0,0.0,0.0,0.0,0.0,0.0,0.0,0.0,0.0,0.0,0.0,0.0,0.0,0.0,0.0,0.0,0.0,-2.5644,-2.7168,0.0,0.0,0.0,0.0,-2.7875,-2.7846,-2.8169,-2.8929,-2.9015,-2.9438,-3.0302,-3.0321,-3.035,-3.0398,-3.0398,-3.0398,-3.0388,-2.9324,-2.8405,-2.7615,-2.6375,-2.5786,-2.5809,-2.6368,-2.7074,-2.7818,-2.7855,-2.8332,-2.8994,-2.8994,-2.8994,-2.8994,-2.8994,-2.9494,-3.0044,-2.9319,-2.954,-3.0017,-2.9255,-2.8479,-2.7809,-2.7785,-2.7766,0.0,0.0,-2.8327,-2.892,-2.8957,-2.8397,-2.7827,-2.7864,-2.7304,-2.6934,-2.7695,-2.786,-2.809,0.0,-2.8994,-2.8975,-2.8938,0.0,-2.8865,-2.8865,-2.7548,-2.6426,-2.6104,-2.4702,-2.3597,-2.3268,-2.2939,-2.2746,-2.2686,-2.2463,-2.2302,-2.231,-2.231,-2.231,-2.231,-2.231,-2.231,-2.231,-2.231,0.0,0.0,0.0,0.0,0.0,0.0,0.0,0.0,0.0,0.0,0.0,0.0,0.0,0.0,0.0,0.0,0.0,0.0,0.0,0.0,0.0,0.0,0.0,0.0,0.0,0.0,0.0,0.0,-2.7373,-2.792,0.0,-2.7766,-2.7454,-2.7466,-2.7963,-2.8415,-2.8794,-2.9073,-2.9631,-3.0083,-3.0388,-3.0398,-3.0398,-3.0398,-3.0398,-3.0054,-2.9363,-2.8456,-2.7452,-2.6337,-2.5377,-2.4854,-2.4755,-2.4963,-2.5502,-2.6266,-2.6266,-2.7337,-2.8994,-2.8994,-2.8994,-2.8994,-2.8994,-2.9168,-2.9402,-2.9085,-2.92,-2.9369,-2.9076,-2.8824,-2.8576,-2.8576,-2.8576,-2.8576,-2.8576,-2.8787,-2.8865,-2.8365,-2.8007,-2.7668,-2.7154,-2.6814,-2.6686,-2.697,-2.7429,-2.7879,-2.8172,-2.8659,-2.8994,-2.8994,-2.8994,-2.8745,-2.8015,-2.6991,-2.5977,-2.5132,-2.4052,-2.3245,-2.2914,-2.2772,-2.2634,-2.2472,-2.2341,-2.231,-2.231,-2.231,-2.231,-2.231,-2.231,-2.231,-2.231,-2.231,-2.231,0.0,0.0,0.0,0.0,0.0,0.0,0.0,0.0,0.0,0.0,0.0,0.0,0.0,0.0,0.0,0.0,0.0,0.0,0.0,0.0,0.0,0.0,0.0,0.0,0.0,0.0,-2.8633,-2.833,-2.8818,-2.8913,-2.8226,-2.8126,-2.8159,-2.8356,-2.9108,-2.9535,-2.9535,-3.0092,-3.0398,-3.0398,-3.0398,-3.0355,-3.0276,-3.0001,-2.9474,-2.8679,-2.7514,-2.6516,-2.5665,-2.4806,-2.4339,-2.4217,-2.4483,-2.4896,-2.543,-2.5676,-2.675,-2.8177,-2.8177,-2.8177,-2.8177,-2.8177,-2.8365,-2.864,-2.8902,-2.8994,-2.8994,-2.8994,-2.8994,-2.8994,-2.8994,-2.8994,-2.8994,-2.8994,-2.8994,-2.8824,-2.8007,-2.7594,-2.719,-2.6392,-2.5908,-2.5707,-2.5959,-2.6349,-2.6731,-2.7004,-2.81,-2.8961,-2.8806,-2.8806,-2.8418,-2.7315,-2.6431,-2.5502,-2.4414,-2.3538,-2.2898,-2.2608,-2.2563,-2.25,-2.231,-2.231,-2.231,-2.231,-2.231,-2.231,-2.231,-2.231,-2.231,-2.231,-2.231,-2.231,-2.231,0.0,0.0,0.0,0.0,0.0,0.0,0.0,0.0,0.0,0.0,0.0,0.0,0.0,0.0,0.0,0.0,0.0,0.0,0.0,0.0,0.0,0.0,0.0,-2.708,-2.8535,-2.9297,-2.8476,-2.9853,-3.0139,-2.832,-2.9584,-3.0115,-2.9144,-2.9842,-3.0311,-3.0311,-3.0311,-3.0311,-3.0311,-3.0311,-3.019,-2.9923,-2.9155,-2.8641,-2.8381,-2.6562,-2.5683,-2.5619,-2.4635,-2.4199,-2.4236,-2.5026,-2.5366,-2.543,-2.6199,-2.6539,-2.6539,-2.6585,-2.6603,-2.6603,-2.6603,-2.709,-2.787,-2.8659,-2.892,-2.892,-2.892,-2.892,-2.892,-2.8938,-2.8948,-2.8948,-2.8948,-2.8948,-2.8755,-2.7934,-2.7145,-2.6334,-2.5539,-2.4502,-2.3909,-2.4694,-2.4608,-2.4637,-2.5407,-2.7366,-2.8775,-2.8401,-2.8376,-2.8012,-2.6916,-2.603,0.0,-2.4085,-2.3215,-2.2581,-2.233,-2.231,-2.231,-2.231,-2.231,-2.231,-2.231,-2.231,-2.231,-2.231,-2.231,-2.231,-2.231,-2.231,-2.231,-2.231,0.0,0.0,0.0,0.0,0.0,0.0,0.0,0.0,0.0,0.0,0.0,0.0,0.0,0.0,0.0,0.0,0.0,0.0,0.0,0.0,0.0,-2.79,-2.8887,-2.8887,-2.9297,-2.9746,-3.0137,-3.0049,-2.9719,-2.9094,-2.8893,-2.863,-2.8258,-2.8448,-2.8592,-2.8592,-2.8592,-2.8592,-2.8592,-2.8592,-2.8476,-2.8254,-2.8038,-2.7438,-2.6469,-2.5951,-2.5326,-2.4607,-2.4329,-2.4199,-2.4208,-2.4428,-2.452,-2.4548,-2.4768,-2.486,-2.4979,-2.6144,-2.6603,-2.6603,-2.6603,-2.6741,-2.6961,-2.719,-2.7264,-2.7264,-2.7264,-2.7264,-2.7374,-2.7952,-2.8126,-2.8126,-2.8126,-2.8126,-2.7805,-2.641,-2.5713,-2.5161,-2.4363,-2.3741,-2.3399,-2.3622,-2.404,-2.4461,-2.4699,-2.5718,-2.667,-2.7148,-2.7682,-2.7493,-2.5829,-2.5343,0.0,-2.2976,-2.2571,-2.2388,-2.231,-2.231,-2.231,-2.231,-2.231,-2.231,-2.231,-2.231,-2.231,-2.231,-2.231,-2.231,-2.231,-2.231,-2.231,0.0,0.0,0.0,0.0,0.0,0.0,0.0,0.0,0.0,0.0,0.0,0.0,0.0,0.0,0.0,0.0,0.0,0.0,0.0,0.0,0.0,0.0,-2.8633,-2.918,-2.9551,-2.96,-2.9785,-3.0303,-2.959,-2.886,-2.836,-2.8183,-2.7893,-2.7391,-2.7688,-2.79,-2.79,-2.79,-2.79,-2.79,-2.79,-2.774,-2.7438,-2.7096,-2.6469,-2.5569,-2.5236,-2.4764,-2.4199,-2.4199,-2.4199,0.0,-2.4199,-2.4199,-2.4199,-2.4199,-2.4199,0.0,0.0,0.0,0.0,0.0,-2.6098,-2.6144,-2.6484,-2.6603,-2.6603,-2.6603,-2.6603,-2.6695,-2.7163,-2.7301,-2.727,-2.7132,-2.71,-2.6754,-2.5352,-2.4838,-2.4485,-2.3679,-2.3236,-2.2996,-2.2996,-2.3273,-2.3511,-2.3511,-2.4147,0.0,-2.5296,-2.6135,-2.6195,-2.4606,-2.4376,-2.3879,-2.2482,-2.231,-2.231,-2.231,-2.231,-2.231,-2.231,-2.231,0.0,0.0,0.0,-2.231,-2.231,-2.231,0.0,0.0,0.0,0.0,0.0,0.0,0.0,0.0,-2.4041,-2.4447,0.0,0.0,0.0,0.0,0.0,0.0,0.0,0.0,0.0,0.0,0.0,0.0,0.0,0.0,0.0,0.0,-2.8887,-2.8682,-2.9355,-2.9365,-2.9336,-2.9443,-2.8769,-2.7914,-2.6912,-2.7503,-2.754,-2.6545,-2.7169,-2.7611,-2.7611,0.0,0.0,0.0,0.0,-2.7373,-2.6931,-2.6198,-2.5641,-2.5265,-2.4538,-2.4199,-2.4199,-2.4199,-2.4199,-2.4199,-2.4199,-2.4199,-2.4199,-2.4199,-2.4199,-2.4199,-2.4199,-2.4199,-2.4291,-2.5008,-2.5265,-2.5375,-2.608,0.0,0.0,-2.6286,-2.6277,-2.6274,-2.6335,-2.6362,-2.6279,-2.5977,-2.5897,-2.5652,-2.4535,-2.4242,-2.4032,-2.33,-2.2898,-2.2652,-2.2652,-2.2463,-2.231,-2.231,-2.2835,-2.3274,-2.3274,-2.4242,-2.4669,-2.3553,-2.3393,-2.3131,-2.2403,-2.231,-2.231,-2.231,0.0,0.0,-2.231,-2.231,-2.231,-2.231,-2.231,-2.231,-2.231,-2.231,-2.231,-2.231,-2.231,-2.2274,-2.2209,-2.1847,-2.1964,-2.2547,-2.3227,-2.3677,0.0,0.0,0.0,0.0,0.0,0.0,0.0,0.0,0.0,0.0,0.0,0.0,0.0,0.0,0.0,-2.8613,-2.9004,-2.916,-2.8633,-2.7949,-2.7764,-2.8467,-2.8398,-2.7927,-2.6974,-2.6975,-2.6658,-2.5703,-2.5736,-2.5803,-2.5803,-2.5803,-2.5803,-2.5803,-2.565,-2.5466,-2.5276,-2.4948,-2.4668,-2.4428,0.0,0.0,-2.4199,-2.4199,-2.4199,-2.4199,-2.4199,-2.4199,-2.4199,-2.4199,-2.4199,-2.4199,-2.4199,-2.4199,-2.4217,-2.4364,-2.4428,-2.4447,-2.4612,-2.4658,-2.4609,-2.4351,-2.4257,-2.4322,-2.4709,-2.4834,0.0,-2.4753,-2.472,-2.4542,-2.3655,-2.3216,-2.298,-2.2823,-2.259,-2.2388,-2.2388,-2.2358,-2.231,-2.231,-2.2429,-2.2522,-2.2522,-2.3693,-2.4343,-2.3532,-2.3393,-2.3131,-2.2403,-2.231,-2.231,-2.231,-2.231,-2.231,-2.231,-2.231,-2.231,-2.231,-2.231,-2.231,-2.231,-2.231,-2.231,-2.231,-2.231,-2.2106,-2.1735,-2.1859,-2.1794,-2.1596,-2.2151,-2.2744,0.0,0.0,0.0,0.0,0.0,0.0,0.0,0.0,0.0,0.0,0.0,-2.6103,-2.7412,0.0,-2.8301,-2.8301,-2.8301,-2.8154,-2.7715,-2.6904,-2.667,-2.7549,-2.7256,-2.6795,-2.6298,-2.619,-2.5944,-2.5442,-2.5339,-2.5293,-2.5293,-2.5293,-2.5293,-2.5293,-2.5099,-2.4933,-2.4804,-2.4601,-2.441,-2.4199,-2.4199,-2.4199,-2.4199,-2.4199,-2.4199,-2.4199,-2.4199,-2.4199,-2.4199,-2.4199,-2.4199,-2.417,-2.4025,-2.4045,-2.417,-2.4016,-2.3946,-2.3926,-2.3765,-2.3692,-2.3671,-2.3491,-2.3446,-2.3486,-2.3738,-2.3806,-2.3749,-2.3601,-2.3551,-2.3421,-2.2894,-2.2634,-2.25,-2.25,-2.2407,-2.231,-2.231,-2.231,-2.231,-2.231,-2.231,-2.231,-2.231,-2.2911,-2.3266,-2.2902,-2.2852,-2.2725,-2.2361,-2.231,-2.231,-2.231,-2.231,-2.231,-2.231,-2.231,-2.231,-2.231,-2.231,-2.231,-2.231,-2.231,-2.218,-2.1957,-2.1966,-2.1743,-2.1306,-2.1204,-2.1025,-2.0783,-2.0868,-2.1462,0.0,0.0,0.0,0.0,0.0,0.0,0.0,-2.4648,-2.4902,-2.5771,-2.5947,-2.6221,-2.709,-2.7236,-2.7411,-2.7938,-2.744,-2.6923,-2.6747,-2.6133,-2.5898,-2.6426,-2.6016,-2.5683,-2.5621,-2.5551,-2.5478,-2.5421,-2.5347,-2.5293,-2.5293,-2.5293,-2.5293,-2.5293,-2.5086,-2.4917,-2.4804,-2.4568,-2.4357,-2.4199,-2.4199,-2.4199,-2.4199,-2.4199,-2.4199,-2.4199,-2.4199,-2.4199,-2.4199,-2.4199,-2.4199,-2.417,-2.3816,-2.3876,-2.4065,-2.3723,-2.3588,-2.3566,-2.3291,-2.3189,-2.3189,-2.3117,-2.3085,-2.3093,-2.303,-2.3023,-2.2965,-2.2695,-2.2617,-2.2581,-2.2349,-2.231,-2.231,-2.231,-2.231,-2.231,-2.231,-2.231,-2.231,-2.231,-2.231,-2.231,-2.231,-2.231,-2.231,-2.231,-2.231,-2.231,-2.231,-2.231,-2.231,-2.231,-2.231,-2.231,-2.231,-2.231,-2.231,-2.231,-2.231,-2.231,-2.231,-2.2209,-2.2003,-2.162,-2.1521,-2.1275,-2.0862,-2.0475,-2.0246,-2.0193,-1.9839,-2.0266,-2.5033,-2.5263,-2.531,-2.5324,-2.5366,-2.543,0.0,-2.5547,-2.5801,-2.667,-2.6846,-2.7119,-2.7988,-2.811,-2.7844,-2.7171,-2.6974,-2.6642,-2.5871,-2.572,-2.5449,-2.4766,-2.5293,-2.5703,-2.5693,-2.5567,-2.5498,-2.5488,-2.5369,-2.5293,-2.5293,-2.5293,-2.5293,-2.5293,-2.4997,-2.4818,-2.4804,-2.4418,-2.4228,-2.4199,-2.4199,-2.4199,-2.4199,-2.4199,-2.4199,-2.4199,-2.4199,-2.4199,-2.4199,-2.4199,-2.4199,-2.417,-2.3816,-2.3714,-2.3723,-2.3392,-2.3268,-2.3245,-2.3212,-2.3189,-2.3141,-2.2839,-2.2772,-2.2704,-2.248,-2.2396,-2.2396,-2.2349,-2.2341,-2.2358,-2.231,-2.231,-2.231,-2.231,-2.231,-2.231,-2.231,-2.231,-2.231,-2.231,-2.231,-2.231,-2.231,-2.231,-2.231,-2.231,-2.231,-2.231,-2.231,-2.231,-2.231,-2.231,-2.231,-2.231,-2.231,-2.231,-2.231,-2.231,-2.231,-2.231,-2.231,-2.1899,-2.165,-2.159,-2.1252,-2.0821,-2.0382,-2.0314,-2.0131,-1.9782,-1.9718,-1.9765,-2.4373,-2.4791,-2.4973,-2.5471,-2.5619,-2.5649,-2.5693,-2.5703,-2.5801,-2.6172,-2.6209,-2.6301,-2.6662,-2.6671,-2.6506,0.0,-2.6092,-2.5967,-2.5647,-2.5621,-2.5327,-2.4502,-2.5166,-2.5498,-2.499,-2.5324,-2.5537,-2.5503,-2.5408,-2.5338,-2.5303,-2.5293,-2.5293,-2.5293,-2.5051,-2.4887,-2.4804,-2.4528,-2.4321,-2.4199,-2.4199,-2.4199,-2.4199,-2.4199,-2.4199,-2.4199,-2.4199,-2.4094,-2.3917,-2.3917,-2.3786,-2.3588,-2.3245,-2.3117,-2.3093,-2.2972,-2.2914,-2.2898,-2.2721,-2.2686,-2.266,-2.2509,-2.2463,-2.2445,-2.2321,-2.231,-2.231,-2.231,-2.231,-2.231,-2.231,-2.231,-2.231,-2.231,-2.231,-2.231,-2.231,-2.231,-2.231,-2.231,-2.231,-2.231,-2.231,-2.231,-2.231,-2.231,-2.231,-2.231,-2.231,-2.231,-2.231,-2.231,-2.231,-2.231,-2.231,-2.204,-2.189,-2.189,-2.1675,-2.1554,-2.1554,-2.1354,-2.111,-2.0838,-2.0682,-2.039,-1.9929,-1.9929,-1.9874,-1.9682,-1.9682,-1.9682,-2.3416,-2.3981,-2.4296,-2.4744,-2.522,-2.5527,-2.5353,-2.5492,-2.5637,-2.5637,-2.5615,-2.5567,-2.5567,-2.5517,-2.5472,-2.5472,-2.5472,-2.5488,-2.5543,-2.5372,-2.5032,-2.444,-2.4951,-2.5088,-2.4463,-2.5112,-2.5554,-2.5503,-2.5421,-2.5346,-2.5303,-2.5293,-2.5274,-2.5214,-2.5041,-2.4877,-2.4716,-2.4528,-2.4339,-2.4199,-2.4199,-2.4199,-2.4199,-2.4199,-2.4199,-2.4199,-2.4199,-2.4065,-2.3816,-2.3744,-2.3566,-2.33,-2.2873,-2.2695,-2.2695,-2.2617,-2.2599,-2.2555,-2.2369,-2.231,-2.231,-2.231,-2.231,-2.231,-2.231,-2.231,-2.231,-2.231,-2.231,-2.231,-2.231,-2.231,-2.231,-2.231,-2.231,-2.231,-2.231,-2.231,-2.231,-2.231,-2.231,-2.231,-2.231,-2.231,-2.231,-2.231,-2.231,-2.231,-2.231,-2.231,-2.231,-2.231,-2.231,-2.231,-2.231,-2.1861,-2.159,-2.159,-2.1213,-2.0999,-2.0999,-2.0862,-2.0657,-2.0314,-2.0185,-2.0,-1.9682,-1.9682,-1.9682,-1.9682,-1.9682,-1.9682,-2.2684,-2.3325,-2.3757,-2.314,-2.4247,-2.5303,-2.4519,-2.4948,-2.5508,-2.5508,-2.5493,-2.5503,-2.5503,-2.5447,-2.5406,-2.5406,-2.5406,-2.5406,-2.5406,-2.4788,-2.433,-2.4313,-2.4381,-2.4434,-2.4404,-2.5073,-2.5503,-2.5503,-2.5377,-2.5303,-2.5293,-2.5293,-2.5214,-2.5022,-2.4873,-2.4716,-2.4512,-2.4321,-2.4218,-2.4199,-2.4199,-2.4199,-2.4199,-2.4199,-2.4199,-2.4199,-2.4199,-2.419,-2.417,-2.3837,-2.3692,-2.3619,-2.2972,-2.2695,-2.2678,-2.2407,-2.2302,-2.2302,-2.231,-2.231,-2.231,-2.231,-2.231,-2.231,-2.231,-2.231,-2.231,-2.231,-2.231,-2.231,-2.231,-2.231,-2.231,-2.231,-2.231,-2.231,-2.231,-2.231,-2.231,-2.231,-2.231,-2.231,-2.231,-2.231,-2.231,-2.231,-2.231,-2.231,-2.231,-2.231,-2.231,-2.231,-2.231,-2.231,-2.231,-2.1861,-2.159,-2.159,-2.1213,-2.0999,-2.0999,-2.055,-2.0306,-2.0314,-1.9902,-1.9718,-1.9682,-1.9682,-1.9682,-1.9682,-1.9682,-1.9682,-2.0153,-2.1065,-2.1895,-2.2441,-2.3011,-2.3423,-2.3335,-2.3935,-2.4538,-2.4681,-2.5092,-2.5428,-2.5428,-2.5377,-2.533,-2.533,-2.4896,-2.4545,-2.4595,-2.3894,-2.3406,-2.3491,-2.4032,-2.4401,-2.4404,-2.5152,0.0,-2.5508,-2.5465,-2.5389,-2.5293,-2.5293,-2.5214,-2.501,-2.4959,-2.4785,-2.4502,-2.4436,-2.433,-2.4199,-2.4199,-2.4199,-2.4199,-2.4199,-2.4199,-2.4199,-2.3967,-2.3744,-2.3513,-2.3165,-2.2924,-2.2747,-2.2517,-2.2417,-2.2426,-2.2321,-2.231,-2.231,-2.231,-2.231,-2.231,-2.231,-2.231,-2.231,-2.231,-2.231,-2.231,-2.231,-2.231,-2.231,-2.231,-2.231,-2.231,-2.231,-2.2069,-2.1832,-2.1832,-2.1645,-2.1454,-2.1454,-2.1454,-2.1454,-2.1454,-2.1454,-2.1454,-2.1454,-2.1915,-2.231,-2.231,-2.231,-2.231,-2.231,-2.231,-2.231,-2.231,-2.1615,-2.1213,-2.1213,-2.0532,-2.0147,-2.0147,-1.998,-1.9909,-1.9909,-1.9782,-1.9682,-1.9682,-1.9682,-1.9682,-1.9682,-1.9682,-1.9682,-1.8353,-1.949,-2.0442,-2.101,-2.1711,-2.225,-2.2198,-2.304,-2.3858,-2.3991,-2.4637,-2.5187,-2.5187,-2.5186,-2.5182,-2.5126,-2.4791,-2.4523,-2.4492,-2.3813,-2.3475,-2.3871,-2.4186,-2.4489,-2.4801,-2.5361,0.0,-2.5512,-2.5478,-2.5417,-2.5313,-2.5293,-2.5214,-2.501,-2.4949,-2.4795,-2.4502,-2.4436,-2.433,-2.4199,-2.4199,-2.4199,-2.4199,-2.4074,-2.4016,-2.4016,-2.3786,-2.3513,-2.3189,-2.2972,-2.2704,-2.2417,-2.2358,-2.231,-2.231,-2.231,-2.231,-2.231,-2.231,-2.231,-2.231,-2.231,-2.231,-2.231,-2.231,-2.231,-2.231,-2.231,-2.231,-2.231,-2.231,-2.231,-2.231,-2.231,-2.1928,-2.159,-2.159,-2.1275,-2.0999,-2.0999,-2.0999,-2.0999,-2.0999,-2.0999,-2.0999,-2.0999,-2.1493,-2.1848,-2.1848,-2.1848,-2.1878,-2.2032,-2.1907,-2.1878,-2.204,-2.1252,-2.0756,-2.0756,-2.0077,-1.9682,-1.9682,-1.9682,-1.9682,-1.9682,-1.9682,-1.9682,-1.9682,-1.9682,-1.9682,-1.9682,-1.9486,-1.9406,-1.7134,-1.8428,-1.9262,-1.8847,-2.0257,-2.1611,-2.1092,-2.2243,-2.3422,-2.3459,-2.4181,-2.4804,-2.4804,-2.4894,-2.4949,-2.4837,-2.5032,-2.5156,-2.4977,-2.4427,-2.4365,0.0,0.0,-2.464,-2.5523,-2.566,0.0,-2.5517,0.0,-2.5385,-2.5313,-2.5303,-2.5214,-2.501,-2.4873,-2.4716,-2.4512,-2.4303,-2.4199,-2.4199,-2.4199,-2.4199,-2.4199,-2.3846,-2.3692,-2.3692,-2.3662,-2.3468,-2.3165,-2.3174,-2.2972,-2.2652,-2.2407,-2.231,-2.231,-2.231,-2.231,-2.231,-2.231,-2.231,-2.231,-2.231,-2.231,-2.231,-2.231,-2.231,-2.2282,-2.2274,-2.2245,-2.2245,-2.2245,-2.2245,-2.2245,-2.2245,-2.1861,-2.1521,-2.1521,-2.1213,-2.0926,-2.0926,-2.0926,-2.0926,-2.0926,-2.0926,-2.0926,-2.0926,-2.0926,-2.0967,-2.0999,-2.0999,-2.1158,-2.1529,-2.1221,-2.115,-2.1529,-2.0797,-2.0314,-2.0314,-1.9902,-1.9682,-1.9682,-1.9682,-1.9682,-1.9682,-1.9682,-1.9682,-1.9682,-1.9682,-1.9682,-1.9682,-1.9125,-1.8855,-1.3699,-1.4955,-1.6081,-1.6606,-1.7558,-1.8537,-1.9235,-2.0824,-2.2343,-2.298,-2.4018,-2.4804,-2.4804,-2.4837,-2.4873,-2.4946,-2.4524,0.0,-2.4322,-2.3639,0.0,-2.4399,-2.4338,-2.4589,-2.551,-2.5617,0.0,0.0,-2.5512,-2.5453,-2.5376,-2.5331,-2.5214,-2.501,-2.4962,-2.4799,-2.4502,-2.4303,-2.4199,-2.4199,-2.4199,-2.4199,-2.4199,-2.3846,-2.3692,-2.3671,-2.3165,-2.2923,-2.2822,-2.2607,-2.248,-2.2415,-2.233,-2.231,-2.231,-2.231,-2.231,-2.231,-2.231,-2.231,-2.231,-2.231,-2.231,-2.231,-2.231,-2.231,-2.2245,-2.189,-2.1794,-2.1697,-2.1415,-2.1323,-2.1323,-2.1323,-2.0975,-2.0634,-2.0634,-2.033,-2.0015,-2.0015,-2.0015,-2.0015,-2.0015,-2.0015,-2.0015,-2.0015,-2.0015,-2.0285,-2.0902,-2.0999,-2.1031,-2.115,-2.1063,-2.1031,-2.115,-2.0649,-2.0314,-2.0314,-1.9902,-1.9682,-1.9682,-1.9682,-1.9682,-1.9682,-1.9682,-1.9682,-1.9682,-1.9288,-1.9325,-1.9682,-1.8734,-1.8535,-1.2174,-1.3284,-1.4276,-1.5022,-1.607,-1.7207,-1.8295,-1.9992,-2.1625,-2.2575,-2.3474,-2.4192,-2.4484,-2.4489,-2.45,0.0,0.0,0.0,-2.4404,-2.411,-2.409,-2.4621,-2.4716,-2.4924,-2.5459,-2.5571,-2.5603,0.0,-2.5538,-2.5472,-2.5394,-2.5339,-2.5244,-2.5141,-2.4993,-2.4737,-2.4375,-2.4256,-2.4199,-2.4199,-2.4199,-2.4199,-2.4199,-2.3846,-2.3692,-2.3671,0.0,-2.2848,-2.2695,-2.2545,-2.2407,-2.231,-2.231,-2.231,-2.231,-2.231,-2.231,-2.231,-2.231,-2.231,-2.231,-2.231,-2.231,-2.231,-2.231,-2.231,-2.2245,-2.1966,-2.1764,-2.156,-2.1306,-2.1118,-2.0999,-2.0999,-2.0649,-2.0314,-2.0314,-2.0,-1.9682,-1.9682,-1.9682,-1.9682,-1.9682,-1.9682,-1.9682,-1.9682,-1.9682,-1.9889,-2.0379,-2.0439,-2.0506,-2.0682,-2.0532,-2.0499,-2.069,-2.0296,-2.0027,-2.0027,-1.9803,-1.9682,-1.9682,-1.9682,-1.9682,-1.9682,-1.9682,-1.9682,-1.9682,-1.9406,-1.9288,-1.9325,-1.8496,-1.8138,-1.1449,-1.2366,-1.2997,-1.3706,-1.5092,-1.6606,-1.7764,-1.9442,-2.1105,-2.2227,-2.2852,-2.3392,-2.4025,-2.3993,-2.3976,-2.42,-2.4589,-2.4866,-2.4828,-2.5082,-2.5264,-2.5303,-2.5347,-2.5391,-2.5396,-2.5512,-2.5537,-2.5444,-2.5365,-2.5318,-2.5259,-2.5192,-2.5101,-2.4966,-2.4639,-2.4351,-2.4109,-2.3961,-2.3933,-2.4043,-2.3924,-2.3933,-2.4034,-2.3683,-2.3563,-2.361,0.0,0.0,-2.2634,-2.2634,-2.25,-2.231,-2.231,-2.231,-2.231,-2.231,-2.231,-2.231,-2.231,-2.231,-2.231,-2.231,-2.2245,-2.2209,-2.2209,-2.218,-2.2115,-2.2049,-2.1735,-2.143,-2.136,-2.1086,-2.0837,-2.0837,-2.0524,-2.0219,-2.0219,-1.9937,-1.9682,-1.9682,-1.9682,-1.9682,-1.9682,-1.9682,-1.9682,-1.9682,-1.9682,-1.9682,-1.9682,-1.9682,-1.9846,-2.0185,-1.9909,-1.9846,-2.0185,-1.9909,-1.9682,-1.9682,-1.9682,-1.9682,-1.9682,-1.9682,-1.9682,-1.9682,-1.9682,-1.9646,-1.9603,-1.9522,-1.9244,-1.8772,-1.8178,-1.7666,-0.9497,-1.0101,-1.0681,-1.1852,-1.3237,-1.4781,-1.6604,-1.8666,-2.0531,-2.1883,-2.2726,-2.3314,-2.3714,-2.3548,-2.3577,-2.4338,-2.4299,-2.436,-2.4892,-2.502,-2.5111,-2.5283,-2.5303,-2.5339,-2.5396,-2.5472,0.0,0.0,-2.4509,-2.4502,-2.4491,-2.4432,-2.404,-2.3263,-2.2909,-2.3022,-2.3613,-2.2691,-2.2547,-2.3208,-2.2529,-2.2556,-2.3198,-2.2856,-2.2912,-2.3268,-2.2914,0.0,-2.2369,-2.2369,-2.2341,-2.231,-2.231,-2.231,-2.231,-2.231,-2.231,-2.231,-2.231,-2.231,-2.231,-2.231,-2.204,-2.1718,-2.1718,-2.1477,-2.115,-2.0748,-2.0575,-2.0442,-2.0104,-1.998,-1.9917,-1.9917,-1.9846,-1.9811,-1.9811,-1.9754,-1.9682,-1.9682,-1.9682,-1.9682,-1.9682,-1.9682,-1.9682,-1.9682,-1.9682,-1.9682,-1.9682,-1.9682,-1.9718,-1.9782,-1.9754,-1.9718,-1.9811,-1.9754,-1.9682,-1.9682,-1.9682,-1.9682,-1.9682,-1.9682,-1.9682,-1.9682,-1.9682,-1.9486,-1.905,-1.8574,-1.8334,-1.8217,-1.7229,-1.6951,-0.8518,-0.901,-0.9538,-1.0856,-1.2356,-1.4115,-1.6308,-1.8324,-2.0193,-2.1784,-2.244,-2.2866,-2.3346,-2.3174,-2.3115,-2.3735,-2.3929,-2.41,-2.4432,-2.4724,-2.4956,-2.512,-2.5142,-2.5205,-2.5329,-2.5023,-2.4661,-2.4286,-2.389,-2.3664,-2.3634,-2.3531,-2.3222,-2.2661,-2.2494,-2.2514,-2.2725,-2.2172,-2.2062,-2.2373,-2.1969,-2.1996,-2.2373,-2.2209,-2.2182,-2.2278,-2.2318,0.0,-2.1961,-2.2188,-2.231,-2.231,-2.231,-2.231,-2.231,-2.231,-2.231,-2.231,-2.231,-2.231,-2.231,-2.231,-2.2143,-2.1966,-2.1966,-2.1667,-2.1275,-2.1031,-2.0641,-2.0254,-2.0062,-1.9874,-1.9682,-1.9682,-1.9682,-1.9682,-1.9682,-1.9682,-1.9682,-1.9682,-1.9682,-1.9682,-1.9682,-1.9682,-1.9682,-1.9682,-1.9682,-1.9682,-1.9682,-1.9682,-1.9682,-1.9682,-1.9682,-1.9682,-1.9682,-1.9682,-1.9682,-1.9682,-1.9682,-1.9682,-1.9682,-1.9682,-1.9682,-1.9682,-1.9682,-1.9442,-1.8893,-1.865,-1.8217,-1.7666,-1.7153,-1.6915,-0.8224,-0.852,-0.8955,-1.0356,-1.1905,-1.3721,-1.6099,-1.8,-1.9758,-2.1511,-2.201,-2.2354,-2.2981,-2.2831,-2.2738,-2.315,-2.3498,-2.3794,-2.396,-2.4366,-2.4704,-2.4937,-2.4977,-2.5067,-2.5214,-2.4611,0.0,-2.3957,-2.3067,0.0,-2.2715,-2.2423,-2.219,-2.2036,-2.1995,-2.1926,-2.183,-2.1598,-2.152,-2.1578,-2.1369,-2.1345,-2.1519,-2.1485,-2.1398,-2.1306,-2.1573,0.0,0.0,-2.1835,-2.2065,-2.2082,-2.2251,-2.231,-2.231,-2.231,-2.231,-2.231,-2.231,-2.231,-2.231,-2.231,-2.2245,-2.2143,-2.2143,-2.1832,-2.146,-2.136,-2.0838,-2.028,-2.0185,-1.9937,-1.9682,-1.9682,-1.9682,-1.9682,-1.9682,-1.9682,-1.9682,-1.9682,-1.9682,-1.9682,-1.9682,-1.9682,-1.9682,-1.9682,-1.9682,-1.9682,-1.9682,-1.9682,-1.9682,-1.9682,-1.9682,-1.9682,-1.9682,-1.9682,-1.9682,-1.9682,-1.9682,-1.9682,-1.9682,-1.9682,-1.9646,-1.9522,-1.9522,-1.9207,-1.8574,-1.8574,-1.8059,-1.7111,-1.7111,-1.6915,-0.8751,-0.8595,-0.871,-1.0312,-1.1542,-1.305,-1.5585,-1.7386,-1.8989,-2.0726,-2.1399,-2.1899,-2.2609,-2.2527,-2.2526,-2.3111,0.0,-2.3112,-2.3882,-2.4044,-2.4262,-2.4771,-2.493,-2.501,-2.5022,-2.453,-2.3905,-2.3174,-2.1637,0.0,-2.1784,-2.1001,-2.0517,-2.0498,-2.0327,-2.0574,-2.1271,-2.0311,-2.0187,-2.0875,-1.997,-1.9904,-2.0613,-2.0426,-2.0576,-2.093,-2.0735,0.0,0.0,-2.0992,-2.1314,-2.1355,-2.204,-2.231,-2.231,-2.231,-2.231,-2.231,-2.231,-2.231,-2.231,-2.231,-2.2003,-2.1658,-2.1658,-2.1376,-2.0959,-2.0542,-2.0374,-2.0219,-1.9846,-1.9718,-1.9682,-1.9682,-1.9682,-1.9682,-1.9682,-1.9682,-1.9682,-1.9682,-1.9682,-1.9682,-1.9682,-1.9682,-1.9682,-1.9682,-1.9682,-1.9682,-1.9682,-1.9682,-1.9682,-1.9682,-1.9682,-1.9682,-1.9682,-1.9682,-1.9682,-1.9682,-1.9682,-1.9682,-1.9682,-1.9682,-1.9486,-1.8968,-1.8968,-1.8458,-1.747,-1.747,-1.7153,-1.6558,-1.6558,-1.6558,-0.846,-0.849,-0.8719,-1.0205,-1.1075,-1.2303,-1.5094,-1.6907,-1.8384,-1.9766,-2.086,-2.1702,-2.1989,-2.1944,-2.2056,-2.2581,-2.2476,-2.2531,-2.3132,-2.3768,-2.4203,-2.4309,-2.4757,-2.501,0.0,0.0,-2.2688,-2.1522,-2.0851,0.0,-2.0962,-2.0551,-2.0299,-2.0302,-2.0223,-2.0241,-2.0361,-1.9934,-1.978,-1.9889,-1.9491,-1.9464,-1.9776,-1.9696,-1.9614,-1.9533,-1.9879,0.0,0.0,-2.0171,-2.0754,-2.1237,-2.1515,-2.1913,-2.231,-2.231,-2.231,-2.231,-2.231,-2.231,-2.231,-2.231,-2.2172,-2.1966,-2.1688,-2.1306,-2.0894,-2.0449,-2.0124,-1.9909,-1.9754,-1.9682,-1.9682,-1.9682,-1.9682,-1.9682,-1.9682,-1.9682,-1.9682,-1.9682,-1.9682,-1.9682,-1.9682,-1.9682,-1.9682,-1.9682,-1.9682,-1.9682,-1.9682,-1.9682,-1.9682,-1.9682,-1.9682,-1.9682,-1.9682,-1.9682,-1.9682,-1.9682,-1.9682,-1.9682,-1.9682,-1.9682,-1.9603,-1.9406,-1.905,-1.8535,-1.7787,-1.747,-1.7034,-1.6515,-1.6515,-1.6515,-0.8656,-0.8657,-0.8918,-1.0337,-1.0978,-1.2077,-1.5126,-1.6705,-1.7955,-1.9544,-2.0718,-2.146,-2.159,-2.1718,-2.1861,0.0,-2.2133,-2.2362,-2.2972,-2.3711,-2.4282,-2.4556,0.0,-2.5096,-2.5067,-2.3537,-2.1949,-2.0511,0.0,0.0,-2.05,-2.0169,-2.0065,-2.0289,-2.0308,-2.0162,-1.9858,-1.9823,-1.9667,-1.9389,-1.9329,-1.9305,-1.9299,-1.9236,-1.9033,-1.8742,-1.9179,0.0,0.0,-1.9488,-2.0212,-2.0864,-2.1119,-2.1642,-2.231,-2.231,-2.231,-2.231,-2.231,-2.231,-2.231,-2.231,-2.2209,-2.2003,-2.1568,-2.1314,-2.1047,-2.0483,-1.9992,-1.9682,-1.9682,-1.9682,-1.9682,-1.9682,-1.9682,-1.9682,-1.9682,-1.9682,-1.9682,-1.9682,-1.9682,-1.9682,-1.9682,-1.9682,-1.9682,-1.9682,-1.9682,-1.9682,-1.9682,-1.9682,-1.9682,-1.9682,-1.9682,-1.9682,-1.9682,-1.9682,-1.9682,-1.9682,-1.9682,-1.9682,-1.9682,-1.9566,-1.9406,-1.9244,-1.8696,-1.8178,-1.7626,-1.7229,-1.6873,-1.6515,-1.6515,-1.6515,-0.9583,-0.9312,-0.9326,-1.0724,-1.1401,-1.2523,-1.5772,-1.6794,-1.7822,-2.0463,-2.0999,-2.1126,-2.1529,-2.1966,-2.2135,-2.1688,-2.2003,-2.266,-2.3731,-2.3889,-2.441,-2.5802,-2.545,-2.5266,-2.5643,-2.3822,-2.1993,-2.0505,0.0,0.0,-2.05,-1.9681,-1.955,-2.0284,-2.0299,-2.0197,-2.0003,-1.9869,-1.9726,-1.9592,-1.9404,-1.9305,-1.9289,-1.9093,-1.8993,0.0,0.0,0.0,0.0,-1.9001,-1.9596,-2.0086,-2.0881,-2.1642,-2.231,-2.231,-2.231,-2.231,-2.231,-2.231,-2.231,-2.231,-2.2003,-2.1521,-2.1126,-2.1275,-2.1422,-2.0534,-1.9992,-1.9682,-1.9682,-1.9682,-1.9682,-1.9682,-1.9682,-1.9682,-1.9682,-1.9682,-1.9682,-1.9682,-1.9682,-1.9682,-1.9682,-1.9682,-1.9682,-1.9682,-1.9682,-1.9682,-1.9682,-1.9682,-1.9682,-1.9682,-1.9682,-1.9682,-1.9682,-1.9682,-1.9682,-1.9682,-1.9682,-1.9682,-1.9682,-1.9207,-1.865,-1.8138,-1.7585,-1.7034,-1.6515,-1.6515,-1.6515,-1.6515,-1.6515,-1.6515,-1.0877,-1.1056,-1.1254,-1.2431,-1.3116,-1.3985,-1.5907,-1.6759,-1.7558,-1.9106,-1.9696,-2.0057,-2.062,-2.1086,-2.1609,-2.2263,0.0,0.0,-2.416,-2.4526,-2.4695,-2.4823,-2.4628,-2.4165,0.0,0.0,-2.1789,0.0,0.0,0.0,-1.9706,-1.9368,-1.9292,-1.9476,-1.886,-1.8452,-1.8288,-1.884,-1.8981,-1.8722,-1.9249,-1.9433,-1.9299,-1.9236,-1.9134,0.0,0.0,0.0,0.0,-1.8733,-1.909,-1.9542,-1.9814,-2.0568,-2.1541,-2.1541,-2.1541,-2.1617,-2.2133,-2.1972,-2.1625,-2.215,-2.2209,-2.2003,-2.1538,-2.107,-2.0616,-2.0027,-1.9811,-1.9682,-1.9682,-1.9682,-1.9682,-1.9682,-1.9682,-1.9682,-1.9682,-1.9682,-1.9682,-1.9682,-1.9682,-1.9682,-1.9682,-1.9682,-1.9682,-1.9682,-1.9682,-1.9682,-1.9682,-1.9682,-1.9682,-1.9682,-1.9682,-1.9682,-1.9682,-1.9682,-1.9682,-1.9682,-1.9682,-1.9682,-1.9682,-1.9522,-1.9369,-1.9207,-1.8295,-1.7747,-1.7585,-1.6873,-1.6515,-1.6515,-1.6515,-1.6515,-1.1895,-1.2149,-1.2435,-1.3457,-1.3772,-1.4284,-1.592,-1.6513,-1.7147,-1.8635,-1.9198,-1.958,-2.019,-2.0813,-2.1421,-2.1986,-2.258,0.0,0.0,0.0,-2.487,-2.4522,-2.4599,0.0,0.0,-2.2163,-2.1684,0.0,0.0,0.0,-1.9316,-1.8635,-1.8237,-1.8203,-1.79,-1.7656,-1.7498,-1.804,-1.8183,-1.7928,-1.873,-1.9031,-1.8928,-1.9173,-1.9236,0.0,0.0,0.0,0.0,-1.8489,-1.8734,-1.9147,-1.9259,-1.9896,-2.0772,-2.0867,-2.0832,-2.0856,-2.1617,-2.1574,-2.1304,-2.2065,-2.2172,-2.1928,-2.1298,-2.0732,-2.0219,-1.9811,-1.9682,-1.9682,-1.9682,-1.9682,-1.9682,-1.9682,-1.9682,-1.9682,-1.9682,-1.9682,-1.9682,-1.9682,-1.9682,-1.9682,-1.9682,-1.9682,-1.9682,-1.9682,-1.9682,-1.9682,-1.9682,-1.9682,-1.9682,-1.9682,-1.9682,-1.9682,-1.9682,-1.9682,-1.9682,-1.9682,-1.9682,-1.9603,-1.9406,-1.9207,-1.9006,-1.881,-1.794,-1.751,-1.751,-1.6837,-1.6515,-1.6515,-1.6515,-1.6515,0.0,-1.2686,-1.2939,-1.3939,-1.3742,-1.3872,-1.588,-1.6285,0.0,-1.8914,-1.9353,-1.9522,-2.0138,-2.0927,-2.1407,-2.1103,-2.231,0.0,0.0,-2.4739,-2.4891,0.0,-2.5002,0.0,-2.2175,-2.2055,0.0,0.0,0.0,0.0,-1.9111,-1.7584,-1.6668,-1.6597,-1.7258,-1.7526,-1.7352,-1.7401,-1.7359,-1.7228,-1.79,-1.8257,-1.8302,-1.8932,-1.9259,0.0,0.0,0.0,0.0,-1.8382,-1.8517,-1.8894,-1.9151,-1.9518,-1.9934,-2.0211,-2.0147,-2.0035,-2.0889,-2.117,-2.1236,-2.2048,-2.1966,-2.1452,-2.0601,-2.0314,-2.0219,-1.9811,-1.9682,-1.9682,-1.9682,-1.9682,-1.9682,-1.9682,-1.9682,-1.9682,-1.9682,-1.9682,-1.9682,-1.9682,-1.9682,-1.9682,-1.9682,-1.9682,-1.9682,-1.9682,-1.9682,-1.9682,-1.9682,-1.9682,-1.9682,-1.9682,-1.9682,-1.9682,-1.9682,-1.9682,-1.9682,-1.9682,-1.9682,-1.9486,-1.8968,-1.8496,-1.794,-1.7429,-1.6831,-1.6558,-1.6515,-1.6515,-1.6515,-1.6515,-1.6515,-1.6515,-1.3736,0.0,-1.3899,-1.4904,-1.5346,-1.5749,0.0,-1.704,-1.7617,-1.8665,-1.8865,-1.9061,-1.9725,-2.0254,-2.0797,-2.1302,-2.1968,-2.2793,-2.39,-2.4299,0.0,-2.3641,-2.3571,-2.3052,-2.174,-2.1322,0.0,0.0,0.0,-1.8391,-1.7292,-1.6894,-1.6367,-1.5649,-1.5798,-1.5856,-1.5814,-1.643,-1.6624,-1.6393,-1.7174,-1.7753,-1.8153,-1.8313,-1.872,0.0,0.0,0.0,-1.9139,-1.9064,-1.8896,-1.8673,-1.8733,-1.8936,-1.9164,-1.9219,-1.9204,-1.935,-2.072,-2.0796,-2.0526,-2.187,-2.1966,-2.1491,-2.0983,-2.0583,-2.0219,-1.9811,-1.9682,-1.9682,-1.9682,-1.9682,-1.9682,-1.9682,-1.9682,-1.9682,-1.9682,-1.9682,-1.9682,-1.9682,-1.9682,-1.9682,-1.9682,-1.9682,-1.9682,-1.9682,-1.9682,-1.9682,-1.9682,-1.9682,-1.9682,-1.9682,-1.9682,-1.9682,-1.9682,-1.9682,-1.9682,-1.9682,-1.9682,-1.9646,-1.9522,-1.9406,-1.9088,-1.8535,-1.7585,-1.6915,-1.6515,-1.6515,-1.6515,-1.6515,-1.6515,-1.6515,-1.4074,-1.4206,-1.4681,-1.5691,-1.5901,-1.6104,-1.7135,-1.7316,-1.7511,-1.8508,-1.8702,-1.8904,-1.9563,-2.02,-2.0683,-2.0903,-2.1922,0.0,0.0,0.0,-2.345,-2.2534,-2.245,-2.2046,0.0,0.0,0.0,0.0,0.0,-1.7775,-1.6661,-1.6282,-1.5872,-1.5361,-1.5317,-1.5293,-1.5246,-1.5684,-1.5797,-1.5606,-1.6376,-1.6873,-1.7106,-1.7794,-1.8344,0.0,0.0,0.0,-1.9141,-1.9024,-1.8834,-1.8613,-1.8734,-1.8704,-1.8582,-1.8706,-1.8605,-1.8564,-1.9731,-2.0314,-2.0746,-2.193,-2.2135,-2.1802,-2.1189,-2.0821,-2.0491,-1.9874,-1.9682,-1.9682,-1.9682,-1.9682,-1.9682,-1.9682,-1.9682,-1.9682,-1.9682,-1.9682,-1.9682,-1.9682,-1.9682,-1.9682,-1.9682,-1.9682,-1.9682,-1.9682,-1.9682,-1.9682,-1.9682,-1.9682,-1.9682,-1.9682,-1.9682,-1.9682,-1.9682,-1.9682,-1.9682,-1.9682,-1.9682,-1.9486,-1.9006,-1.8968,-1.8612,-1.782,-1.7229,-1.6795,-1.6515,-1.6515,-1.6515,-1.6515,-1.6515,-1.6515,-1.4007,-1.4407,-1.5146,-1.6085,-1.5906,-1.5875,-1.749,-1.7408,-1.7324,-1.8478,-1.8785,-1.9024,-1.9585,-2.0303,-2.0665,0.0,0.0,0.0,-2.2967,-2.2945,-2.2571,-2.1573,-2.1513,0.0,0.0,0.0,0.0,0.0,0.0,-1.708,-1.6418,-1.575,-1.5377,-1.5384,-1.5335,-1.5271,-1.5222,-1.5211,-1.5133,-1.5014,-1.5618,-1.5911,-1.5949,-1.7301,-1.7986,-1.8137,0.0,0.0,-1.9035,-1.8789,-1.8679,-1.8688,-1.8914,-1.8697,-1.829,-1.8469,-1.8249,-1.7957,-1.8663,-1.9824,-2.1109,-2.1697,-2.1835,-2.164,-2.0844,-2.0623,-2.0483,-1.9765,-1.9607,-1.9682,-1.9682,-1.9682,-1.9682,-1.9682,-1.9682,-1.9682,-1.9682,-1.9682,-1.9682,-1.9682,-1.9682,-1.9682,-1.9682,-1.9682,-1.9682,-1.9682,-1.9682,-1.9682,-1.9682,-1.9682,-1.9682,-1.9682,-1.9646,-1.9566,-1.9566,-1.9566,-1.9522,-1.945,-1.9603,-1.9251,-1.8256,-1.8138,-1.7626,-1.6637,-1.6558,-1.6515,-1.6515,-1.6515,-1.6515,-1.6515,-1.6515,-1.6515,-1.3934,-1.4493,-1.5031,-1.5536,-1.5882,-1.6425,-1.7508,-1.8075,-1.8463,-1.8665,-1.9144,-1.9563,-1.966,-1.9818,-1.9882,0.0,0.0,-2.1469,0.0,0.0,-2.1704,-2.1292,0.0,0.0,0.0,0.0,0.0,0.0,0.0,-1.6062,-1.5445,-1.5351,-1.532,-1.5324,-1.5312,-1.5301,-1.5279,-1.5224,-1.5133,-1.5004,-1.5059,-1.5367,-1.593,-1.6717,-1.7458,0.0,0.0,-1.9243,-1.9252,-1.9212,-1.9092,-1.8949,-1.8984,-1.8807,-1.8517,-1.833,-1.8208,-1.8215,-1.8725,-1.9469,-2.0162,-1.9984,-1.9701,-1.9332,-1.894,-1.8915,-1.9016,-1.8886,-1.9256,-1.9682,-1.9682,-1.9682,-1.9682,-1.9682,-1.9682,-1.9682,-1.9682,-1.9682,-1.9682,-1.9682,-1.9682,-1.9682,-1.9682,-1.9682,-1.9682,-1.9682,-1.9682,-1.9682,-1.9682,-1.9682,-1.9682,-1.9682,-1.9288,-1.9013,-1.9013,-1.9013,-1.881,-1.8373,-1.9207,-1.9406,-1.881,-1.8334,-1.782,-1.7188,-1.6716,-1.6515,-1.6515,-1.6515,-1.6515,-1.6515,-1.6515,-1.6515,-1.4199,-1.4552,-1.4997,-1.5841,-1.6374,-1.7089,-1.848,-1.874,-1.8799,-1.9166,-1.948,-1.9682,0.0,0.0,-2.0573,-2.1031,0.0,-2.1407,-2.1582,-2.1256,-2.0809,0.0,0.0,0.0,0.0,0.0,0.0,0.0,0.0,0.0,-1.512,-1.5159,-1.5231,-1.5294,-1.5304,-1.53,-1.5305,-1.527,-1.5172,-1.5004,-1.4971,-1.5064,-1.5282,-1.6021,-1.6758,-1.7495,0.0,-1.8895,-1.9305,-1.9305,-1.9252,-1.915,-1.9035,-1.8834,-1.8547,-1.8133,-1.7984,-1.8073,-1.8687,-1.9122,-1.9452,-1.9689,-1.9526,-1.9208,-1.9218,-1.9137,-1.9109,-1.9198,-1.945,-1.9682,-1.9682,-1.9682,-1.9682,-1.9682,-1.9682,-1.9682,-1.9682,-1.9682,-1.9682,-1.9682,-1.9682,-1.9682,-1.9682,-1.9682,-1.9682,-1.9682,-1.9682,-1.9682,-1.9682,-1.9682,-1.9682,-1.9682,-1.9486,-1.9325,-1.9325,-1.9325,-1.9088,-1.8574,-1.8458,-1.8295,-1.8059,-1.751,-1.7111,-1.6873,-1.6637,-1.6515,-1.6515,-1.6515,-1.6515,-1.6515,-1.6515,-1.6515,-1.414,-1.4385,-1.4868,-1.6181,-1.6745,-1.7436,-1.9294,-1.9215,-1.8928,-1.9577,0.0,0.0,0.0,-2.0303,0.0,-2.1713,-2.1697,-2.1524,-2.136,-2.0788,-2.0125,-1.9369,0.0,0.0,0.0,0.0,0.0,0.0,0.0,0.0,-1.5018,-1.5057,-1.5155,-1.5298,-1.5299,-1.5299,-1.5303,-1.5299,-1.5216,-1.5066,-1.5026,-1.4921,-1.4794,-1.5597,-1.6307,-1.6989,-1.7803,-1.8599,-1.9305,-1.9305,-1.9305,-1.9274,-1.9134,-1.8878,-1.8547,-1.8133,-1.7905,-1.7887,-1.8445,-1.864,-1.8709,-1.921,-1.9185,-1.9016,-1.915,-1.9059,-1.8956,-1.9265,-1.9401,-1.9488,-1.9645,-1.9682,-1.9682,-1.9682,-1.9682,-1.9682,-1.9682,-1.9682,-1.9682,-1.9682,-1.9682,-1.9682,-1.9682,-1.9682,-1.9682,-1.9682,-1.9682,-1.9646,-1.9522,-1.9522,-1.945,-1.9325,-1.9207,-1.9125,-1.9125,-1.9013,-1.881,-1.8535,-1.798,-1.7544,-1.7312,-1.6915,-1.6637,-1.6515,-1.6515,-1.6515,-1.6515,-1.6515,-1.6515,-1.6515,-1.6515,-1.6423,-1.3238,-1.3699,-1.4515,-1.6111,-1.6532,-1.7093,-1.9221,-1.9295,-1.903,-1.9595,0.0,0.0,0.0,-2.007,-2.0382,-2.0442,-2.1094,-2.1351,-2.0669,0.0,-1.9765,0.0,0.0,0.0,0.0,0.0,0.0,0.0,0.0,0.0,-1.499,-1.5002,-1.5101,-1.5288,-1.5301,-1.5299,-1.5303,-1.5302,-1.5291,-1.5274,-1.5095,-1.4988,-1.4994,-1.5752,-1.6453,-1.7126,-1.7944,-1.867,-1.9305,-1.9305,-1.9305,-1.9289,-1.9274,-1.9007,-1.8594,-1.8556,-1.8229,-1.7819,-1.787,-1.7887,-1.785,-1.7588,-1.7477,-1.7404,-1.7101,-1.7224,-1.7565,-1.8146,-1.8525,-1.8919,-1.9525,-1.9682,-1.9682,-1.9682,-1.9682,-1.9682,-1.9682,-1.9682,-1.9682,-1.9682,-1.9682,-1.9682,-1.9682,-1.9682,-1.9682,-1.9682,-1.9682,-1.9522,-1.9013,-1.8968,-1.8772,-1.8256,-1.7787,-1.747,-1.747,-1.7034,-1.6915,-1.7388,-1.8295,-1.8334,-1.7347,-1.7271,-1.6993,-1.6515,-1.6515,-1.6515,-1.6515,-1.6515,-1.6515,-1.6515,-1.6515,-1.6194,-1.3325,-1.4172,-1.5122,-1.5827,-1.6254,-1.6977,-1.8786,-1.905,-1.8968,-1.9169,-1.9486,0.0,0.0,0.0,-2.0382,-2.069,-2.0654,-2.0581,-2.05,-1.9636,0.0,0.0,0.0,0.0,0.0,0.0,0.0,0.0,0.0,0.0,-1.4624,-1.482,-1.4758,-1.4378,-1.497,-1.5039,-1.4499,-1.5035,-1.53,-1.5303,-1.5219,-1.512,-1.5014,-1.5285,-1.5762,-1.6406,-1.7194,-1.7921,-1.8592,-1.9087,-1.9305,-1.9299,-1.9166,-1.8904,-1.8575,-1.841,-1.8229,-1.8027,-1.7869,-1.7811,-1.7789,-1.7658,-1.7471,-1.7354,-1.7647,-1.7682,-1.7691,-1.8083,-1.8275,-1.8589,-1.9469,-1.9682,-1.9682,-1.9682,-1.9682,-1.9682,-1.9682,-1.9682,-1.9682,-1.9682,-1.9682,-1.9682,-1.9682,-1.9682,-1.9682,-1.9682,-1.9406,-1.9125,-1.893,-1.8612,-1.8334,-1.8138,-1.79,-1.794,-1.8256,-1.7787,-1.7429,-1.7312,-1.7388,-1.7229,-1.6837,-1.6795,-1.6716,-1.6515,-1.6515,-1.6515,-1.6515,-1.6515,-1.6515,-1.6479,-1.6101,-1.5814,-1.3594,-1.4569,-1.559,-1.5684,-1.5971,-1.6639,-1.8085,-1.8535,-1.8734,-1.9088,-1.9325,-1.958,-2.0019,0.0,0.0,0.0,-1.9939,-1.9645,-1.9507,0.0,0.0,0.0,0.0,0.0,0.0,0.0,0.0,0.0,0.0,0.0,0.0,-1.468,-1.4498,-1.3764,-1.4447,-1.455,-1.3969,-1.4582,-1.5028,-1.5303,-1.5304,-1.5226,-1.5085,-1.5069,-1.5402,-1.6031,-1.6584,-1.733,-1.8204,-1.8757,-1.912,-1.9299,-1.915,-1.8948,-1.8688,-1.843,-1.827,-1.8166,-1.7883,-1.7811,-1.7811,-1.7811,-1.765,-1.7538,-1.8013,-1.7825,-1.7598,-1.8095,-1.8078,-1.8115,-1.9011,-1.9158,-1.9061,-1.9061,-1.9061,-1.9121,-1.9331,-1.9375,-1.9443,-1.9645,-1.9682,-1.9682,-1.9682,-1.9566,-1.9486,-1.9682,-1.9088,-1.865,-1.865,-1.8178,-1.7787,-1.7626,-1.7585,-1.7747,-1.8099,-1.782,-1.7429,-1.707,-1.6716,-1.6515,-1.6515,-1.6515,-1.6515,-1.6515,-1.6515,-1.6515,-1.6515,-1.6515,-1.6515,-1.6479,-1.5864,-1.5499,-1.3962,-1.4782,-1.5729,-1.571,-1.5699,-1.6001,-1.7063,-1.7706,-1.8373,-1.9471,-1.9273,-1.9029,-1.958,-1.9076,0.0,-1.868,-1.8835,-1.8594,0.0,0.0,0.0,0.0,0.0,0.0,0.0,0.0,0.0,0.0,0.0,0.0,0.0,-1.457,-1.4345,-1.3605,-1.3717,-1.3818,-1.387,-1.3956,-1.4435,-1.5293,-1.5298,-1.5303,-1.5298,-1.5229,-1.5564,-1.6188,-1.6198,-1.6988,-1.8282,-1.8291,-1.8698,-1.9305,-1.9305,-1.9182,-1.8975,-1.8706,-1.843,-1.8166,-1.7892,-1.7811,-1.7811,-1.7811,-1.7811,-1.7811,-1.7811,-1.7337,-1.7011,-1.8015,-1.78,-1.7426,-1.8022,-1.7918,-1.7675,-1.769,-1.769,-1.7876,-1.8568,-1.871,-1.8904,-1.9555,-1.9682,-1.9682,-1.9682,-1.9244,-1.9088,-1.9603,-1.8772,-1.8099,-1.8099,-1.7626,-1.707,-1.6558,-1.6515,-1.6515,-1.6515,-1.6515,-1.6515,-1.6515,-1.6515,-1.6515,-1.6515,-1.6515,-1.6515,-1.6515,-1.6515,-1.6515,-1.6515,-1.6472,-1.6479,-1.6479,-1.5864,-1.5276,-1.4964,-1.5703,-1.6406,-1.5857,-1.6258,-1.6903,-1.7231,-1.7429,0.0,0.0,-1.7913,-1.7645,-1.819,-1.8093,0.0,-1.7973,-1.7659,-1.7347,0.0,0.0,0.0,0.0,0.0,0.0,0.0,0.0,0.0,0.0,0.0,0.0,0.0,-1.2998,-1.2529,-1.179,-1.2445,-1.2582,-1.2079,-1.3314,-1.4079,-1.4394,-1.501,-1.5303,-1.5298,-1.5229,-1.5231,-1.5325,-1.5934,-1.6357,-1.6692,-1.7826,-1.8698,-1.9305,-1.9305,-1.9182,-1.8993,-1.8914,-1.8585,-1.8187,-1.8112,-1.7949,-1.7811,-1.7811,-1.7811,-1.7811,-1.7811,-1.7511,-1.7167,-1.7226,-1.6942,-1.6586,-1.6536,-1.6457,-1.6585,-1.7473,-1.8048,-1.847,-1.8665,-1.8757,-1.8899,-1.9089,-1.881,-1.8574,-1.8574,-1.8458,-1.8373,-1.8535,-1.798,-1.7388,-1.7034,-1.6837,-1.6837,-1.7034,-1.6716,-1.6637,-1.7034,-1.6716,-1.6515,-1.6515,-1.6515,-1.6515,-1.6515,-1.6515,-1.6515,-1.6515,-1.6515,-1.6515,-1.6515,-1.6051,-1.5864,-1.582,-1.4818,-1.4231,-1.6124,-1.666,-1.7142,-1.6248,-1.6504,-1.6934,-1.6708,-1.7003,0.0,0.0,-1.6987,-1.6688,-1.6822,-1.6745,0.0,-1.6742,-1.63,0.0,0.0,0.0,0.0,0.0,0.0,0.0,0.0,0.0,0.0,0.0,0.0,0.0,0.0,-1.2005,-1.1588,-1.083,-1.1429,-1.1561,-1.115,-1.229,-1.3239,-1.3969,-1.4524,-1.4963,-1.5302,-1.5264,-1.517,-1.5095,-1.5839,-1.6083,-1.6102,-1.7689,-1.8527,-1.8864,-1.926,-1.9308,-1.9093,-1.8922,-1.8632,-1.833,-1.8112,-1.7936,-1.7811,-1.7811,-1.7811,-1.7811,-1.7811,-1.7581,-1.7296,-1.7216,-1.696,-1.6617,-1.6293,-1.6191,-1.6315,-1.6818,-1.7445,-1.7999,-1.8261,-1.8571,-1.8907,-1.9163,-1.8772,-1.8419,-1.8419,-1.8059,-1.786,-1.8059,-1.7626,-1.7111,-1.6558,-1.6515,-1.6637,-1.6951,-1.6674,-1.6637,-1.6951,-1.6674,-1.6515,-1.6515,-1.6515,-1.6515,-1.6515,-1.6281,-1.6014,-1.5788,-1.5788,-1.5788,-1.5788,-1.5416,-1.5231,-1.5231,-1.4231,-1.3821,-1.7304,-1.7605,-1.7759,-1.674,-1.6435,-1.6198,-1.5552,-1.6205,-1.6833,-1.6438,0.0,-1.5917,-1.551,-1.5092,-1.4864,-1.5051,0.0,0.0,0.0,0.0,0.0,0.0,0.0,0.0,0.0,0.0,0.0,0.0,0.0,0.0,0.0,-1.1311,-1.1108,-1.0404,-1.0576,-1.0708,-1.0784,-1.11,-1.2064,0.0,-1.3889,-1.4414,-1.5186,-1.5274,-1.5306,-1.5327,-1.5802,-1.6045,-1.6215,-1.7611,-1.8113,-1.8083,-1.8999,-1.9271,-1.9118,-1.8708,-1.857,-1.8489,-1.8027,-1.7847,-1.7794,-1.7726,-1.776,-1.7794,-1.7726,-1.7499,-1.732,-1.7635,-1.7455,-1.7093,-1.6781,-1.6712,-1.6562,-1.5926,-1.6286,-1.6895,-1.7498,-1.8141,-1.8739,-1.9367,-1.905,-1.8696,-1.8696,-1.786,-1.7388,-1.786,-1.7544,-1.7034,-1.6558,-1.6515,-1.6515,-1.6515,-1.6515,-1.6515,-1.6515,-1.6466,-1.6423,-1.6423,-1.638,-1.6287,-1.6244,-1.5816,-1.5301,-1.4727,-1.4637,-1.4569,-1.4569,-1.4563,-1.4539,-1.4545,-1.3987,-1.3732,-1.8071,-1.7618,-1.7158,-1.665,-1.5923,-1.497,-1.3579,-1.375,-1.4356,-1.4966,-1.4644,-1.4234,-1.4133,-1.3647,-1.3277,-1.3333,0.0,0.0,0.0,0.0,0.0,0.0,0.0,0.0,0.0,0.0,0.0,0.0,0.0,0.0,-1.0242,-0.9732,-0.9461,-0.9551,-0.9599,-0.9708,-0.988,-1.062,-1.1285,0.0,-1.3264,-1.407,-1.4382,-1.5011,-1.5303,-1.5303,-1.5308,-1.5613,-1.613,-1.6458,-1.682,-1.7174,-1.7403,-1.7704,-1.8055,-1.817,-1.8235,-1.829,-1.8391,-1.8146,-1.771,-1.7117,-1.7329,-1.7701,-1.7101,-1.6921,-1.6909,-1.6985,-1.6573,-1.6108,-1.6032,-1.6011,-1.5983,-1.582,-1.6322,-1.6889,-1.7052,-1.7332,-1.7631,-1.78,-1.7388,-1.7034,-1.7034,-1.6837,-1.6716,-1.6837,-1.6752,-1.6637,-1.6515,-1.6515,-1.6515,-1.6515,-1.6515,-1.6515,-1.6515,-1.6051,-1.577,-1.577,-1.5332,-1.4875,-1.4416,-1.4847,-1.5078,-1.4956,-1.4092,-1.3682,-1.3687,-1.3532,-1.3448,-1.3454,-1.3209,-1.3109,-1.8429,-1.7832,-1.7326,-1.6344,-1.5127,-1.3986,-1.3132,-1.2593,-1.2449,-1.311,-1.3336,-1.3137,-1.2403,-1.2155,-1.2102,0.0,0.0,0.0,0.0,0.0,0.0,0.0,0.0,0.0,0.0,0.0,0.0,0.0,0.0,-0.8949,-0.8944,-0.873,-0.869,-0.8868,-0.9,-0.9115,-0.9214,-0.992,-1.056,-1.1123,-1.2161,-1.3163,-1.4126,-1.4969,-1.5329,-1.5288,-1.5156,-1.5276,-1.5606,-1.5951,-1.6226,-1.6463,-1.6886,-1.7385,-1.7897,-1.7897,-1.8194,-1.8575,-1.845,-1.8237,-1.7902,-1.7389,-1.749,-1.7735,-1.7337,-1.7248,-1.7288,-1.7288,-1.6901,-1.6485,-1.632,-1.6171,-1.6011,-1.5827,-1.6564,-1.7298,-1.7298,-1.7655,-1.7894,-1.7709,-1.7209,-1.6748,-1.6509,-1.6503,-1.6515,-1.6515,-1.6515,-1.6515,-1.6515,-1.6515,-1.6515,-1.6515,-1.6515,-1.6515,-1.6515,-1.6188,-1.5908,-1.5632,-1.532,-1.4875,-1.4283,-1.4127,-1.4065,-1.4003,-1.3466,-1.317,-1.317,-1.3042,-1.2909,-1.2655,-1.2592,-1.2456,-1.8564,-1.7972,-1.7449,-1.5945,-1.4489,-1.3326,-1.2986,-1.1968,-1.1143,-1.13,-1.1893,-1.2036,-1.0828,-1.0754,-1.0892,0.0,0.0,0.0,0.0,0.0,0.0,0.0,0.0,0.0,0.0,0.0,0.0,0.0,0.0,-0.8301,-0.7783,-0.8098,-0.8309,-0.8348,-0.8599,-0.8756,-0.8801,-0.9242,-0.9872,-1.0682,-1.1099,-1.2193,-1.3871,-1.4756,-1.5218,-1.5313,-1.5197,-1.5099,-1.5057,-1.5686,-1.5828,-1.5766,-1.6498,-1.7145,-1.7674,-1.7587,-1.7998,-1.8554,-1.8392,-1.8183,-1.7956,-1.7753,-1.7723,-1.7786,-1.765,-1.7611,-1.7635,-1.7635,-1.7352,-1.6994,-1.6712,-1.6429,-1.6136,-1.5885,-1.6614,-1.7414,-1.7308,-1.7675,-1.794,-1.7605,-1.7163,-1.6779,-1.654,-1.6488,-1.6515,-1.6515,-1.6515,-1.6515,-1.6515,-1.6515,-1.6472,-1.638,-1.6331,-1.6287,-1.6201,-1.6107,-1.5826,-1.5315,-1.518,-1.4915,-1.4433,-1.3544,-1.3032,-1.292,-1.2656,-1.2539,-1.2539,-1.2617,-1.2419,-1.1972,-1.2044,-1.1796,-1.8793,-1.7576,-1.6297,-1.5267,-1.4485,-1.3517,-1.1703,-1.1212,-1.0877,0.0,-0.998,-1.0085,-1.0235,-0.965,0.0,0.0,0.0,0.0,0.0,0.0,0.0,0.0,0.0,0.0,0.0,0.0,0.0,0.0,-0.8049,-0.7442,-0.7532,-0.776,-0.7966,-0.8137,-0.8345,-0.8567,-0.8801,-0.887,-0.9192,-0.9789,-1.0813,-1.1828,-1.2827,-1.3761,-1.4627,-1.5385,-1.5372,-1.526,-1.5085,-1.5188,-1.5097,-1.4875,-1.4987,-1.5438,-1.6105,-1.6762,-1.6936,-1.7026,-1.842,-1.8124,-1.7153,-1.7201,-1.7475,-1.7684,-1.7033,-1.688,-1.6942,-1.6942,-1.6466,-1.5975,-1.5955,-1.5906,-1.5856,-1.5799,-1.6067,-1.62,-1.5725,-1.5504,-1.5382,-1.5344,-1.5625,-1.6036,-1.6441,-1.6508,-1.6515,-1.6515,-1.6515,-1.6515,-1.6515,-1.6515,-1.6287,-1.577,-1.5726,-1.5505,-1.4971,-1.4468,-1.4138,-1.4045,-1.3557,-1.32,-1.3157,-1.3006,-1.2914,-1.2881,-1.1758,-1.1172,-1.1177,-1.1601,-1.1477,-1.1019,-1.1361,-1.1021,-1.873,-1.7486,-1.6231,-1.5521,-1.4494,-1.3253,-1.1776,-1.1061,-1.0484,-0.9754,-0.9229,-0.9035,-0.9369,-0.8912,0.0,0.0,0.0,0.0,0.0,0.0,0.0,0.0,0.0,0.0,0.0,0.0,0.0,0.0,-0.7187,-0.6669,-0.6763,-0.711,-0.7335,-0.7428,-0.7839,-0.8123,-0.8243,-0.8546,-0.8866,-0.9216,-0.9867,-1.0675,-1.1609,-1.2208,-1.3268,-1.4643,-1.5133,-1.5294,-1.5205,-1.5127,-1.5031,-1.4918,-1.484,-1.5221,-1.585,-1.6208,-1.6428,-1.6643,-1.7259,-1.7294,-1.7045,-1.6915,-1.7292,-1.7752,-1.7405,-1.733,-1.7313,-1.7126,-1.673,-1.6328,-1.6143,-1.5926,-1.5733,-1.5485,-1.5312,-1.5088,-1.4606,-1.4901,-1.5138,-1.4831,-1.4783,-1.4985,-1.5498,-1.585,-1.6057,-1.6057,-1.6321,-1.6515,-1.6515,-1.6515,-1.638,-1.6139,-1.582,-1.5638,-1.5694,-1.4835,-1.4283,-1.4283,-1.3737,-1.3238,-1.2929,-1.2881,-1.2609,-1.1958,-1.1584,-1.135,-1.1175,-1.1031,-1.0574,-0.9978,-1.014,-0.9882,-1.8818,-1.7741,-1.67,-1.6238,-1.4986,-1.3584,-1.2292,0.0,-1.0561,0.0,-0.8867,-0.8288,-0.849,-0.8228,0.0,0.0,0.0,0.0,0.0,0.0,0.0,0.0,0.0,0.0,0.0,0.0,0.0,0.0,-0.6357,-0.5951,-0.6011,-0.6398,-0.6686,-0.6822,-0.7311,-0.7643,-0.7796,-0.8339,-0.8683,-0.8829,-0.9107,-0.964,-1.0387,-1.0962,-1.1983,-1.3353,-1.4479,-1.4969,-1.4981,-1.5094,-1.513,-1.5091,-1.4985,-1.5235,-1.567,-1.5841,-1.5987,-1.616,-1.6381,-1.6649,-1.6862,-1.6887,-1.7292,-1.7811,-1.7811,-1.7735,-1.7627,-1.7368,-1.7002,-1.6615,-1.6375,-1.606,-1.5704,-1.5359,-1.4883,-1.4374,-1.3835,-1.4333,-1.485,-1.4601,-1.4405,-1.4425,-1.484,-1.5329,-1.5693,-1.5693,-1.6045,-1.631,-1.6269,-1.6281,-1.6151,-1.5832,-1.541,-1.5276,-1.5567,-1.4749,-1.4247,-1.4247,-1.3621,-1.3107,-1.2662,-1.2461,-1.1955,-1.1099,-1.1223,-1.1177,-1.0991,-1.0664,-1.001,-0.9078,-0.9078,-0.8802,-1.9217,-1.8446,-1.764,-1.7295,-1.6375,-1.5036,0.0,0.0,-1.1397,-0.9896,-0.8621,-0.773,-0.7771,-0.7438,0.0,0.0,0.0,0.0,0.0,0.0,0.0,0.0,0.0,0.0,0.0,0.0,0.0,0.0,-0.5603,-0.526,-0.5521,-0.5734,-0.6089,-0.66,-0.6838,-0.7218,-0.7796,-0.8339,-0.8607,-0.8622,-0.8948,-0.9143,-0.9233,-1.0457,-1.1137,-1.145,-1.3282,-1.4071,-1.4129,-1.495,-1.5209,-1.5103,-1.5091,-1.5033,-1.5028,-1.567,-1.543,-1.5,-1.6384,-1.6598,-1.6369,-1.7126,-1.7564,-1.7811,-1.7811,-1.7581,-1.7312,-1.7312,-1.6825,-1.632,-1.6293,-1.606,-1.5799,-1.577,-1.5134,-1.4278,-1.3425,-1.3286,-1.349,-1.402,-1.4507,-1.4878,-1.4903,-1.5329,-1.5693,-1.5693,-1.5718,-1.5705,-1.566,-1.5632,-1.5225,-1.4045,-1.3909,-1.3684,-1.3109,-1.3022,-1.2973,-1.2973,-1.233,-1.1913,-1.1868,-1.1266,-1.0855,-1.0839,-1.0206,-0.9887,-0.981,-1.0458,-1.0025,-0.8528,-0.8528,-0.8001,-1.8434,-1.7966,-1.7437,-1.6823,-1.6112,-1.5138,-1.3363,-1.267,-1.1823,-0.9925,-0.8784,-0.7798,-0.6629,-0.6597,0.0,0.0,0.0,0.0,0.0,0.0,0.0,0.0,0.0,0.0,0.0,0.0,0.0,0.0,0.0,-0.4372,-0.4472,-0.503,-0.5433,-0.5637,-0.6328,-0.7025,-0.7658,-0.7861,-0.803,-0.8154,-0.8449,-0.8585,-0.8616,-0.9418,-0.9811,-0.994,-1.1468,-1.2849,-1.4021,-1.4336,-1.4768,-1.5226,-1.5233,-1.5143,-1.5047,-1.5245,-1.4972,-1.4578,-1.511,-1.5347,-1.5541,-1.6212,-1.6818,-1.7351,-1.7703,-1.7581,-1.7288,-1.7288,-1.6977,-1.6607,-1.6607,-1.6137,-1.5492,-1.4762,-1.4123,-1.3581,-1.326,-1.3198,-1.3254,-1.349,-1.4003,-1.4381,-1.4381,-1.5136,-1.557,-1.5186,-1.5423,-1.5473,-1.5078,-1.4659,-1.4223,-1.3768,-1.2994,-1.2551,-1.2734,-1.2003,-1.1724,-1.2096,-1.1507,-1.1166,-1.1166,-1.0918,-1.0614,-1.0167,-0.9875,-0.9551,-0.9198,-0.902,-0.8472,-0.7521,-0.7178,-0.6825,-1.8257,-1.7901,-1.76,-1.7111,-1.6368,-1.5479,-1.4343,-1.3576,-1.2564,-1.0706,-0.9305,-0.7972,-0.6654,-0.6235,0.0,0.0,0.0,0.0,0.0,0.0,0.0,0.0,0.0,0.0,0.0,0.0,0.0,0.0,0.0,0.0,-0.3629,-0.4228,-0.4729,-0.5083,-0.5892,-0.6592,-0.7121,-0.7293,-0.747,-0.7672,-0.7991,-0.8169,-0.8248,-0.8714,-0.8987,-0.9113,-1.0029,-1.1424,-1.3089,-1.3454,-1.4101,-1.4872,-1.4886,-1.5011,-1.5166,-1.5069,-1.485,-1.4594,-1.452,-1.479,-1.5267,-1.5894,-1.6561,-1.7242,-1.7774,-1.7777,-1.757,-1.7368,-1.706,-1.6763,-1.6659,-1.6039,-1.5205,-1.4322,-1.3775,-1.3391,-1.3232,-1.3198,-1.3157,-1.2984,-1.3445,-1.3773,-1.3575,-1.4277,-1.4802,-1.4518,-1.4815,-1.4861,-1.4446,-1.4023,-1.3679,-1.3459,-1.2628,-1.2171,-1.2368,-1.1625,-1.1203,-1.1377,-1.0801,-1.0466,-1.0466,-1.0265,-0.986,-0.9362,-0.9103,-0.8693,-0.8112,-0.7752,-0.7181,-0.6419,-0.6084,-0.5919,0.0,0.0,0.0,-1.8302,0.0,0.0,-1.5868,0.0,-1.3656,-1.2222,-1.0065,-0.8285,-0.7868,-0.6435,-0.5042,0.0,0.0,0.0,0.0,0.0,0.0,0.0,0.0,0.0,0.0,0.0,0.0,0.0,-0.3038,-0.2928,-0.3078,-0.3343,-0.3993,-0.5045,-0.5539,-0.591,-0.6189,-0.6649,-0.6979,-0.718,-0.7591,-0.7889,-0.8088,-0.8427,-0.8722,-0.8979,-0.9057,-0.9871,-1.1221,-1.2307,-1.3227,-1.3973,-1.4061,-1.4569,-1.5249,-1.5137,-1.506,-1.4983,-1.4785,-1.5055,-1.5581,-1.6249,-1.687,-1.7461,-1.798,-1.8149,-1.8031,-1.7454,-1.7027,-1.6678,-1.634,-1.5645,-1.4968,-1.4564,-1.4149,-1.3742,-1.3295,-1.3198,-1.3053,-1.2573,-1.2924,-1.3124,-1.2508,-1.2882,-1.3373,-1.3827,-1.3905,-1.3855,-1.3757,-1.3774,-1.35,-1.292,-1.2832,-1.251,-1.1765,-1.1711,-1.1412,-1.0767,-1.0111,-0.9766,-0.9762,-0.9099,-0.8609,-0.8327,-0.7737,-0.7117,-0.656,-0.6819,-0.6401,-0.5305,-0.526,-0.5262,-1.8769,0.0,0.0,0.0,0.0,0.0,0.0,0.0,-1.2713,-1.2758,-1.0656,-0.8543,-0.7673,-0.6681,-0.5634,0.0,0.0,0.0,0.0,0.0,0.0,0.0,0.0,0.0,0.0,0.0,0.0,0.0,-0.2433,-0.2404,-0.2452,-0.3111,-0.3808,-0.4501,-0.502,-0.5489,-0.591,-0.623,-0.649,-0.6696,-0.7157,-0.7396,-0.7465,-0.8005,-0.8279,-0.8383,-0.8827,-0.9248,-0.9715,-1.1083,-1.2203,-1.3116,-1.3769,-1.4161,-1.4432,-1.5028,-1.5164,-1.5057,-1.5004,-1.502,-1.5116,-1.5456,-1.604,-1.6622,-1.6716,-1.6954,-1.7142,-1.6985,-1.6465,-1.579,-1.5109,-1.476,-1.4407,-1.3729,-1.3452,-1.3357,-1.3232,-1.3198,-1.3053,-1.2573,-1.2924,-1.3241,-1.3002,-1.3438,-1.3855,-1.3833,-1.3816,-1.3684,-1.3223,-1.2672,-1.211,-1.1429,-1.0931,-1.0375,-0.9666,-0.9614,-0.9562,-0.9361,-0.9159,-0.884,-0.8299,-0.8009,-0.756,-0.6974,-0.6194,-0.5627,-0.5358,-0.5826,-0.5797,-0.5305,-0.4867,-0.4439,-2.0011,-1.94,-1.9018,-1.8282,0.0,0.0,-1.6607,-1.4784,-1.3052,0.0,-1.1402,-0.9397,-0.8764,-0.7532,-0.6354,0.0,0.0,0.0,0.0,0.0,0.0,0.0,0.0,0.0,0.0,-0.2525,-0.2396,-0.2333,-0.2235,-0.2198,-0.2202,-0.2687,-0.3268,-0.3953,-0.4264,-0.4661,-0.5164,-0.555,-0.5838,-0.6042,-0.6657,-0.6995,-0.7091,-0.7525,-0.7817,-0.7993,-0.8354,-0.8692,-0.9067,-0.993,-1.0994,-1.2158,-1.3026,-1.3629,-1.4109,-1.4977,-1.5254,-1.5178,-1.5116,-1.505,-1.5028,-1.5288,-1.5868,-1.6485,-1.6547,-1.6954,-1.7327,-1.7076,-1.6335,-1.5461,-1.4866,-1.4439,-1.407,-1.3602,-1.3329,-1.3163,-1.2943,-1.2908,-1.2762,-1.2282,-1.2448,-1.2643,-1.2529,-1.2834,-1.3018,-1.2992,-1.2986,-1.2754,-1.2093,-1.1629,-1.1212,-1.0864,-1.0462,-0.9965,-0.926,-0.8878,-0.8542,-0.8297,-0.7925,-0.75,-0.7087,-0.6993,-0.6665,-0.6124,-0.5365,-0.4785,-0.4379,-0.4721,-0.4802,-0.4574,-0.4224,-0.388,-2.1878,-2.0879,-1.9932,-1.9811,-1.8187,0.0,-1.7212,-1.5632,-1.4081,0.0,-1.2169,-1.0494,-1.0492,-0.8806,-0.7309,0.0,0.0,0.0,0.0,0.0,0.0,0.0,0.0,0.0,-0.2714,-0.2699,-0.263,-0.2523,-0.2305,-0.217,-0.2177,-0.2184,-0.2558,-0.3326,-0.3431,-0.3702,-0.4203,-0.4718,-0.5087,-0.5327,-0.61,-0.6598,-0.6832,-0.7059,-0.7373,-0.7738,-0.7782,-0.8214,-0.8906,-0.8947,-0.9793,-1.1125,-1.2002,-1.2948,-1.3945,-1.4834,-1.521,-1.5263,-1.5164,-1.5111,-1.5143,-1.5391,-1.6021,-1.6684,-1.6869,-1.7464,-1.795,-1.7247,-1.6296,-1.544,-1.5015,-1.4374,-1.3835,-1.3835,-1.3486,-1.3088,-1.2685,-1.2579,-1.2431,-1.1884,-1.1737,-1.1686,-1.1556,-1.1484,-1.15,-1.1683,-1.1697,-1.1414,-1.0859,-1.0813,-1.0762,-1.0606,-1.0555,-1.025,-0.9492,-0.8758,-0.8036,-0.7431,-0.666,-0.6188,-0.6065,-0.6087,-0.5884,-0.5501,-0.5017,-0.4385,-0.3581,-0.3707,-0.3704,-0.3581,-0.3581,-0.3581,-2.2592,-2.2222,-2.1725,-1.9489,-1.8902,0.0,-1.6556,-1.541,-1.4641,0.0,-1.2652,-1.1184,-1.1048,-1.0355,-0.9314,-0.7801,0.0,0.0,0.0,0.0,0.0,0.0,0.0,0.0,-0.2714,-0.2603,-0.2515,-0.2514,-0.2205,-0.2028,-0.2042,-0.2141,-0.228,-0.2452,-0.2917,-0.334,-0.3661,-0.3976,-0.4377,-0.485,-0.5375,-0.5875,-0.6347,-0.6766,-0.7091,-0.7342,-0.7658,-0.7971,-0.831,-0.8623,-0.9277,-1.0148,-1.0973,-1.194,-1.2991,-1.3911,-1.463,-1.5146,-1.5229,-1.5192,-1.5069,-1.486,-1.5504,-1.6297,-1.586,-1.6563,-1.719,-1.5836,-1.5279,-1.4882,-1.3848,-1.3452,-1.3329,-1.3329,-1.326,-1.3163,-1.3088,-1.3053,-1.2797,-1.1957,-1.1436,-1.1115,-1.1066,-1.069,-1.0618,-1.1228,-1.0963,-1.0683,-1.078,-1.0813,-1.0348,-0.9252,-0.9093,-0.8577,-0.7329,-0.7074,-0.686,-0.6622,-0.6467,-0.6054,-0.534,-0.5225,-0.4847,-0.4271,-0.4009,-0.3753,-0.3593,-0.3612,-0.3612,-0.3593,-0.3593,-0.3593,-2.3921,-2.35,-2.2961,-2.1346,0.0,0.0,0.0,-1.6665,-1.5697,-1.5663,-1.3722,-1.2086,-1.2222,0.0,-0.9241,-0.8697,0.0,0.0,0.0,0.0,0.0,0.0,0.0,0.0,-0.29,-0.2768,-0.2651,-0.2494,-0.2343,-0.2166,-0.2016,-0.2054,-0.2132,-0.2195,-0.2493,-0.2791,-0.3099,-0.3511,-0.3902,-0.4309,-0.4948,-0.5457,-0.587,-0.6236,-0.6587,-0.6914,-0.7218,-0.7584,-0.7973,-0.8272,-0.8797,-0.9499,-1.0469,-1.1238,-1.1978,-1.3419,-1.4211,-1.4627,-1.5164,-1.5306,-1.5181,-1.4736,-1.5239,-1.5978,-1.5888,-1.6744,-1.7451,-1.6002,-1.5257,-1.464,-1.3451,-1.2836,-1.2502,-1.2502,-1.2502,-1.2425,-1.2162,-1.2085,-1.1903,-1.1175,-1.0639,-1.0307,-1.045,-1.006,-0.9847,-1.0221,-0.9737,-0.9311,-0.9283,-0.895,-0.8419,-0.7741,-0.7638,-0.7377,-0.6642,-0.6297,-0.6081,-0.6021,-0.5369,-0.4784,-0.4369,-0.4279,-0.3818,-0.2858,-0.2759,-0.3005,-0.3605,-0.36,-0.3277,-0.2686,-0.2686,-0.3007,0.0,0.0,-2.3368,0.0,0.0,-1.9647,0.0,0.0,0.0,-1.6307,-1.4441,0.0,0.0,0.0,0.0,0.0,0.0,0.0,0.0,0.0,0.0,0.0,0.0,0.0,0.0,-0.2712,-0.2594,-0.26,-0.2365,-0.2177,-0.2124,-0.2057,-0.2048,-0.2164,-0.2126,-0.2283,-0.2611,-0.3096,-0.3511,-0.3836,-0.4595,-0.5103,-0.5439,-0.5702,-0.6057,-0.648,-0.6722,-0.7164,-0.768,-0.7937,-0.837,-0.8975,-0.9955,-1.0585,-1.1115,-1.2733,-1.3539,-1.3953,-1.4814,-1.5177,-1.5192,-1.4739,-1.5121,-1.5818,-1.6246,-1.7194,-1.7846,-1.6439,-1.5506,-1.4661,-1.3439,-1.2525,-1.192,-1.192,-1.1884,-1.1695,-1.1244,-1.1164,-1.1019,-1.0544,-0.9986,-0.9689,-0.993,-0.9346,-0.8877,-0.8992,-0.8335,-0.7716,-0.7498,-0.7015,-0.6658,-0.6482,-0.6568,-0.6492,-0.6211,-0.5684,-0.5271,-0.4973,-0.3949,-0.3305,-0.3277,-0.3462,-0.3143,-0.2147,-0.1697,-0.17,-0.22,-0.22,-0.1701,-0.0758,-0.0758,-0.1429,0.0,0.0,0.0,0.0,-2.0083,0.0,0.0,0.0,-1.6245,-1.445,0.0,0.0,0.0,0.0,0.0,0.0,0.0,0.0,0.0,0.0,0.0,0.0,0.0,0.0,0.0,-0.1816,-0.1915,-0.2969,-0.1811,-0.154,-0.2572,-0.2227,-0.2001,-0.2031,-0.1898,-0.1978,-0.2261,-0.2608,-0.3035,-0.3556,-0.4114,-0.4653,-0.515,-0.5415,-0.5708,-0.6009,-0.6446,-0.6839,-0.7212,-0.7658,-0.809,-0.8505,-0.8872,-0.9687,-1.0693,-1.1093,-1.2066,-1.3289,-1.3868,-1.4383,-1.4756,-1.4638,-1.5178,-1.5975,-1.6496,-1.7199,-1.753,-1.6022,-1.5493,-1.5089,-1.359,-1.2791,-1.2431,-1.2431,-1.2102,-1.1774,-1.1737,-1.17,-1.1547,-1.1019,-1.0499,-1.0011,-0.9612,-0.8291,-0.7361,-0.7609,-0.6708,-0.6145,-0.6493,-0.6848,-0.6789,-0.6052,-0.6333,-0.6077,-0.4826,-0.4666,-0.404,-0.2683,-0.2466,-0.2229,-0.2012,-0.3013,-0.3521,-0.3384,-0.1302,0.0763,0.2789,0.2789,0.2835,0.2971,0.2971,0.2331,0.0,0.0,0.0,0.0,0.0,0.0,-1.7632,0.0,-1.698,0.0,0.0,0.0,0.0,0.0,0.0,0.0,-1.0675,0.0,0.0,0.0,0.0,0.0,0.0,0.0,0.0,0.0,0.0,0.0,-0.1867,-0.1599,-0.2655,-0.2503,-0.2279,-0.2018,-0.1948,-0.2009,-0.2195,-0.2524,-0.2971,-0.3494,-0.3879,-0.4345,-0.4874,-0.4986,-0.5262,-0.5689,-0.6005,-0.631,-0.6604,-0.6907,-0.7216,-0.7489,-0.7597,-0.838,-0.9545,-1.0363,-1.1059,-1.1812,-1.3321,-1.3993,-1.4173,-1.4137,-1.4647,-1.5166,-1.4692,-1.533,-1.5959,-1.4704,-1.4165,-1.3752,-1.2683,-1.1799,-1.1282,-1.1573,-1.1287,-1.0992,-1.1282,-1.1137,-1.0878,-1.0649,-0.9621,-0.8762,-0.8541,-0.7687,-0.6875,-0.649,-0.5779,-0.5448,-0.5902,-0.5716,-0.5136,-0.3882,-0.3949,-0.3818,-0.3199,-0.3964,-0.4206,-0.3595,-0.0557,0.0909,0.0312,-0.0178,-0.0446,-0.0446,0.0536,0.1521,0.2555,0.3237,0.36,0.3593,0.36,0.3328,-2.225,0.0,0.0,0.0,0.0,0.0,0.0,0.0,0.0,0.0,0.0,0.0,0.0,0.0,0.0,0.0,0.0,-1.1007,0.0,0.0,0.0,0.0,0.0,0.0,0.0,0.0,0.0,0.0,0.0,0.0,-0.2742,-0.2725,-0.2574,-0.2301,-0.2179,-0.2219,-0.2451,-0.2684,-0.2998,-0.3395,-0.3737,-0.415,-0.4591,-0.4671,-0.4952,-0.5406,-0.5542,-0.5783,-0.6106,-0.6247,-0.6463,-0.6704,-0.6642,-0.7192,-0.8154,-0.9213,-0.9871,-1.0484,-1.2269,-1.3316,-1.3885,-1.4048,-1.4502,-1.4778,-1.3644,-1.4272,-1.5098,-1.3862,-1.3396,-1.3116,-1.2235,-1.1362,-1.0769,-1.0943,-1.0529,-1.0152,-1.0524,-1.022,-0.9878,-0.9878,-0.888,-0.7926,-0.7631,-0.6845,-0.6076,-0.5525,-0.4981,-0.4597,-0.4577,-0.3819,-0.2843,-0.1807,-0.1344,-0.1087,-0.1087,-0.2108,-0.2773,-0.2773,0.1228,0.3194,0.2325,0.2279,0.2279,0.2279,0.2279,0.2278,0.2276,0.318,0.3588,0.358,0.3588,0.3592,0.0,0.0,0.0,-1.8432,0.0,0.0,0.0,0.0,-1.5424,0.0,0.0,0.0,0.0,0.0,0.0,0.0,0.0,0.0,0.0,0.0,0.0,0.0,0.0,0.0,0.0,0.0,0.0,0.0,0.0,0.0,-0.2996,-0.2835,-0.2801,-0.3048,-0.2611,-0.2619,-0.3069,-0.3079,-0.3089,-0.3111,-0.3657,-0.4052,-0.4329,-0.4591,-0.4849,-0.5108,-0.5117,-0.5377,-0.5809,-0.5827,-0.6095,-0.6488,-0.6222,-0.6297,-0.6631,-0.7118,-0.8251,-0.9637,-1.036,-1.209,-1.4088,-1.4668,-1.5135,-1.5298,-1.4348,-1.4998,-1.5707,-1.3985,-1.3907,-1.4041,-1.2783,-1.2102,-1.1621,-1.1132,-1.0244,-0.9518,-0.9558,-0.9115,-0.8756,-0.8756,-0.8716,-0.8337,-0.72,-0.5626,-0.4528,-0.469,-0.412,-0.3227,-0.2081,-0.0902,-0.0241,-0.045,0.0826,0.1663,0.1663,0.1648,0.1608,0.1608,0.2869,0.3597,0.3551,0.3551,0.3551,0.3551,0.3551,0.3546,0.3534,0.358,0.358,0.358,0.358,0.358,0.0,0.0,-1.8545,-1.8028,0.0,0.0,0.0,0.0,0.0,0.0,0.0,0.0,0.0,0.0,0.0,0.0,0.0,0.0,0.0,0.0,0.0,0.0,0.0,0.0,0.0,0.0,0.0,0.0,-0.2152,0.0,0.0,-0.335,-0.3351,-0.3244,-0.3075,-0.3111,-0.3351,-0.3193,-0.3199,-0.3375,-0.3541,-0.3769,-0.4048,-0.4309,-0.4591,-0.4829,-0.4839,-0.5025,-0.5332,-0.515,-0.526,-0.5547,-0.5288,-0.5417,-0.5841,-0.6447,-0.7307,-0.8426,-1.0212,-1.0132,-0.9733,-1.279,-1.1803,-0.9802,-1.1934,-1.3246,-1.3736,-1.2584,-1.2904,-1.3518,-1.3093,-1.1894,-1.0758,-1.0585,-1.0287,-1.0113,-1.0438,-0.9721,-0.9069,-0.9204,-0.8745,-0.8029,-0.7135,-0.5888,-0.4949,-0.4736,-0.4081,-0.2885,-0.0863,0.114,0.2346,0.228,0.2674,0.2976,0.2976,0.2983,0.3393,0.438,0.4833,0.526,0.5772,0.5447,0.5074,0.4739,0.4705,0.4364,0.358,0.3966,0.3966,0.358,0.358,0.358,-1.6963,-1.6938,0.0,-1.6612,-1.6127,0.0,-1.6159,0.0,0.0,0.0,0.0,0.0,0.0,0.0,0.0,0.0,0.0,0.0,0.0,-1.0221,0.0,0.0,0.0,0.0,0.0,0.0,-0.2492,-0.3778,-0.2974,0.0,0.0,0.0,-0.404,-0.394,-0.3621,-0.357,-0.3814,-0.3426,-0.333,-0.3506,-0.3506,-0.3647,-0.3911,-0.4068,-0.435,-0.4691,-0.4491,-0.4631,-0.4932,-0.4671,-0.471,-0.4927,-0.4671,-0.4801,-0.5206,-0.5634,-0.6213,-0.702,-0.8605,-0.8124,-0.7285,-1.0282,-0.8613,-0.5828,-0.7877,-0.8304,-0.7925,-0.7043,-0.8254,-0.977,-0.9536,-0.9239,-0.9204,-1.0085,-1.0295,-1.0026,-0.9094,-0.8969,-0.9064,-0.92,-0.8379,-0.7281,-0.5962,-0.5845,-0.5546,-0.4489,-0.3917,-0.2424,0.0848,0.2646,0.3604,0.3592,0.359,0.3764,0.4148,0.457,0.5161,0.6137,0.618,0.6416,0.6872,0.6555,0.6229,0.5857,0.5666,0.5204,0.4476,0.4652,0.4526,0.4186,0.3966,0.3878]},{"header":{"parameterUnit":"m.s-1","parameterCategory":1,"la1":30.6,"la2":29.2853,"lo1":-89.7004,"lo2":-87.6739,"dy":0.0162,"dx":0.0183,"nx":112,"ny":82,"refTime":"2024-07-12T18:00:00:Z","depth":0,"parameterNumber":3,"parameterNumberName":"V-component_of_WINDS"},"data":[0.0,0.0,0.0,0.0,0.0,0.0,0.0,0.0,0.0,0.0,0.0,0.0,0.0,0.0,0.0,0.0,0.0,0.0,0.0,0.0,0.0,0.0,0.0,0.0,0.0,0.0,0.0,0.0,0.0,0.0,0.0,0.0,0.0,0.0,0.0,0.0,0.0,0.0,0.0,0.0,0.0,0.0,0.0,0.0,0.0,0.0,0.0,0.0,0.0,0.0,0.0,0.0,0.0,0.0,0.0,0.0,0.0,0.0,0.0,0.0,0.0,0.0,0.0,0.0,0.0,0.0,0.0,0.0,0.0,0.0,0.0,0.0,0.0,0.0,0.0,0.0,0.0,0.0,0.0,0.0,0.0,0.0,0.0,0.0,0.0,0.0,0.0,0.0,0.0,0.0,-0.553,-0.6722,-0.7777,-0.8496,-0.8785,-0.9128,-0.9416,-0.9669,0.0,0.0,0.0,0.0,0.0,0.0,0.0,0.0,0.0,0.0,0.0,0.0,0.0,0.0,0.0,0.0,0.0,0.0,0.0,0.0,0.0,0.0,0.0,0.0,0.0,0.0,0.0,0.0,0.0,0.0,0.0,0.0,0.0,0.0,0.0,0.0,0.0,0.0,0.0,0.0,0.0,0.0,0.0,0.0,0.0,0.0,0.0,0.0,0.0,0.0,0.0,0.0,0.0,0.0,0.0,0.0,0.0,0.0,0.0,0.0,0.0,0.0,0.0,0.0,0.0,0.0,0.0,0.0,0.0,0.0,0.0,0.0,0.0,0.0,0.0,0.0,0.0,0.0,0.0,0.0,0.0,0.0,0.0,0.0,0.0,0.0,0.0,0.0,0.0,0.0,0.0,0.0,0.0,0.0,0.0,0.0,0.0,0.0,0.0,0.0,0.0,0.0,0.0,0.0,-0.5555,-0.7216,-0.7988,-0.8809,-0.9783,-0.9724,-0.9636,-0.9679,0.0,0.0,0.0,0.0,0.0,0.0,0.0,0.0,0.0,0.0,0.0,0.0,0.0,0.0,0.0,0.0,0.0,0.0,0.0,0.0,0.0,0.0,0.0,0.0,0.0,0.0,0.0,0.0,0.0,0.0,0.0,0.0,0.0,0.0,0.0,0.0,0.0,0.0,0.0,0.0,0.0,0.0,0.0,0.0,0.0,0.0,0.0,0.0,0.0,0.0,0.0,0.0,0.0,0.0,0.0,0.0,0.0,0.0,0.0,0.0,0.0,0.0,0.0,0.0,0.0,0.0,0.0,0.0,0.0,0.0,0.0,0.0,0.0,0.0,0.0,0.0,0.0,0.0,0.0,0.0,0.0,0.0,0.0,0.0,0.0,0.0,0.0,0.0,0.0,0.0,0.0,0.0,0.0,0.0,0.0,0.0,0.0,0.0,0.0,0.0,0.0,0.0,0.0,-0.6285,-0.7026,-0.8059,-0.8881,-0.9535,-1.0043,-0.9993,-0.985,-0.9693,-0.9881,0.0,0.0,0.0,0.0,0.0,0.0,0.0,0.0,0.0,0.0,0.0,0.0,0.0,0.0,0.0,0.0,0.0,0.0,0.0,0.0,0.0,0.0,0.0,0.0,0.0,0.0,0.0,0.0,0.0,0.0,0.0,0.0,0.0,0.0,0.0,0.0,0.0,0.0,0.0,0.0,0.0,0.0,0.0,0.0,0.0,0.0,0.0,0.0,0.0,0.0,0.0,0.0,0.0,0.0,0.0,0.0,0.0,0.0,0.0,0.0,0.0,0.0,0.0,0.0,0.0,0.0,0.0,0.0,0.0,0.0,0.0,0.0,0.0,0.0,0.0,0.0,0.0,0.0,0.0,0.0,0.0,0.0,0.0,0.0,0.0,0.0,0.0,0.0,0.0,0.0,0.0,0.0,0.0,0.0,0.0,0.0,0.0,0.0,0.0,0.0,0.0,0.0,-0.7409,-0.8214,-0.885,-0.9653,-1.0147,-1.0217,-1.0097,-0.9917,-0.9699,-1.0115,0.0,0.0,0.0,0.0,0.0,0.0,0.0,0.0,0.0,0.0,0.0,0.0,0.0,0.0,0.0,0.0,0.0,0.0,0.0,0.0,0.0,0.0,0.0,0.0,0.0,0.0,0.0,0.0,0.0,0.0,0.0,0.0,0.0,0.0,0.0,0.0,0.0,0.0,0.0,0.0,0.0,0.0,0.0,0.0,0.0,0.0,0.0,0.0,0.0,0.0,0.0,0.0,0.0,0.0,0.0,0.0,0.0,0.0,0.0,0.0,0.0,0.0,0.0,0.0,0.0,0.0,0.0,0.0,0.0,0.0,0.0,0.0,0.0,0.0,0.0,0.0,0.0,0.0,0.0,0.0,0.0,0.0,0.0,0.0,0.0,0.0,0.0,0.0,0.0,0.0,0.0,0.0,0.0,0.0,0.0,0.0,0.0,0.0,0.0,0.0,0.0,0.0,-0.7321,-0.8347,-0.918,-0.9777,-1.0227,-1.0567,-1.0027,-0.9706,-0.9683,-0.9479,0.0,0.0,0.0,0.0,0.0,0.0,0.0,0.0,0.0,0.0,0.0,0.0,0.0,0.0,0.0,0.0,0.0,0.0,0.0,0.0,0.0,0.0,0.0,0.0,0.0,0.0,0.0,0.0,0.0,0.0,0.0,0.0,0.0,0.0,0.0,0.0,0.0,0.0,0.0,0.0,0.0,0.0,0.0,0.0,0.0,0.0,0.0,0.0,0.0,0.0,0.0,0.0,0.0,0.0,0.0,0.0,0.0,0.0,0.0,0.0,0.0,0.0,0.0,0.0,0.0,0.0,0.0,0.0,0.0,0.0,0.0,0.0,0.0,0.0,0.0,0.0,0.0,0.0,0.0,0.0,0.0,0.0,0.0,0.0,0.0,0.0,0.0,0.0,0.0,0.0,0.0,0.0,0.0,0.0,0.0,0.0,0.0,0.0,0.0,0.0,0.0,0.0,-0.8235,-0.9137,0.0,-1.0269,-1.0438,-1.0614,-1.0187,-0.9876,-0.9696,0.0,0.0,0.0,0.0,0.0,0.0,0.0,0.0,0.0,0.0,0.0,0.0,0.0,0.0,0.0,0.0,0.0,0.0,0.0,0.0,0.0,0.0,0.0,0.0,0.0,0.0,0.0,0.0,0.0,0.0,0.0,0.0,0.0,0.0,0.0,0.0,0.0,0.0,0.0,0.0,0.0,0.0,0.0,0.0,0.0,0.0,0.0,0.0,0.0,0.0,0.0,0.0,0.0,0.0,0.0,0.0,0.0,0.0,0.0,0.0,0.0,0.0,0.0,0.0,0.0,0.0,0.0,0.0,0.0,0.0,0.0,0.0,0.0,0.0,0.0,0.0,0.0,0.0,0.0,0.0,0.0,0.0,0.0,0.0,0.0,0.0,0.0,0.0,0.0,0.0,0.0,0.0,0.0,0.0,0.0,0.0,0.0,0.0,0.0,0.0,0.0,0.0,-0.7739,-0.8695,-0.9561,0.0,-1.0421,-1.0384,-1.0291,-1.001,-0.9808,-0.9888,0.0,0.0,0.0,0.0,0.0,0.0,0.0,0.0,0.0,0.0,0.0,0.0,0.0,0.0,0.0,0.0,0.0,0.0,0.0,0.0,0.0,0.0,0.0,0.0,0.0,0.0,0.0,0.0,0.0,0.0,0.0,0.0,0.0,0.0,0.0,0.0,0.0,0.0,0.0,0.0,0.0,0.0,0.0,0.0,0.0,0.0,0.0,0.0,0.0,0.0,0.0,0.0,0.0,0.0,0.0,0.0,0.0,0.0,0.0,0.0,0.0,0.0,0.0,0.0,0.0,0.0,0.0,0.0,0.0,0.0,0.0,0.0,0.0,0.0,0.0,0.0,0.0,0.0,0.0,0.0,0.0,0.0,0.0,0.0,0.0,0.0,0.0,0.0,0.0,0.0,0.0,0.0,0.0,0.0,0.0,0.0,0.0,0.0,0.0,0.0,0.0,0.0,-0.7588,-0.865,-0.9488,-1.0022,-1.0114,-0.9993,-0.9709,-0.9409,-0.9508,0.0,0.0,0.0,0.0,0.0,0.0,0.0,0.0,0.0,0.0,0.0,0.0,0.0,0.0,0.0,0.0,0.0,0.0,0.0,0.0,0.0,0.0,0.0,0.0,0.0,0.0,0.0,0.0,0.0,0.0,0.0,0.0,0.0,0.0,0.0,0.0,0.0,0.0,0.0,0.0,0.0,0.0,0.0,0.0,0.0,0.0,0.0,0.0,0.0,0.0,0.0,0.0,0.0,0.0,0.0,0.0,0.0,0.0,0.0,0.0,0.0,0.0,0.0,0.0,0.0,0.0,0.0,0.0,0.0,0.0,0.0,0.0,0.0,0.0,0.0,0.0,0.0,0.0,0.0,0.0,0.0,0.0,0.0,0.0,0.0,0.0,0.0,0.0,0.0,0.0,0.0,0.0,0.0,0.0,0.0,0.0,0.0,0.0,0.0,0.0,0.0,0.0,0.0,-0.8452,-0.9309,-0.9901,-1.0063,-0.9933,-0.9776,-0.9689,-0.9409,-0.9294,-0.9508,0.0,0.0,0.0,0.0,0.0,0.0,0.0,0.0,0.0,0.0,0.0,0.0,0.0,0.0,0.0,0.0,0.0,0.0,0.0,0.0,0.0,0.0,0.0,0.0,0.0,0.0,0.0,0.0,0.0,0.0,0.0,0.0,0.0,0.0,0.0,0.0,0.0,0.0,0.0,0.0,0.0,0.0,0.0,0.0,0.0,0.0,0.0,0.0,0.0,0.0,0.0,0.0,0.0,0.0,0.0,0.0,0.0,0.0,0.0,0.0,0.0,0.0,0.0,0.0,0.0,0.0,0.0,0.0,0.0,0.0,0.0,0.0,0.0,0.0,0.0,0.0,0.0,0.0,0.0,0.0,0.0,0.0,0.0,0.0,0.0,0.0,0.0,0.0,0.0,0.0,0.0,0.0,0.0,0.0,0.0,0.0,0.0,0.0,0.0,0.0,0.0,0.0,-0.854,-0.9382,-0.99,-0.978,-0.9609,-0.9459,-0.9345,-0.9381,-0.9531,-0.9846,0.0,0.0,0.0,0.0,0.0,0.0,0.0,0.0,0.0,0.0,0.0,0.0,0.0,0.0,0.0,0.0,0.0,0.0,0.0,0.0,0.0,0.0,0.0,0.0,0.0,0.0,0.0,0.0,0.0,0.0,0.0,0.0,0.0,0.0,0.0,0.0,0.0,0.0,0.0,0.0,0.0,0.0,0.0,0.0,0.0,0.0,0.0,0.0,0.0,0.0,0.0,0.0,0.0,0.0,0.0,0.0,0.0,0.0,0.0,0.0,0.0,0.0,0.0,0.0,0.0,0.0,0.0,0.0,0.0,0.0,0.0,0.0,0.0,0.0,0.0,0.0,0.0,0.0,0.0,0.0,0.0,0.0,0.0,0.0,0.0,0.0,0.0,0.0,0.0,0.0,0.0,0.0,0.0,0.0,0.0,0.0,0.0,0.0,0.0,0.0,0.0,0.0,-0.8282,-0.9096,-0.9569,-0.9216,-0.916,-0.9037,-0.8828,-0.9409,-1.0064,-1.0665,0.0,0.0,0.0,0.0,0.0,0.0,0.0,0.0,0.0,0.0,0.0,0.0,0.0,0.0,0.0,0.0,0.0,0.0,0.0,0.0,0.0,0.0,0.0,0.0,0.0,0.0,0.0,0.0,0.0,0.0,0.0,0.0,0.0,0.0,0.0,0.0,0.0,0.0,0.0,0.0,0.0,0.0,0.0,0.0,0.0,0.0,0.0,0.0,0.0,0.0,0.0,0.0,0.0,0.0,0.0,0.0,0.0,0.0,0.0,0.0,-0.4757,0.0,0.0,0.0,0.0,0.0,0.0,0.0,0.0,0.0,0.0,0.0,0.0,0.0,0.0,0.0,0.0,0.0,0.0,0.0,0.0,0.0,0.0,0.0,0.0,0.0,0.0,0.0,0.0,0.0,0.0,0.0,0.0,0.0,0.0,0.0,0.0,0.0,0.0,0.0,0.0,0.0,-0.9046,-0.9385,-0.9569,-0.9216,-0.9035,-0.8874,-0.8811,-0.9409,-0.9865,-1.0016,-1.1166,0.0,0.0,0.0,0.0,0.0,0.0,0.0,0.0,0.0,0.0,0.0,0.0,0.0,0.0,0.0,0.0,0.0,0.0,0.0,0.0,0.0,0.0,0.0,0.0,0.0,0.0,0.0,0.0,0.0,0.0,0.0,0.0,0.0,0.0,0.0,0.0,0.0,0.0,0.0,0.0,0.0,0.0,0.0,0.0,0.0,0.0,0.0,0.0,0.0,0.0,0.0,0.0,0.0,0.0,0.0,0.0,0.0,0.0,0.0,0.0,-0.5124,0.0,0.0,0.0,0.0,0.0,0.0,0.0,0.0,0.0,0.0,0.0,0.0,0.0,0.0,0.0,0.0,0.0,0.0,0.0,0.0,0.0,0.0,0.0,0.0,0.0,0.0,0.0,0.0,0.0,0.0,0.0,0.0,0.0,0.0,0.0,0.0,0.0,0.0,0.0,0.0,-0.9051,-0.9168,-0.9205,-0.9048,-0.8898,-0.8906,-0.926,-0.9913,-1.0415,-1.0767,-1.1733,0.0,0.0,0.0,0.0,0.0,0.0,0.0,0.0,0.0,0.0,0.0,0.0,0.0,0.0,0.0,0.0,0.0,0.0,0.0,0.0,0.0,0.0,0.0,0.0,0.0,0.0,0.0,0.0,0.0,0.0,0.0,0.0,0.0,0.0,0.0,0.0,0.0,0.0,0.0,0.0,0.0,0.0,0.0,0.0,0.0,0.0,0.0,0.0,0.0,0.0,0.0,0.0,0.0,-0.5038,-0.5043,-0.5126,-0.5132,-0.5204,-0.5311,-0.5373,-0.5777,-0.648,-0.647,0.0,0.0,0.0,0.0,0.0,0.0,0.0,0.0,0.0,0.0,0.0,0.0,0.0,0.0,0.0,0.0,0.0,0.0,0.0,0.0,0.0,0.0,0.0,0.0,-0.7239,-0.7752,0.0,0.0,0.0,0.0,0.0,0.0,0.0,0.0,0.0,0.0,0.0,0.0,-0.8891,-0.8881,-0.8864,-0.8811,-0.891,-0.9211,-0.9762,-1.0517,-1.1212,-1.1765,-1.2505,-1.2881,0.0,0.0,0.0,0.0,0.0,0.0,0.0,0.0,0.0,0.0,0.0,0.0,0.0,0.0,0.0,0.0,0.0,0.0,0.0,0.0,0.0,0.0,0.0,0.0,0.0,0.0,0.0,0.0,0.0,0.0,0.0,0.0,0.0,0.0,0.0,0.0,0.0,0.0,0.0,0.0,0.0,0.0,0.0,0.0,0.0,0.0,0.0,-0.4897,-0.4919,-0.504,-0.5113,-0.5131,-0.5248,-0.5242,-0.513,-0.5731,-0.6109,-0.6258,-0.6915,0.0,-0.6733,-0.7291,0.0,0.0,0.0,0.0,0.0,0.0,0.0,0.0,0.0,0.0,0.0,0.0,0.0,0.0,0.0,0.0,0.0,0.0,0.0,0.0,0.0,0.0,-0.7745,-0.7745,-0.8414,-0.9079,0.0,-0.822,-0.7757,-0.8319,-0.8431,0.0,0.0,0.0,0.0,0.0,0.0,0.0,-0.916,-0.9127,-0.9085,-0.8831,-0.9312,-0.9714,-0.9814,-1.0969,-1.1715,-1.181,-1.2505,-1.2881,-1.2881,-1.2881,0.0,0.0,0.0,0.0,0.0,0.0,0.0,0.0,0.0,0.0,0.0,0.0,0.0,0.0,0.0,0.0,0.0,0.0,0.0,0.0,0.0,0.0,0.0,0.0,0.0,0.0,0.0,0.0,0.0,0.0,0.0,0.0,0.0,0.0,0.0,0.0,0.0,0.0,0.0,0.0,0.0,0.0,0.0,-0.5033,-0.5036,-0.5079,-0.5167,-0.5228,-0.526,-0.526,-0.524,-0.5385,-0.575,-0.5966,-0.6349,-0.6838,-0.768,-0.7931,-0.7888,-0.8373,-0.9086,-0.9771,0.0,0.0,0.0,0.0,-0.9308,-0.9477,-0.9445,-0.9436,0.0,-0.8835,0.0,0.0,0.0,0.0,0.0,0.0,0.0,0.0,0.0,0.0,0.0,-0.8712,-0.9396,-1.0047,-1.0047,-0.9597,-0.9362,0.0,-0.9736,-0.9749,-0.9894,0.0,0.0,0.0,0.0,-0.9389,-0.9203,-0.9044,-0.9048,-0.9326,-0.9614,-1.0115,-1.0864,-1.1462,-1.1976,-1.2393,-1.2715,-1.2881,-1.2881,-1.2881,-1.2881,0.0,0.0,0.0,0.0,0.0,0.0,0.0,0.0,0.0,0.0,0.0,0.0,0.0,0.0,0.0,0.0,0.0,0.0,0.0,0.0,0.0,0.0,0.0,0.0,0.0,0.0,0.0,0.0,0.0,0.0,0.0,0.0,-0.0059,0.0,0.0,0.0,0.0,0.0,0.0,-0.4801,-0.4911,-0.5038,-0.5186,-0.5189,-0.5243,-0.5427,-0.5428,-0.5428,-0.5427,-0.5394,-0.567,-0.6179,-0.636,-0.6802,-0.7456,-0.8334,-0.8866,-0.9123,-0.9403,-0.9914,-1.0624,-1.0624,-1.0624,-1.0624,-1.0624,-1.0672,-1.0691,-1.0835,-1.0792,-1.0594,-0.9996,0.0,-0.9144,-0.8403,0.0,0.0,0.0,0.0,-0.8301,-0.8412,-0.8854,-0.9297,-0.9442,-0.9944,-1.0419,-1.0431,-1.0444,-1.053,0.0,-1.0624,-1.0491,-1.0267,0.0,0.0,0.0,0.0,-0.9408,-0.9566,-0.9295,-0.9309,-0.9965,-1.0218,-1.0716,-1.1715,-1.1972,-1.2344,-1.2876,-1.2881,-1.2881,-1.2881,-1.2881,-1.2881,-1.2881,0.0,0.0,0.0,0.0,0.0,0.0,0.0,0.0,0.0,0.0,0.0,0.0,0.0,0.0,0.0,0.0,0.0,0.0,0.0,0.0,0.0,0.0,0.0,0.0,0.0,0.0,0.0,0.0,0.0,0.0,0.0,0.0,0.0,0.0,0.0,-0.367,-0.4473,-0.4967,-0.5101,-0.5116,-0.5191,-0.5411,-0.5415,-0.542,-0.5428,-0.5428,-0.5428,-0.5427,-0.59,-0.6102,-0.6059,-0.7252,-0.7945,-0.8199,-0.9208,-0.9787,-1.0056,-1.007,-1.0242,-1.0624,-1.0624,-1.0624,-1.0624,-1.0624,-1.0735,-1.0935,-1.0671,-1.0752,-1.0925,-1.0648,-1.0295,-1.0053,-0.9976,-0.9969,0.0,0.0,-1.017,-1.0455,-1.0468,-1.0265,-1.006,-1.0073,-0.987,-0.9803,-1.008,-1.014,-1.0224,0.0,-1.0624,-1.0618,-1.0604,0.0,-1.0577,-1.0577,-1.0027,-0.988,-1.0547,-1.0106,-1.0016,-1.0665,-1.1312,-1.1715,-1.181,-1.2452,-1.2876,-1.2881,-1.2881,-1.2881,-1.2881,-1.2881,-1.2881,-1.2881,-1.2881,0.0,0.0,0.0,0.0,0.0,0.0,0.0,0.0,0.0,0.0,0.0,0.0,0.0,0.0,0.0,0.0,0.0,0.0,0.0,0.0,0.0,0.0,0.0,0.0,0.0,0.0,0.0,0.0,0.0,0.0,0.0,-0.1212,-0.204,-0.2887,-0.3744,-0.4564,-0.5077,-0.5126,-0.5225,-0.5304,-0.5427,-0.5428,-0.5428,-0.5428,-0.5428,-0.557,-0.5907,-0.6049,-0.6464,-0.7242,-0.7577,-0.8075,-0.8584,-0.8963,-0.9282,-0.9495,-0.9495,-0.995,-1.0624,-1.0624,-1.0624,-1.0624,-1.0624,-1.0688,-1.0701,-1.0658,-1.0628,-1.0762,-1.0655,-1.0491,-1.0401,-1.0401,-1.0401,-1.0401,-1.0401,-1.0478,-1.0577,-1.0324,-1.0194,-1.007,-0.9883,-0.976,-0.9713,-0.9816,-0.9983,-1.0147,-1.0254,-1.0431,-1.0624,-1.0624,-1.0624,-1.0676,-1.0894,-1.0564,-1.0496,-1.0993,-1.0709,-1.0716,-1.1362,-1.1665,-1.1972,-1.2456,-1.2769,-1.2881,-1.2881,-1.2881,-1.2881,-1.2881,-1.2881,-1.2881,-1.2881,-1.2881,-1.2881,0.0,0.0,0.0,0.0,0.0,0.0,0.0,0.0,0.0,0.0,0.0,0.0,0.0,0.0,0.0,0.0,0.0,0.0,0.0,0.0,0.0,0.0,0.0,0.0,0.0,0.0,0.0,0.0,0.0,-0.0442,-0.1603,-0.2214,-0.3022,-0.4175,-0.4806,-0.5208,-0.5208,-0.5306,-0.5428,-0.5428,-0.5428,-0.5557,-0.5817,-0.5696,-0.5997,-0.6621,-0.6669,-0.7105,-0.7908,-0.8,-0.8321,-0.8814,-0.8911,-0.9062,-0.9193,-0.9345,-0.9736,-1.0325,-1.0325,-1.0325,-1.0325,-1.0325,-1.0324,-1.0424,-1.0591,-1.0624,-1.0624,-1.0624,-1.0624,-1.0624,-1.0624,-1.0624,-1.0624,-1.0624,-1.0624,-1.0491,-1.0194,-1.0043,-0.9897,-0.9606,-0.9622,-0.974,-0.99,-1.0247,-1.053,-1.0637,-1.0646,-1.0684,-1.0986,-1.0986,-1.1123,-1.1454,-1.1287,-1.1221,-1.158,-1.1353,-1.1416,-1.2084,-1.2187,-1.2344,-1.2881,-1.2881,-1.2881,-1.2881,-1.2881,-1.2881,-1.2881,-1.2881,-1.2881,-1.2881,-1.2881,-1.2881,-1.2881,0.0,0.0,0.0,0.0,0.0,0.0,0.0,0.0,0.0,0.0,0.0,0.0,0.0,0.0,0.0,0.0,0.0,0.0,0.0,0.0,0.0,0.0,0.0,0.0,0.0,0.0,0.0,0.0,-0.0658,-0.2353,-0.2588,-0.3365,-0.4942,-0.5262,-0.5413,-0.5413,-0.5413,-0.5413,-0.5413,-0.5413,-0.58,-0.6702,-0.633,-0.6612,-0.7538,-0.7805,-0.7914,-0.7955,-0.8543,-0.8808,-0.8821,-0.9047,-0.917,-0.9193,-0.9536,-0.9659,-0.9659,-0.9676,-0.9683,-0.9683,-0.9683,-0.986,-1.0144,-1.0431,-1.0598,-1.0598,-1.0598,-1.0598,-1.0598,-1.0604,-1.0608,-1.0608,-1.0608,-1.0608,-1.0537,-1.0167,-0.988,-0.965,-0.9295,-0.9528,-0.9903,-1.0229,-1.0828,-1.1358,-1.1646,-1.1126,-1.0902,-1.1691,-1.1826,-1.1962,-1.2338,-1.2138,0.0,-1.2272,-1.2021,-1.2133,-1.2827,-1.2881,-1.2881,-1.2881,-1.2881,-1.2881,-1.2881,-1.2881,-1.2881,-1.2881,-1.2881,-1.2881,-1.2881,-1.2881,-1.2881,-1.2881,0.0,0.0,0.0,0.0,0.0,0.0,0.0,0.0,0.0,0.0,0.0,0.0,0.0,0.0,0.0,0.0,0.0,0.0,0.0,0.0,0.0,0.0,0.0,0.0,0.0,0.0,0.0,0.0,-0.0648,-0.2354,-0.2528,-0.3199,-0.4856,-0.5016,-0.5042,-0.5042,-0.5042,-0.5042,-0.5042,-0.5042,-0.5406,-0.6199,-0.6088,-0.6651,-0.7778,-0.7872,-0.8107,-0.8533,-0.8735,-0.8808,-0.8811,-0.8891,-0.8925,-0.8935,-0.9015,-0.9048,-0.9092,-0.9516,-0.9683,-0.9683,-0.9683,-0.9733,-0.9813,-0.9897,-0.9923,-0.9923,-0.9923,-0.9923,-0.9963,-1.0174,-1.0237,-1.0237,-1.0237,-1.0237,-1.012,-0.9613,-0.9806,-1.0038,-0.972,-1.0077,-1.0541,-1.0641,-1.1019,-1.1342,-1.1386,-1.1383,-1.1596,-1.2158,-1.247,-1.2674,-1.2737,-1.2705,0.0,-1.2736,-1.264,-1.2666,-1.2881,-1.2881,-1.2881,-1.2881,-1.2881,-1.2881,-1.2881,-1.2881,-1.2881,-1.2881,-1.2881,-1.2881,-1.2881,-1.2881,-1.2881,0.0,0.0,0.0,0.0,0.0,0.0,0.0,0.0,0.0,0.0,0.0,0.0,0.0,0.0,0.0,0.0,0.0,0.0,0.0,0.0,0.0,0.0,0.0,0.0,0.0,0.0,0.0,0.0,0.0,-0.063,-0.2232,-0.2466,-0.3116,-0.4707,-0.4882,-0.4919,-0.4919,-0.4919,-0.4919,-0.4919,-0.4919,-0.5455,-0.6524,-0.6443,-0.7092,-0.8432,-0.8321,-0.8467,-0.8808,-0.8808,-0.8808,0.0,-0.8808,-0.8808,-0.8808,-0.8808,-0.8808,0.0,0.0,0.0,0.0,0.0,-0.9499,-0.9516,-0.9639,-0.9683,-0.9683,-0.9683,-0.9683,-0.9716,-0.9886,-0.9937,-0.9993,-1.0279,-1.0335,-1.0337,-1.0114,-1.0415,-1.0646,-1.0296,-1.0712,-1.1216,-1.1216,-1.1604,-1.1979,-1.1979,-1.2237,0.0,-1.282,-1.2889,-1.2989,-1.3152,-1.3167,-1.31,-1.2915,-1.2881,-1.2881,-1.2881,-1.2881,-1.2881,-1.2881,-1.2881,0.0,0.0,0.0,-1.2881,-1.2881,-1.2881,0.0,0.0,0.0,0.0,0.0,0.0,0.0,0.0,-1.4445,-1.4981,0.0,0.0,0.0,0.0,0.0,0.0,0.0,0.0,0.0,0.0,0.0,0.0,0.0,0.0,0.0,0.0,0.0,0.0,0.0,0.0,0.0,0.0,0.0,-0.0548,-0.1941,-0.2285,-0.3016,-0.4442,-0.473,-0.4869,-0.4869,0.0,0.0,0.0,0.0,-0.5694,-0.7216,-0.7081,-0.7717,-0.9133,-0.8931,-0.8808,-0.8808,-0.8808,-0.8808,-0.8808,-0.8808,-0.8808,-0.8808,-0.8808,-0.8808,-0.8808,-0.8808,-0.8808,-0.8841,-0.904,-0.9133,-0.9173,-0.9492,0.0,0.0,-0.9697,-0.9694,-0.9758,-0.9846,-0.9856,-1.0022,-1.0627,-1.0793,-1.0823,-1.1181,-1.1304,-1.127,-1.0989,-1.1416,-1.1918,-1.1918,-1.2452,-1.2881,-1.2881,-1.3184,-1.3437,-1.3437,-1.3231,-1.3117,-1.3462,-1.3506,-1.3354,-1.2935,-1.2881,-1.2881,-1.2881,0.0,0.0,-1.2881,-1.2881,-1.2881,-1.2881,-1.2881,-1.2881,-1.2881,-1.2881,-1.2881,-1.2881,-1.2881,-1.2925,-1.3017,-1.3652,-1.4196,-1.4642,-1.5012,-1.5821,0.0,0.0,0.0,0.0,0.0,0.0,0.0,0.0,0.0,0.0,0.0,0.0,0.0,0.0,0.0,0.0,0.0,0.0,0.0,0.0,0.0,0.0,0.0,-0.0366,-0.1237,-0.1886,-0.2626,-0.3555,-0.4249,-0.455,-0.455,-0.455,-0.455,-0.455,-0.5102,-0.5821,-0.6714,-0.7272,-0.8015,-0.8891,0.0,0.0,-0.8808,-0.8808,-0.8808,-0.8808,-0.8808,-0.8808,-0.8808,-0.8808,-0.8808,-0.8808,-0.8808,-0.8808,-0.8814,-0.8868,-0.8891,-0.8898,-0.8958,-0.8975,-0.9079,-0.9592,-0.98,-0.9951,-1.0744,-1.0992,0.0,-1.115,-1.12,-1.112,-1.0968,-1.1323,-1.1709,-1.1629,-1.2138,-1.2666,-1.2666,-1.2779,-1.2881,-1.2881,-1.2949,-1.3003,-1.3003,-1.3473,-1.3772,-1.3518,-1.3506,-1.3354,-1.2935,-1.2881,-1.2881,-1.2881,-1.2881,-1.2881,-1.2881,-1.2881,-1.2881,-1.2881,-1.2881,-1.2881,-1.2881,-1.2881,-1.2881,-1.2881,-1.2881,-1.3152,-1.3647,-1.4675,-1.5474,-1.598,-1.551,-1.5631,0.0,0.0,0.0,0.0,0.0,0.0,0.0,0.0,0.0,0.0,0.0,0.0,0.0,0.0,0.0,0.0,0.0,0.0,0.0,0.0,0.0,0.0,0.0,-0.0292,-0.1033,-0.1774,-0.2498,-0.3293,-0.407,-0.4517,-0.4517,-0.4517,-0.4517,-0.4517,-0.5164,-0.5871,-0.6588,-0.7345,-0.8049,-0.8808,-0.8808,-0.8808,-0.8808,-0.8808,-0.8808,-0.8808,-0.8808,-0.8808,-0.8808,-0.8808,-0.8808,-0.8857,-0.9162,-0.911,-0.8857,-0.9159,-0.9312,-0.9364,-0.9662,-0.9814,-0.9865,-1.0214,-1.0316,-1.0395,-1.0881,-1.1038,-1.1137,-1.1447,-1.155,-1.1614,-1.1791,-1.2098,-1.2344,-1.2344,-1.2613,-1.2881,-1.2881,-1.2881,-1.2881,-1.2881,-1.2881,-1.2881,-1.2881,-1.3228,-1.3433,-1.3223,-1.3193,-1.312,-1.291,-1.2881,-1.2881,-1.2881,-1.2881,-1.2881,-1.2881,-1.2881,-1.2881,-1.2881,-1.2881,-1.2881,-1.2881,-1.2881,-1.3065,-1.3324,-1.3329,-1.3652,-1.4236,-1.5124,-1.57,-1.6019,-1.594,-1.632,0.0,0.0,0.0,0.0,0.0,0.0,0.0,0.0,0.0,0.0,0.0,0.0,0.0,0.0119,0.0239,0.0244,0.0239,0.0235,0.0233,0.0114,0.0,0.0,0.0,-0.0224,-0.0839,-0.1675,-0.2453,-0.3065,-0.3958,-0.4517,-0.4517,-0.4517,-0.4517,-0.4517,-0.5275,-0.5982,-0.6588,-0.7453,-0.8209,-0.8808,-0.8808,-0.8808,-0.8808,-0.8808,-0.8808,-0.8808,-0.8808,-0.8808,-0.8808,-0.8808,-0.8808,-0.8857,-0.9562,-0.9465,-0.9057,-0.9766,-1.0012,-1.0064,-1.0614,-1.0813,-1.0813,-1.0965,-1.1011,-1.1015,-1.117,-1.1229,-1.1325,-1.1877,-1.2026,-1.2133,-1.2774,-1.2881,-1.2881,-1.2881,-1.2881,-1.2881,-1.2881,-1.2881,-1.2881,-1.2881,-1.2881,-1.2881,-1.2881,-1.2881,-1.2881,-1.2881,-1.2881,-1.2881,-1.2881,-1.2881,-1.2881,-1.2881,-1.2881,-1.2881,-1.2881,-1.2881,-1.2881,-1.2881,-1.2881,-1.2881,-1.2881,-1.3017,-1.3286,-1.3774,-1.3909,-1.4283,-1.488,-1.5359,-1.5676,-1.5776,-1.6281,-1.7005,-0.0546,0.022,0.0773,0.094,0.0498,0.0,0.0,0.0,0.0,0.0,0.0,0.0,0.0,0.0552,0.0972,0.0949,0.1001,0.0989,0.096,0.0393,0.0,0.0,0.0,-0.0056,-0.0112,-0.1396,-0.2231,-0.2342,-0.3678,-0.4517,-0.4517,-0.4517,-0.4517,-0.4517,-0.5771,-0.6534,-0.6588,-0.7993,-0.8699,-0.8808,-0.8808,-0.8808,-0.8808,-0.8808,-0.8808,-0.8808,-0.8808,-0.8808,-0.8808,-0.8808,-0.8808,-0.8857,-0.9562,-0.9762,-0.9766,-1.0415,-1.0665,-1.0716,-1.0762,-1.0813,-1.0914,-1.1512,-1.1665,-1.1819,-1.2461,-1.2671,-1.2671,-1.2774,-1.2769,-1.2779,-1.2881,-1.2881,-1.2881,-1.2881,-1.2881,-1.2881,-1.2881,-1.2881,-1.2881,-1.2881,-1.2881,-1.2881,-1.2881,-1.2881,-1.2881,-1.2881,-1.2881,-1.2881,-1.2881,-1.2881,-1.2881,-1.2881,-1.2881,-1.2881,-1.2881,-1.2881,-1.2881,-1.2881,-1.2881,-1.2881,-1.2881,-1.342,-1.3726,-1.3821,-1.4335,-1.492,-1.5499,-1.5588,-1.587,-1.638,-1.6472,-1.6584,0.0266,0.1082,0.1527,0.1168,0.0895,0.0504,0.0112,0.0,0.0,0.0,0.0343,0.0631,0.064,0.1223,0.1737,0.0,0.1767,0.1588,0.1176,0.0839,0.0497,0.0053,0.0,0.0,0.0,-0.094,-0.173,-0.2175,-0.3176,-0.4013,-0.4462,-0.4517,-0.4517,-0.4517,-0.5439,-0.6147,-0.6588,-0.7616,-0.8374,-0.8808,-0.8808,-0.8808,-0.8808,-0.8808,-0.8808,-0.8808,-0.8808,-0.9008,-0.9361,-0.9361,-0.961,-1.0012,-1.0716,-1.0965,-1.1015,-1.1266,-1.1362,-1.1416,-1.1891,-1.1999,-1.2049,-1.2349,-1.2452,-1.2505,-1.2822,-1.2881,-1.2881,-1.2881,-1.2881,-1.2881,-1.2881,-1.2881,-1.2881,-1.2881,-1.2881,-1.2881,-1.2881,-1.2881,-1.2881,-1.2881,-1.2881,-1.2881,-1.2881,-1.2881,-1.2881,-1.2881,-1.2881,-1.2881,-1.2881,-1.2881,-1.2881,-1.2881,-1.2881,-1.2881,-1.2881,-1.3243,-1.3415,-1.3415,-1.3742,-1.3931,-1.3931,-1.4201,-1.4509,-1.4863,-1.5096,-1.5505,-1.6139,-1.6139,-1.6238,-1.6515,-1.6515,-1.6515,0.1535,0.2098,0.2393,0.173,0.1487,0.1226,0.0664,0.0556,0.0615,0.0615,0.1006,0.1396,0.1396,0.2008,0.2509,0.2509,0.2509,0.2342,0.1786,0.1385,0.0929,0.0373,0.0109,0.0,0.0,-0.0877,-0.1619,-0.2175,-0.3065,-0.3901,-0.4462,-0.4517,-0.457,-0.4787,-0.5437,-0.6145,-0.6912,-0.7616,-0.8262,-0.8808,-0.8808,-0.8808,-0.8808,-0.8808,-0.8808,-0.8808,-0.8808,-0.9057,-0.9562,-0.9714,-1.0064,-1.0618,-1.1466,-1.1814,-1.1814,-1.2026,-1.208,-1.2183,-1.272,-1.2881,-1.2881,-1.2881,-1.2881,-1.2881,-1.2881,-1.2881,-1.2881,-1.2881,-1.2881,-1.2881,-1.2881,-1.2881,-1.2881,-1.2881,-1.2881,-1.2881,-1.2881,-1.2881,-1.2881,-1.2881,-1.2881,-1.2881,-1.2881,-1.2881,-1.2881,-1.2881,-1.2881,-1.2881,-1.2881,-1.2881,-1.2881,-1.2881,-1.2881,-1.2881,-1.2881,-1.3462,-1.3821,-1.3821,-1.4376,-1.4703,-1.4703,-1.488,-1.5147,-1.5588,-1.577,-1.6051,-1.6515,-1.6515,-1.6515,-1.6515,-1.6515,-1.6515,0.3847,0.3799,0.3763,0.3046,0.2495,0.2103,0.1984,0.2018,0.212,0.212,0.2174,0.2175,0.2175,0.2843,0.3345,0.3345,0.3345,0.3345,0.3345,0.206,0.1115,0.1062,0.0426,0.0,0.0,-0.1314,-0.2175,-0.2175,-0.3623,-0.4462,-0.4517,-0.4517,-0.4787,-0.5433,-0.6202,-0.6912,-0.767,-0.8374,-0.8755,-0.8808,-0.8808,-0.8808,-0.8808,-0.8808,-0.8808,-0.8808,-0.8808,-0.8804,-0.8857,-0.951,-0.9814,-0.9965,-1.1266,-1.1814,-1.1868,-1.2613,-1.2876,-1.2876,-1.2881,-1.2881,-1.2881,-1.2881,-1.2881,-1.2881,-1.2881,-1.2881,-1.2881,-1.2881,-1.2881,-1.2881,-1.2881,-1.2881,-1.2881,-1.2881,-1.2881,-1.2881,-1.2881,-1.2881,-1.2881,-1.2881,-1.2881,-1.2881,-1.2881,-1.2881,-1.2881,-1.2881,-1.2881,-1.2881,-1.2881,-1.2881,-1.2881,-1.2881,-1.2881,-1.2881,-1.2881,-1.3462,-1.3821,-1.3821,-1.4376,-1.4703,-1.4703,-1.5276,-1.5582,-1.5588,-1.6188,-1.6472,-1.6515,-1.6515,-1.6515,-1.6515,-1.6515,-1.6515,0.5494,0.5448,0.5307,0.4261,0.3902,0.3553,0.2659,0.2568,0.2525,0.2159,0.2582,0.301,0.301,0.3623,0.4125,0.4125,0.3999,0.3778,0.3293,0.267,0.1945,0.1077,0.0734,0.0426,0.0053,-0.0439,0.0,-0.212,-0.2676,-0.3399,-0.446,-0.4517,-0.4787,-0.5487,-0.5762,-0.6468,-0.7667,-0.794,-0.8318,-0.8808,-0.8808,-0.8808,-0.8808,-0.8808,-0.8808,-0.8808,-0.926,-0.9714,-1.0163,-1.0864,-1.1429,-1.1904,-1.2353,-1.2554,-1.2559,-1.2822,-1.2881,-1.2881,-1.2881,-1.2881,-1.2881,-1.2881,-1.2881,-1.2881,-1.2881,-1.2881,-1.2881,-1.2881,-1.2881,-1.2881,-1.2881,-1.2881,-1.2881,-1.2881,-1.3195,-1.351,-1.351,-1.3789,-1.4066,-1.4066,-1.4066,-1.4066,-1.4066,-1.4066,-1.4066,-1.4066,-1.343,-1.2881,-1.2881,-1.2881,-1.2881,-1.2881,-1.2881,-1.2881,-1.2881,-1.3836,-1.4376,-1.4376,-1.5332,-1.5882,-1.5882,-1.6107,-1.6194,-1.6194,-1.638,-1.6515,-1.6515,-1.6515,-1.6515,-1.6515,-1.6515,-1.6515,0.7415,0.7239,0.689,0.5728,0.5363,0.5035,0.3964,0.3907,0.3992,0.3586,0.4068,0.4555,0.4555,0.4725,0.4952,0.5226,0.4707,0.4214,0.3989,0.3453,0.2727,0.1879,0.1268,0.0802,0.0433,0.0166,0.0,-0.2064,-0.2453,-0.3177,-0.4406,-0.4517,-0.4787,-0.5487,-0.576,-0.647,-0.7667,-0.794,-0.8318,-0.8808,-0.8808,-0.8808,-0.8808,-0.9061,-0.9159,-0.9159,-0.961,-1.0163,-1.0813,-1.1266,-1.1882,-1.2554,-1.2779,-1.2881,-1.2881,-1.2881,-1.2881,-1.2881,-1.2881,-1.2881,-1.2881,-1.2881,-1.2881,-1.2881,-1.2881,-1.2881,-1.2881,-1.2881,-1.2881,-1.2881,-1.2881,-1.2881,-1.2881,-1.2881,-1.3372,-1.3821,-1.3821,-1.4283,-1.4703,-1.4703,-1.4703,-1.4703,-1.4703,-1.4703,-1.4703,-1.4703,-1.4025,-1.352,-1.352,-1.352,-1.3472,-1.3238,-1.3425,-1.3472,-1.3243,-1.4335,-1.5011,-1.5011,-1.597,-1.6515,-1.6515,-1.6515,-1.6515,-1.6515,-1.6515,-1.6515,-1.6515,-1.6515,-1.6515,-1.6515,-1.6716,-1.6795,0.9497,0.9088,0.8526,0.7282,0.6827,0.6504,0.58,0.596,0.6276,0.6286,0.6423,0.6588,0.6588,0.6034,0.576,0.6423,0.5435,0.4776,0.5366,0.4197,0.3316,0.0,0.0,0.1184,0.1114,0.0448,0.0,-0.2008,0.0,-0.3568,-0.4406,-0.4462,-0.4787,-0.5487,-0.6202,-0.6912,-0.767,-0.8427,-0.8808,-0.8808,-0.8808,-0.8808,-0.8808,-0.9514,-0.9814,-0.9814,-0.9862,-1.0265,-1.0864,-1.0868,-1.1266,-1.1918,-1.2613,-1.2881,-1.2881,-1.2881,-1.2881,-1.2881,-1.2881,-1.2881,-1.2881,-1.2881,-1.2881,-1.2881,-1.2881,-1.2881,-1.2929,-1.2925,-1.2973,-1.2973,-1.2973,-1.2973,-1.2973,-1.2973,-1.3462,-1.3909,-1.3909,-1.4376,-1.4789,-1.4789,-1.4789,-1.4789,-1.4789,-1.4789,-1.4789,-1.4789,-1.4789,-1.4749,-1.4703,-1.4703,-1.4474,-1.3915,-1.4381,-1.4468,-1.3915,-1.4903,-1.5588,-1.5588,-1.6188,-1.6515,-1.6515,-1.6515,-1.6515,-1.6515,-1.6515,-1.6515,-1.6515,-1.6515,-1.6515,-1.6515,-1.707,-1.7353,1.0136,0.9712,0.9237,0.7965,0.7863,0.7916,0.7335,0.7221,0.7206,0.7136,0.683,0.6588,0.6588,0.6423,0.6202,0.5817,0.5381,0.0,0.4563,0.4115,0.0,0.3212,0.2827,0.2205,0.117,0.0951,0.0,0.0,-0.2064,-0.2788,-0.3566,-0.4182,-0.4787,-0.5487,-0.5706,-0.6414,-0.7667,-0.8427,-0.8808,-0.8808,-0.8808,-0.8808,-0.8808,-0.9514,-0.9814,-0.9865,-1.0864,-1.1366,-1.1566,-1.2147,-1.2461,-1.2618,-1.2827,-1.2881,-1.2881,-1.2881,-1.2881,-1.2881,-1.2881,-1.2881,-1.2881,-1.2881,-1.2881,-1.2881,-1.2881,-1.2881,-1.2973,-1.3415,-1.3552,-1.3689,-1.4107,-1.4247,-1.4247,-1.4247,-1.4687,-1.5129,-1.5129,-1.5599,-1.6064,-1.6064,-1.6064,-1.6064,-1.6064,-1.6064,-1.6064,-1.6064,-1.6064,-1.5706,-1.4841,-1.4703,-1.4658,-1.4468,-1.4612,-1.4658,-1.4468,-1.5141,-1.5588,-1.5588,-1.6188,-1.6515,-1.6515,-1.6515,-1.6515,-1.6515,-1.6515,-1.6515,-1.6515,-1.6915,-1.6873,-1.6515,-1.747,-1.7666,1.1502,1.0999,1.0372,0.9296,0.8999,0.8862,0.8483,0.8486,0.8464,0.8328,0.837,0.8271,0.7661,0.7545,0.7374,0.0,0.0,0.0,0.5243,0.4632,0.4085,0.3735,0.3419,0.295,0.2115,0.1508,0.0782,0.0,-0.1394,-0.2509,-0.3287,-0.407,-0.4679,-0.5058,-0.5655,-0.6686,-0.8156,-0.859,-0.8808,-0.8808,-0.8808,-0.8808,-0.8808,-0.9514,-0.9814,-0.9865,0.0,-1.1516,-1.1814,-1.2241,-1.2613,-1.2881,-1.2881,-1.2881,-1.2881,-1.2881,-1.2881,-1.2881,-1.2881,-1.2881,-1.2881,-1.2881,-1.2881,-1.2881,-1.2881,-1.2881,-1.2973,-1.3329,-1.36,-1.3868,-1.4236,-1.4514,-1.4703,-1.4703,-1.5141,-1.5588,-1.5588,-1.6051,-1.6515,-1.6515,-1.6515,-1.6515,-1.6515,-1.6515,-1.6515,-1.6515,-1.6515,-1.625,-1.5567,-1.5472,-1.5383,-1.5096,-1.5332,-1.5377,-1.5101,-1.5644,-1.6002,-1.6002,-1.6324,-1.6515,-1.6515,-1.6515,-1.6515,-1.6515,-1.6515,-1.6515,-1.6515,-1.6795,-1.6915,-1.6873,-1.7706,-1.8059,1.2884,1.2258,1.1499,1.0612,1.0037,0.9636,0.9545,0.9746,0.9898,0.9838,1.0354,1.0415,0.9162,0.8971,0.8905,0.8689,0.7109,0.6027,0.6421,0.5389,0.4625,0.4519,0.3958,0.3456,0.3343,0.2064,0.1227,0.1111,-0.0886,-0.2382,-0.3101,-0.3877,-0.437,-0.4458,-0.5802,-0.7155,-0.8478,-0.8603,-0.8711,-0.8751,-0.8707,-0.8711,-0.8748,-0.9448,-0.982,-0.9961,0.0,0.0,-1.1972,-1.1972,-1.2344,-1.2881,-1.2881,-1.2881,-1.2881,-1.2881,-1.2881,-1.2881,-1.2881,-1.2881,-1.2881,-1.2881,-1.2973,-1.3017,-1.3017,-1.3065,-1.3157,-1.3248,-1.3647,-1.405,-1.4138,-1.456,-1.4932,-1.4932,-1.5326,-1.5726,-1.5726,-1.6145,-1.6515,-1.6515,-1.6515,-1.6515,-1.6515,-1.6515,-1.6515,-1.6515,-1.6515,-1.6515,-1.6515,-1.6515,-1.6287,-1.577,-1.6194,-1.6287,-1.577,-1.6194,-1.6515,-1.6515,-1.6515,-1.6515,-1.6515,-1.6515,-1.6515,-1.6515,-1.6515,-1.6558,-1.6595,-1.6674,-1.6951,-1.7429,-1.802,-1.8535,1.2432,1.1985,1.1404,1.0212,1.0435,1.1037,1.1306,1.116,1.1264,1.2068,1.1455,1.0564,0.9762,1.0056,0.9887,0.8143,0.8013,0.7564,0.5919,0.549,0.5109,0.4572,0.4405,0.407,0.3343,0.2509,0.0,0.0,-0.0374,-0.1552,-0.2197,-0.2946,-0.3593,-0.405,-0.5394,-0.6331,-0.6827,-0.7647,-0.8206,-0.8447,-0.82,-0.821,-0.8501,-0.9176,-0.9903,-1.0665,-1.1362,0.0,-1.272,-1.272,-1.2769,-1.2881,-1.2881,-1.2881,-1.2881,-1.2881,-1.2881,-1.2881,-1.2881,-1.2881,-1.2881,-1.2881,-1.3243,-1.3637,-1.3637,-1.4014,-1.4468,-1.5005,-1.5225,-1.5404,-1.592,-1.6107,-1.6201,-1.6201,-1.6287,-1.6331,-1.6331,-1.6429,-1.6515,-1.6515,-1.6515,-1.6515,-1.6515,-1.6515,-1.6515,-1.6515,-1.6515,-1.6515,-1.6515,-1.6515,-1.6472,-1.638,-1.6429,-1.6472,-1.6331,-1.6429,-1.6515,-1.6515,-1.6515,-1.6515,-1.6515,-1.6515,-1.6515,-1.6515,-1.6515,-1.6716,-1.7153,-1.7626,-1.786,-1.798,-1.8968,-1.9244,1.2748,1.2345,1.1991,1.144,1.1422,1.174,1.2627,1.2302,1.2013,1.264,1.2311,1.1588,1.0517,1.0868,1.0902,0.9529,0.8947,0.8357,0.7295,0.6509,0.5819,0.5111,0.5001,0.4728,0.4012,0.3183,0.2375,0.1698,0.0573,-0.062,-0.1912,-0.2994,-0.3886,-0.4559,-0.5193,-0.5927,-0.6731,-0.7258,-0.7705,-0.8143,-0.7996,-0.8006,-0.8143,-0.847,-0.9018,-0.9745,-1.0645,0.0,-1.2048,-1.2682,-1.2881,-1.2881,-1.2881,-1.2881,-1.2881,-1.2881,-1.2881,-1.2881,-1.2881,-1.2881,-1.2881,-1.2881,-1.3109,-1.3329,-1.3329,-1.3737,-1.4283,-1.4589,-1.5135,-1.5682,-1.5958,-1.6238,-1.6515,-1.6515,-1.6515,-1.6515,-1.6515,-1.6515,-1.6515,-1.6515,-1.6515,-1.6515,-1.6515,-1.6515,-1.6515,-1.6515,-1.6515,-1.6515,-1.6515,-1.6515,-1.6515,-1.6515,-1.6515,-1.6515,-1.6515,-1.6515,-1.6515,-1.6515,-1.6515,-1.6515,-1.6515,-1.6515,-1.6515,-1.6515,-1.6515,-1.6752,-1.7312,-1.7544,-1.798,-1.8535,-1.905,-1.9288,1.3355,1.2934,1.2613,1.2675,1.2328,1.2301,1.369,1.332,1.277,1.3118,1.316,1.2647,1.1271,1.157,1.1774,1.0918,0.9974,0.9193,0.878,0.7741,0.6735,0.5814,0.5594,0.5271,0.4787,0.3733,0.0,0.2254,0.1158,0.0,-0.1887,-0.3102,-0.4063,-0.4734,-0.4876,-0.5467,-0.6622,-0.681,-0.7148,-0.7641,-0.7672,-0.7769,-0.7832,-0.7926,-0.8321,-0.8989,-1.0003,0.0,0.0,-1.2354,-1.2739,-1.2749,-1.2847,-1.2881,-1.2881,-1.2881,-1.2881,-1.2881,-1.2881,-1.2881,-1.2881,-1.2881,-1.2973,-1.3109,-1.3109,-1.351,-1.4003,-1.4138,-1.4863,-1.5632,-1.577,-1.6145,-1.6515,-1.6515,-1.6515,-1.6515,-1.6515,-1.6515,-1.6515,-1.6515,-1.6515,-1.6515,-1.6515,-1.6515,-1.6515,-1.6515,-1.6515,-1.6515,-1.6515,-1.6515,-1.6515,-1.6515,-1.6515,-1.6515,-1.6515,-1.6515,-1.6515,-1.6515,-1.6515,-1.6515,-1.6515,-1.6515,-1.6558,-1.6674,-1.6674,-1.6993,-1.7626,-1.7626,-1.8138,-1.9088,-1.9088,-1.9288,1.4073,1.3491,1.2913,1.2735,1.2762,1.3107,1.4344,1.4205,1.3987,1.4445,1.4097,1.3288,1.1958,1.2295,1.2358,1.1023,0.0,1.0839,0.8989,0.8574,0.8,0.6637,0.5928,0.5487,0.5433,0.3995,0.2829,0.2231,0.0378,0.0,-0.1762,-0.2439,-0.3112,-0.3707,-0.4228,-0.4655,-0.5107,-0.5872,-0.6413,-0.6732,-0.6974,-0.7245,-0.7553,-0.8046,-0.8734,-0.9649,-1.0282,0.0,0.0,-1.2059,-1.2244,-1.2329,-1.2725,-1.2881,-1.2881,-1.2881,-1.2881,-1.2881,-1.2881,-1.2881,-1.2881,-1.2881,-1.3286,-1.3732,-1.3732,-1.4149,-1.4744,-1.527,-1.5493,-1.5726,-1.6287,-1.6472,-1.6515,-1.6515,-1.6515,-1.6515,-1.6515,-1.6515,-1.6515,-1.6515,-1.6515,-1.6515,-1.6515,-1.6515,-1.6515,-1.6515,-1.6515,-1.6515,-1.6515,-1.6515,-1.6515,-1.6515,-1.6515,-1.6515,-1.6515,-1.6515,-1.6515,-1.6515,-1.6515,-1.6515,-1.6515,-1.6515,-1.6716,-1.7229,-1.7229,-1.7747,-1.8734,-1.8734,-1.905,-1.9646,-1.9646,-1.9646,1.4579,1.413,1.3886,1.3854,1.3676,1.3785,1.4833,1.4697,1.4428,1.4693,1.427,1.3627,1.3082,1.3251,1.3122,1.2197,1.2267,1.198,1.0725,1.0458,0.9779,0.8075,0.7865,0.7408,0.0,0.0,0.3644,0.2072,0.0865,0.0,-0.119,-0.216,-0.2988,-0.358,-0.3794,-0.4302,-0.5124,-0.5481,-0.6047,-0.6848,-0.695,-0.7084,-0.7198,-0.7413,-0.8074,-0.9109,-0.9588,0.0,0.0,-1.1645,-1.1982,-1.22,-1.2422,-1.2651,-1.2881,-1.2881,-1.2881,-1.2881,-1.2881,-1.2881,-1.2881,-1.2881,-1.306,-1.3329,-1.3684,-1.4236,-1.4835,-1.541,-1.5864,-1.6194,-1.6429,-1.6515,-1.6515,-1.6515,-1.6515,-1.6515,-1.6515,-1.6515,-1.6515,-1.6515,-1.6515,-1.6515,-1.6515,-1.6515,-1.6515,-1.6515,-1.6515,-1.6515,-1.6515,-1.6515,-1.6515,-1.6515,-1.6515,-1.6515,-1.6515,-1.6515,-1.6515,-1.6515,-1.6515,-1.6515,-1.6515,-1.6515,-1.6595,-1.6795,-1.7153,-1.7666,-1.8419,-1.8734,-1.9169,-1.9682,-1.9682,-1.9682,1.5378,1.4995,1.4841,1.49,1.4569,1.4457,1.5326,1.5174,1.4867,1.4794,1.4372,1.4003,1.3821,1.3637,1.3462,0.0,1.2972,1.2652,1.2086,1.1886,1.1194,0.9549,0.0,0.8764,0.7247,0.5705,0.3969,0.1975,0.0,0.0,-0.085,-0.1853,-0.2686,-0.3304,-0.349,-0.4056,-0.5043,-0.5219,-0.5779,-0.6771,-0.694,-0.6979,-0.7024,-0.7192,-0.769,-0.8492,-0.8943,0.0,0.0,-1.097,-1.1494,-1.2046,-1.2132,-1.2495,-1.2881,-1.2881,-1.2881,-1.2881,-1.2881,-1.2881,-1.2881,-1.2881,-1.3017,-1.3286,-1.3873,-1.4242,-1.4601,-1.5365,-1.6045,-1.6515,-1.6515,-1.6515,-1.6515,-1.6515,-1.6515,-1.6515,-1.6515,-1.6515,-1.6515,-1.6515,-1.6515,-1.6515,-1.6515,-1.6515,-1.6515,-1.6515,-1.6515,-1.6515,-1.6515,-1.6515,-1.6515,-1.6515,-1.6515,-1.6515,-1.6515,-1.6515,-1.6515,-1.6515,-1.6515,-1.6515,-1.6515,-1.6637,-1.6795,-1.6951,-1.751,-1.802,-1.8574,-1.8968,-1.9325,-1.9682,-1.9682,-1.9682,1.6682,1.6128,1.5598,1.5677,1.5338,1.5191,1.591,1.5798,1.5356,1.4799,1.4703,1.452,1.3915,1.3329,1.3104,1.3684,1.3286,1.282,1.2552,1.2502,1.2104,1.1019,1.0025,0.9072,0.827,0.5774,0.3533,0.1929,0.0,0.0,-0.085,-0.1333,-0.1969,-0.267,-0.3306,-0.388,-0.4389,-0.5,-0.561,-0.6224,-0.6729,-0.6979,-0.7021,-0.7617,-0.7916,0.0,0.0,0.0,0.0,-0.9944,-1.0695,-1.1655,-1.2056,-1.2495,-1.2881,-1.2881,-1.2881,-1.2881,-1.2881,-1.2881,-1.2881,-1.2881,-1.3286,-1.3909,-1.452,-1.4283,-1.4045,-1.5264,-1.6045,-1.6515,-1.6515,-1.6515,-1.6515,-1.6515,-1.6515,-1.6515,-1.6515,-1.6515,-1.6515,-1.6515,-1.6515,-1.6515,-1.6515,-1.6515,-1.6515,-1.6515,-1.6515,-1.6515,-1.6515,-1.6515,-1.6515,-1.6515,-1.6515,-1.6515,-1.6515,-1.6515,-1.6515,-1.6515,-1.6515,-1.6515,-1.6515,-1.6993,-1.7544,-1.8059,-1.8612,-1.9169,-1.9682,-1.9682,-1.9682,-1.9682,-1.9682,-1.9682,1.7925,1.7608,1.733,1.6799,1.627,1.5947,1.6187,1.5835,1.5466,1.5402,1.5045,1.4841,1.4982,1.456,1.4168,1.4183,0.0,0.0,1.36,1.3178,1.2515,1.1444,0.995,0.8439,0.0,0.0,0.4532,0.0,0.0,0.0,-0.0215,-0.0803,-0.1561,-0.2521,-0.3029,-0.3545,-0.4138,-0.4393,-0.5041,-0.5993,-0.6301,-0.6644,-0.7024,-0.7192,-0.7489,0.0,0.0,0.0,0.0,-0.9086,-0.9727,-1.061,-1.0702,-1.146,-1.2436,-1.2436,-1.2436,-1.248,-1.2778,-1.2686,-1.2485,-1.2788,-1.3017,-1.3286,-1.392,-1.4549,-1.5186,-1.6002,-1.6331,-1.6515,-1.6515,-1.6515,-1.6515,-1.6515,-1.6515,-1.6515,-1.6515,-1.6515,-1.6515,-1.6515,-1.6515,-1.6515,-1.6515,-1.6515,-1.6515,-1.6515,-1.6515,-1.6515,-1.6515,-1.6515,-1.6515,-1.6515,-1.6515,-1.6515,-1.6515,-1.6515,-1.6515,-1.6515,-1.6515,-1.6515,-1.6515,-1.6674,-1.6837,-1.6993,-1.79,-1.8458,-1.8612,-1.9325,-1.9682,-1.9682,-1.9682,-1.9682,1.823,1.8097,1.8009,1.7616,1.6781,1.6074,1.6271,1.5739,1.5238,1.5362,1.5067,1.4956,1.5492,1.4915,1.4381,1.4484,1.4247,0.0,0.0,0.0,1.2603,1.1305,0.9814,0.0,0.0,0.6355,0.5056,0.0,0.0,0.0,0.0084,-0.0529,-0.1115,-0.1793,-0.2516,-0.3232,-0.4,-0.4082,-0.4576,-0.5524,-0.5905,-0.6275,-0.661,-0.6884,-0.7192,0.0,0.0,0.0,0.0,-0.8918,-0.9545,-1.0396,-1.0186,-1.0859,-1.1932,-1.1746,-1.1786,-1.2041,-1.248,-1.2456,-1.23,-1.2739,-1.306,-1.3372,-1.4231,-1.4994,-1.5726,-1.6331,-1.6515,-1.6515,-1.6515,-1.6515,-1.6515,-1.6515,-1.6515,-1.6515,-1.6515,-1.6515,-1.6515,-1.6515,-1.6515,-1.6515,-1.6515,-1.6515,-1.6515,-1.6515,-1.6515,-1.6515,-1.6515,-1.6515,-1.6515,-1.6515,-1.6515,-1.6515,-1.6515,-1.6515,-1.6515,-1.6515,-1.6515,-1.6595,-1.6795,-1.6993,-1.7188,-1.7388,-1.8256,-1.8696,-1.8696,-1.9369,-1.9682,-1.9682,-1.9682,-1.9682,0.0,1.7785,1.7891,1.8083,1.6894,1.5748,1.616,1.5454,0.0,1.4844,1.485,1.5048,1.5592,1.4721,1.4102,1.4708,1.4145,0.0,0.0,1.3502,1.2343,0.0,0.9723,0.0,0.7312,0.6585,0.0,0.0,0.0,0.0,0.0167,-0.0345,-0.0618,-0.0688,-0.1814,-0.2894,-0.3847,-0.3898,-0.4248,-0.4859,-0.5515,-0.5844,-0.5991,-0.6658,-0.6962,0.0,0.0,0.0,0.0,-0.9115,-0.9897,-1.069,-1.0183,-1.0653,-1.1509,-1.0974,-1.111,-1.1626,-1.2061,-1.2161,-1.2261,-1.2729,-1.3329,-1.3998,-1.5174,-1.5588,-1.5726,-1.6331,-1.6515,-1.6515,-1.6515,-1.6515,-1.6515,-1.6515,-1.6515,-1.6515,-1.6515,-1.6515,-1.6515,-1.6515,-1.6515,-1.6515,-1.6515,-1.6515,-1.6515,-1.6515,-1.6515,-1.6515,-1.6515,-1.6515,-1.6515,-1.6515,-1.6515,-1.6515,-1.6515,-1.6515,-1.6515,-1.6515,-1.6515,-1.6716,-1.7229,-1.7706,-1.8256,-1.8772,-1.9361,-1.9646,-1.9682,-1.9682,-1.9682,-1.9682,-1.9682,-1.9682,1.6962,0.0,1.8114,1.7528,1.6747,1.6096,0.0,1.5343,1.498,1.5386,1.5482,1.5643,1.6188,1.5682,1.5319,1.5835,1.5311,1.4873,1.4862,1.3125,0.0,1.0836,0.9464,0.839,0.7913,0.7031,0.0,0.0,0.0,0.238,0.1058,0.059,0.0036,-0.0683,-0.1278,-0.1877,-0.2469,-0.2934,-0.3609,-0.4508,-0.4763,-0.5428,-0.6428,-0.662,-0.6814,0.0,0.0,0.0,-0.7395,-0.7558,-0.8216,-0.9209,-0.9086,-0.9857,-1.1064,-1.0929,-1.0976,-1.1172,-1.1963,-1.2007,-1.1851,-1.2627,-1.3329,-1.3956,-1.4692,-1.5231,-1.5726,-1.6331,-1.6515,-1.6515,-1.6515,-1.6515,-1.6515,-1.6515,-1.6515,-1.6515,-1.6515,-1.6515,-1.6515,-1.6515,-1.6515,-1.6515,-1.6515,-1.6515,-1.6515,-1.6515,-1.6515,-1.6515,-1.6515,-1.6515,-1.6515,-1.6515,-1.6515,-1.6515,-1.6515,-1.6515,-1.6515,-1.6515,-1.6515,-1.6558,-1.6674,-1.6795,-1.7111,-1.7666,-1.8612,-1.9288,-1.9682,-1.9682,-1.9682,-1.9682,-1.9682,-1.9682,1.5908,1.7005,1.7968,1.758,1.6683,1.5964,1.6048,1.5253,1.4758,1.553,1.5693,1.5863,1.6415,1.5782,1.5375,1.5895,1.5137,0.0,0.0,0.0,1.2013,1.1051,0.9937,0.8963,0.0,0.0,0.0,0.0,0.0,0.2696,0.1384,0.0925,0.045,-0.0034,-0.087,-0.1641,-0.2312,-0.266,-0.3178,-0.3891,-0.4311,-0.4998,-0.5932,-0.6389,-0.6677,0.0,0.0,0.0,-0.7443,-0.7686,-0.814,-0.8679,-0.8439,-0.9123,-1.0247,-0.9999,-1.0207,-1.0718,-1.1392,-1.1728,-1.1978,-1.2661,-1.3104,-1.3557,-1.4427,-1.492,-1.5371,-1.6238,-1.6515,-1.6515,-1.6515,-1.6515,-1.6515,-1.6515,-1.6515,-1.6515,-1.6515,-1.6515,-1.6515,-1.6515,-1.6515,-1.6515,-1.6515,-1.6515,-1.6515,-1.6515,-1.6515,-1.6515,-1.6515,-1.6515,-1.6515,-1.6515,-1.6515,-1.6515,-1.6515,-1.6515,-1.6515,-1.6515,-1.6515,-1.6716,-1.7188,-1.7229,-1.7585,-1.8373,-1.8968,-1.9406,-1.9682,-1.9682,-1.9682,-1.9682,-1.9682,-1.9682,1.5219,1.65,1.7655,1.7553,1.6543,1.5737,1.6168,1.5267,1.4601,1.5505,1.5762,1.5963,1.6434,1.565,1.5152,0.0,0.0,0.0,1.3461,1.3247,1.264,1.141,1.0493,0.0,0.0,0.0,0.0,0.0,0.0,0.2897,0.1581,0.1136,0.084,0.0705,-0.0469,-0.1571,-0.2581,-0.2648,-0.2907,-0.3294,-0.4003,-0.46,-0.5144,-0.6084,-0.6546,-0.6646,0.0,0.0,-0.7787,-0.8267,-0.8513,-0.8517,-0.8077,-0.8521,-0.9319,-0.8958,-0.9399,-1.0264,-1.0721,-1.1445,-1.2187,-1.2653,-1.2862,-1.3131,-1.4258,-1.471,-1.5087,-1.6077,-1.6453,-1.6515,-1.6515,-1.6515,-1.6515,-1.6515,-1.6515,-1.6515,-1.6515,-1.6515,-1.6515,-1.6515,-1.6515,-1.6515,-1.6515,-1.6515,-1.6515,-1.6515,-1.6515,-1.6515,-1.6515,-1.6515,-1.6515,-1.6515,-1.6558,-1.6637,-1.6637,-1.6637,-1.6674,-1.6759,-1.6595,-1.6957,-1.794,-1.8059,-1.8574,-1.9566,-1.9646,-1.9682,-1.9682,-1.9682,-1.9682,-1.9682,-1.9682,-1.9682,1.6315,1.7044,1.7368,1.6018,1.5951,1.6,1.5286,1.5301,1.5492,1.5662,1.6063,1.6415,1.6497,1.6337,1.6244,0.0,0.0,1.4345,0.0,0.0,1.1662,1.1985,0.0,0.0,0.0,0.0,0.0,0.0,0.0,0.3708,0.255,0.2055,0.1475,0.0736,0.01,-0.0802,-0.2079,-0.2513,-0.2907,-0.3292,-0.3825,-0.4443,-0.5138,-0.592,-0.6398,0.0,0.0,-0.7147,-0.715,-0.7231,-0.7569,-0.7995,-0.7912,-0.8275,-0.8882,-0.9239,-0.9478,-0.9736,-1.0594,-1.124,-1.1758,-1.2246,-1.2733,-1.3286,-1.3888,-1.4778,-1.5606,-1.5777,-1.6158,-1.6515,-1.6515,-1.6515,-1.6515,-1.6515,-1.6515,-1.6515,-1.6515,-1.6515,-1.6515,-1.6515,-1.6515,-1.6515,-1.6515,-1.6515,-1.6515,-1.6515,-1.6515,-1.6515,-1.6515,-1.6515,-1.6515,-1.6515,-1.6915,-1.7194,-1.7194,-1.7194,-1.7388,-1.782,-1.6993,-1.6795,-1.7388,-1.786,-1.8373,-1.9006,-1.9486,-1.9682,-1.9682,-1.9682,-1.9682,-1.9682,-1.9682,-1.9682,1.5294,1.6162,1.6655,1.591,1.6302,1.6647,1.5924,1.5724,1.5775,1.6082,1.6346,1.6515,0.0,0.0,1.5293,1.4658,0.0,1.4102,1.3815,1.2898,1.2257,0.0,0.0,0.0,0.0,0.0,0.0,0.0,0.0,0.0,0.3076,0.2605,0.2073,0.1439,0.0501,-0.03,-0.0903,-0.1841,-0.2641,-0.3292,-0.3525,-0.4036,-0.4855,-0.5361,-0.5893,-0.6411,0.0,-0.6877,-0.6979,-0.6979,-0.715,-0.7447,-0.7787,-0.8238,-0.8797,-0.9642,-0.9917,-1.0018,-1.068,-1.104,-1.1288,-1.1772,-1.2261,-1.2895,-1.3771,-1.4618,-1.5336,-1.5967,-1.6321,-1.6515,-1.6515,-1.6515,-1.6515,-1.6515,-1.6515,-1.6515,-1.6515,-1.6515,-1.6515,-1.6515,-1.6515,-1.6515,-1.6515,-1.6515,-1.6515,-1.6515,-1.6515,-1.6515,-1.6515,-1.6515,-1.6515,-1.6515,-1.6716,-1.6873,-1.6873,-1.6873,-1.7111,-1.7626,-1.7747,-1.79,-1.8138,-1.8696,-1.9088,-1.9325,-1.9566,-1.9682,-1.9682,-1.9682,-1.9682,-1.9682,-1.9682,-1.9682,1.4515,1.5494,1.6297,1.6466,1.6966,1.7284,1.6625,1.6267,1.6166,1.6427,0.0,0.0,0.0,1.565,0.0,1.37,1.3689,1.3779,1.3673,1.3116,1.2575,1.2162,0.0,0.0,0.0,0.0,0.0,0.0,0.0,0.0,0.3364,0.2995,0.257,0.2014,0.1003,0.0334,0.0,-0.1003,-0.2037,-0.2997,-0.3194,-0.3651,-0.4312,-0.4731,-0.5338,-0.6058,-0.6305,-0.6632,-0.6979,-0.6979,-0.6979,-0.7063,-0.7489,-0.8111,-0.8797,-0.9642,-1.0079,-1.0327,-1.0649,-1.0762,-1.0856,-1.1316,-1.1699,-1.2173,-1.3223,-1.3974,-1.4678,-1.5671,-1.6136,-1.6352,-1.6484,-1.6515,-1.6515,-1.6515,-1.6515,-1.6515,-1.6515,-1.6515,-1.6515,-1.6515,-1.6515,-1.6515,-1.6515,-1.6515,-1.6515,-1.6515,-1.6515,-1.6558,-1.6674,-1.6674,-1.6759,-1.6873,-1.6993,-1.707,-1.707,-1.7194,-1.7388,-1.7666,-1.8217,-1.865,-1.8893,-1.9288,-1.9566,-1.9682,-1.9682,-1.9682,-1.9682,-1.9682,-1.9682,-1.9682,-1.9682,-1.9747,1.5432,1.6181,1.6845,1.7582,1.7806,1.7623,1.6709,1.6847,1.7059,1.6588,0.0,0.0,0.0,1.5964,1.5499,1.5404,1.4498,1.3668,1.3231,0.0,1.1527,0.0,0.0,0.0,0.0,0.0,0.0,0.0,0.0,0.0,0.3358,0.3257,0.2867,0.2013,0.1913,0.1271,0.0,-0.01,-0.0801,-0.2113,-0.29,-0.3323,-0.3427,-0.411,-0.4835,-0.5565,-0.583,-0.6338,-0.6979,-0.6979,-0.6979,-0.7021,-0.7063,-0.7727,-0.872,-0.8801,-0.9439,-1.0288,-1.0317,-1.0327,-1.041,-1.0884,-1.108,-1.1195,-1.1808,-1.2629,-1.3539,-1.4113,-1.5002,-1.5875,-1.6384,-1.6515,-1.6515,-1.6515,-1.6515,-1.6515,-1.6515,-1.6515,-1.6515,-1.6515,-1.6515,-1.6515,-1.6515,-1.6515,-1.6515,-1.6515,-1.6515,-1.6674,-1.7194,-1.7229,-1.7429,-1.794,-1.8419,-1.8734,-1.8734,-1.9169,-1.9288,-1.881,-1.79,-1.786,-1.8848,-1.893,-1.9207,-1.9682,-1.9682,-1.9682,-1.9682,-1.9682,-1.9682,-1.9682,-1.9682,-1.9909,1.4227,1.5132,1.6075,1.7047,1.7584,1.7735,1.7139,1.7153,1.7229,1.7034,1.6716,0.0,0.0,0.0,1.5499,1.5101,1.4395,1.3687,1.3186,1.227,0.0,0.0,0.0,0.0,0.0,0.0,0.0,0.0,0.0,0.0,0.4506,0.4006,0.3407,0.2697,0.2237,0.1714,0.1109,0.0361,-0.0267,-0.0769,-0.1936,-0.2768,-0.3294,-0.3599,-0.426,-0.5252,-0.5545,-0.6083,-0.6767,-0.6947,-0.6979,-0.7024,-0.7405,-0.8024,-0.876,-0.9079,-0.9439,-0.9839,-1.0162,-1.0283,-1.0322,-1.0505,-1.0759,-1.1109,-1.168,-1.2324,-1.3031,-1.3875,-1.4407,-1.4986,-1.6192,-1.6515,-1.6515,-1.6515,-1.6515,-1.6515,-1.6515,-1.6515,-1.6515,-1.6515,-1.6515,-1.6515,-1.6515,-1.6515,-1.6515,-1.6515,-1.6795,-1.707,-1.7271,-1.7585,-1.786,-1.8059,-1.8295,-1.8256,-1.794,-1.8419,-1.8772,-1.8893,-1.881,-1.8968,-1.9369,-1.9406,-1.9486,-1.9682,-1.9682,-1.9682,-1.9682,-1.9682,-1.9682,-1.9726,-1.9972,-2.0151,1.3833,1.4956,1.6074,1.7192,1.7815,1.8079,1.785,1.7666,1.747,1.7111,1.6873,1.6576,1.5996,0.0,0.0,0.0,1.4223,1.3502,1.322,0.0,0.0,0.0,0.0,0.0,0.0,0.0,0.0,0.0,0.0,0.0,0.0,0.4558,0.3885,0.3241,0.2645,0.2207,0.1932,0.0892,0.023,0.0,-0.1204,-0.2174,-0.2898,-0.3032,-0.3698,-0.4711,-0.4873,-0.5506,-0.6402,-0.6596,-0.6771,-0.7024,-0.7447,-0.7946,-0.8517,-0.9039,-0.9359,-0.9558,-1.0118,-1.0283,-1.0283,-1.0283,-1.05,-1.0853,-1.1256,-1.1854,-1.2494,-1.3207,-1.3623,-1.4153,-1.5395,-1.5863,-1.5994,-1.5994,-1.5994,-1.6045,-1.622,-1.6258,-1.6314,-1.6484,-1.6515,-1.6515,-1.6515,-1.6637,-1.6716,-1.6515,-1.7111,-1.7544,-1.7544,-1.802,-1.8419,-1.8574,-1.8612,-1.8458,-1.8099,-1.8373,-1.8772,-1.9125,-1.9486,-1.9682,-1.9682,-1.9682,-1.9682,-1.9682,-1.9682,-1.9682,-1.9682,-1.9682,-1.9682,-1.9726,-2.0124,-2.0382,1.4713,1.5992,1.7165,1.8394,1.871,1.8735,1.8868,1.8496,1.782,1.6704,1.6902,1.7133,1.6576,1.6007,0.0,1.5674,1.4193,1.308,0.0,0.0,0.0,0.0,0.0,0.0,0.0,0.0,0.0,0.0,0.0,0.0,0.0,0.4804,0.4249,0.3519,0.323,0.2811,0.2197,0.1467,0.0725,0.0,-0.0869,-0.1541,-0.2014,-0.248,-0.3096,-0.3812,-0.3814,-0.4592,-0.5896,-0.5899,-0.6347,-0.6979,-0.6979,-0.7363,-0.7957,-0.8476,-0.9039,-0.9558,-1.0123,-1.0283,-1.0283,-1.0283,-1.0283,-1.0283,-1.0283,-1.0992,-1.1801,-1.1867,-1.258,-1.3432,-1.3954,-1.451,-1.4897,-1.4909,-1.4909,-1.5067,-1.558,-1.5699,-1.5863,-1.6409,-1.6515,-1.6515,-1.6515,-1.6951,-1.7111,-1.6595,-1.7429,-1.8099,-1.8099,-1.8574,-1.9125,-1.9646,-1.9682,-1.9682,-1.9682,-1.9682,-1.9682,-1.9682,-1.9682,-1.9682,-1.9682,-1.9682,-1.9682,-1.9682,-1.9682,-1.9682,-1.9682,-1.9718,-1.9726,-1.9726,-2.0124,-2.055,1.4964,1.5703,1.6477,1.8241,1.8785,1.8855,1.8887,1.8772,0.0,0.0,1.6343,1.6028,1.5467,1.5249,0.0,1.5148,1.4364,1.3676,0.0,0.0,0.0,0.0,0.0,0.0,0.0,0.0,0.0,0.0,0.0,0.0,0.0,0.486,0.4071,0.352,0.3247,0.2847,0.2348,0.202,0.1511,0.0754,0.0,-0.0936,-0.2014,-0.248,-0.3168,-0.3928,-0.3825,-0.4383,-0.5383,-0.5749,-0.6347,-0.6979,-0.6979,-0.7363,-0.7916,-0.8077,-0.8716,-0.9518,-0.9681,-1.0,-1.0283,-1.0283,-1.0283,-1.0283,-1.0283,-1.0731,-1.1309,-1.1729,-1.2253,-1.2842,-1.3331,-1.3566,-1.3917,-1.4727,-1.5211,-1.5498,-1.5662,-1.6305,-1.6868,-1.7037,-1.7388,-1.7626,-1.7626,-1.7747,-1.782,-1.7666,-1.8217,-1.881,-1.9169,-1.9369,-1.9369,-1.9169,-1.9486,-1.9566,-1.9169,-1.9486,-1.9682,-1.9682,-1.9682,-1.9682,-1.9682,-1.9682,-1.9682,-1.9682,-1.9682,-1.9682,-1.9682,-2.0,-2.0124,-2.0158,-2.087,-2.1298,1.5776,1.6443,1.7067,1.8691,1.9154,1.9141,1.8885,1.8474,0.0,0.0,1.612,1.5768,1.5147,1.4749,0.0,1.4426,1.386,0.0,0.0,0.0,0.0,0.0,0.0,0.0,0.0,0.0,0.0,0.0,0.0,0.0,0.0,0.5158,0.4419,0.4022,0.3631,0.326,0.291,0.2333,0.1861,0.153,0.0444,-0.049,-0.1238,-0.2043,-0.2709,-0.3243,-0.3803,-0.4347,-0.4884,-0.5535,-0.6244,-0.6819,-0.6726,-0.7027,-0.7617,-0.8032,-0.8639,-0.9239,-0.9681,-1.0044,-1.0283,-1.0283,-1.0283,-1.0283,-1.0283,-1.0616,-1.1019,-1.118,-1.1547,-1.2018,-1.2502,-1.265,-1.2919,-1.3988,-1.4638,-1.5103,-1.5323,-1.6073,-1.6727,-1.6954,-1.7429,-1.7787,-1.7787,-1.8138,-1.8334,-1.8138,-1.8574,-1.9088,-1.9646,-1.9682,-1.9566,-1.9244,-1.9522,-1.9566,-1.9244,-1.9522,-1.9682,-1.9682,-1.9682,-1.9682,-1.9682,-1.9839,-2.0042,-2.0208,-2.0208,-2.0208,-2.0208,-2.0457,-2.0583,-2.0583,-2.1298,-2.159,1.6931,1.7682,1.831,1.9427,1.9673,1.9476,1.8782,1.784,1.6906,1.6224,0.0,1.5848,1.5175,1.4385,1.3801,1.3611,0.0,0.0,0.0,0.0,0.0,0.0,0.0,0.0,0.0,0.0,0.0,0.0,0.0,0.0,0.0,0.5547,0.5062,0.4769,0.4219,0.3844,0.3687,0.2537,0.2046,0.0,0.0697,0.0031,0.0,-0.1336,-0.1947,-0.2086,-0.3576,-0.4299,-0.4459,-0.5258,-0.5973,-0.6537,-0.6311,-0.6542,-0.7148,-0.8135,-0.861,-0.8918,-0.9839,-1.0201,-1.0273,-1.0234,-1.0254,-1.0273,-1.0234,-1.0619,-1.0981,-1.0544,-1.0802,-1.1314,-1.1805,-1.192,-1.2144,-1.3012,-1.3726,-1.4366,-1.4879,-1.5494,-1.6147,-1.6615,-1.7153,-1.751,-1.751,-1.8334,-1.881,-1.8334,-1.865,-1.9169,-1.9646,-1.9682,-1.9682,-1.9682,-1.9682,-1.9682,-1.9682,-1.9711,-1.9747,-1.9747,-1.9782,-1.9846,-1.9882,-2.0062,-2.0397,-2.0839,-2.0807,-2.0807,-2.0807,-2.0895,-2.0958,-2.0966,-2.1436,-2.1658,1.7375,1.7695,1.7845,1.9324,1.9488,1.9075,1.8185,1.7599,1.7033,1.6261,1.5033,1.4049,1.3888,1.3295,1.2821,1.2763,0.0,0.0,0.0,0.0,0.0,0.0,0.0,0.0,0.0,0.0,0.0,0.0,0.0,0.0,0.5854,0.5367,0.4899,0.4428,0.4274,0.3996,0.3547,0.3374,0.2814,0.0,0.1746,0.12,0.0282,-0.0918,-0.1642,-0.2049,-0.2768,-0.3569,-0.4398,-0.4603,-0.5303,-0.6293,-0.6206,-0.6663,-0.7295,-0.7111,-0.8023,-0.9319,-0.9119,-0.9597,-1.0225,-0.9883,-1.0005,-1.022,-0.9873,-1.0625,-1.1621,-1.151,-1.2096,-1.2756,-1.2867,-1.2908,-1.2943,-1.3157,-1.4314,-1.5408,-1.5489,-1.6958,-1.8257,-1.8352,-1.881,-1.9169,-1.9169,-1.9369,-1.9486,-1.9369,-1.9442,-1.9566,-1.9682,-1.9682,-1.9682,-1.9682,-1.9682,-1.9682,-1.9682,-2.0,-2.0185,-2.0185,-2.0532,-2.0854,-2.1173,-2.0065,-1.9474,-1.958,-1.9396,-1.927,-1.9278,-2.0156,-2.061,-2.0618,-2.1661,-2.2143,1.7565,1.791,1.7941,1.8969,1.8763,1.8145,1.7666,1.7019,1.6371,1.5833,1.4681,1.3664,1.3243,1.2698,1.2315,0.0,0.0,0.0,0.0,0.0,0.0,0.0,0.0,0.0,0.0,0.0,0.0,0.0,0.0,0.6929,0.6176,0.5724,0.5351,0.5069,0.4811,0.4545,0.4272,0.3833,0.3304,0.2696,0.2226,0.1442,0.037,-0.0588,-0.1375,-0.2013,-0.2502,-0.3143,-0.3891,-0.4199,-0.4845,-0.5669,-0.5732,-0.6285,-0.7005,-0.7005,-0.7723,-0.876,-0.8999,-0.9443,-0.9923,-0.9939,-1.0098,-1.0239,-1.001,-1.0467,-1.1067,-1.1067,-1.1616,-1.2198,-1.2467,-1.2691,-1.2908,-1.3163,-1.4273,-1.5304,-1.5304,-1.6392,-1.7431,-1.7632,-1.8134,-1.86,-1.8825,-1.9322,-1.9682,-1.9682,-1.9682,-1.9682,-1.9682,-1.9682,-1.9682,-1.9682,-1.9682,-1.9682,-1.9682,-1.9902,-2.0089,-2.028,-2.0516,-2.0854,-2.1275,-2.0365,-2.0087,-2.0663,-2.054,-2.0476,-2.0476,-2.1076,-2.1169,-2.0855,-2.1484,-2.1574,1.7236,1.7894,1.8148,1.8423,1.7973,1.7446,1.7311,1.6473,1.5622,1.534,1.4621,1.3786,1.3019,1.2481,1.2204,0.0,0.0,0.0,0.0,0.0,0.0,0.0,0.0,0.0,0.0,0.0,0.0,0.0,0.0,0.7152,0.6676,0.6242,0.6009,0.5954,0.5478,0.5184,0.5107,0.4212,0.374,0.3652,0.241,0.1416,0.0666,-0.0064,-0.0897,-0.1812,-0.217,-0.2662,-0.3235,-0.373,-0.4352,-0.5009,-0.5123,-0.5695,-0.652,-0.7017,-0.7409,-0.7876,-0.8871,-0.9315,-0.9497,-0.9891,-1.0181,-1.0269,-1.019,-1.0374,-1.0544,-1.0544,-1.0948,-1.1462,-1.192,-1.2324,-1.272,-1.3094,-1.4065,-1.4873,-1.498,-1.5569,-1.6153,-1.6489,-1.7088,-1.7681,-1.813,-1.9051,-1.9682,-1.9682,-1.9682,-1.9682,-1.9682,-1.9682,-1.9718,-1.9782,-1.9811,-1.9846,-1.9917,-1.998,-2.0166,-2.0509,-2.0608,-2.0813,-2.1197,-2.0955,-2.1266,-2.2265,-2.1921,-2.1718,-2.1718,-2.1854,-2.1619,-2.1053,-2.118,-2.0849,1.563,1.6973,1.8021,1.7718,1.7888,1.7938,1.7432,1.6467,1.5607,0.0,1.4387,1.3567,1.3219,1.2806,0.0,0.0,0.0,0.0,0.0,0.0,0.0,0.0,0.0,0.0,0.0,0.0,0.0,0.0,0.7944,0.7124,0.6871,0.6628,0.6394,0.6159,0.5925,0.5563,0.5107,0.4967,0.4434,0.3514,0.2348,0.1794,0.1774,0.1143,0.0223,-0.0874,-0.094,-0.1671,-0.2796,-0.2883,-0.359,-0.4654,-0.4689,-0.5165,-0.5862,-0.6225,-0.6671,-0.7227,-0.7866,-0.8548,-0.9072,-0.9002,-0.9587,-1.021,-0.9834,-1.0599,-1.159,-1.159,-1.224,-1.2937,-1.2978,-1.3053,-1.3129,-1.3198,-1.3967,-1.4844,-1.5319,-1.6481,-1.7463,-1.7496,-1.8054,-1.8693,-1.9336,-1.9586,-1.9682,-1.9682,-1.9682,-1.9682,-1.9682,-1.9682,-1.9846,-2.0185,-2.0219,-2.039,-2.0797,-2.115,-2.136,-2.1422,-2.1802,-2.2077,-2.2115,-2.2079,-2.2144,-2.231,-2.0365,-1.935,-1.9359,-1.9993,-2.039,-2.0508,-2.1145,-2.117,1.5168,1.6813,1.7869,1.7313,1.7427,1.7587,1.7134,1.6475,1.5839,1.5311,1.4627,1.3846,1.3014,1.2846,0.0,0.0,0.0,0.0,0.0,0.0,0.0,0.0,0.0,0.0,0.0,0.0,0.0,0.0,0.8528,0.7672,0.7577,0.7266,0.7053,0.6927,0.6519,0.6177,0.5934,0.5523,0.4914,0.4103,0.3349,0.2835,0.2547,0.1825,0.0782,-0.0415,-0.033,-0.0935,-0.1968,-0.2498,-0.3024,-0.3581,-0.4081,-0.4726,-0.538,-0.5541,-0.6142,-0.6979,-0.7549,-0.8249,-0.892,-0.9184,-0.9734,-1.0249,-1.0049,-1.0464,-1.1029,-1.1282,-1.1878,-1.2473,-1.2726,-1.3012,-1.326,-1.352,-1.4093,-1.4699,-1.5191,-1.5841,-1.6448,-1.6764,-1.7233,-1.7779,-1.847,-1.8889,-1.9136,-1.9136,-1.945,-1.9682,-1.9682,-1.9682,-1.9782,-1.9929,-2.0158,-2.0288,-2.0269,-2.0894,-2.1275,-2.1275,-2.1667,-2.2032,-2.2282,-2.231,-2.2173,-2.191,-2.1335,-2.0796,-2.0368,-2.0856,-2.0752,-2.0014,-2.0337,-2.0149,1.4902,1.6544,1.7445,1.7036,1.7316,1.7543,1.7154,0.0,1.6185,0.0,1.5053,1.4283,1.3326,1.3168,0.0,0.0,0.0,0.0,0.0,0.0,0.0,0.0,0.0,0.0,0.0,0.0,0.0,0.0,0.9163,0.8266,0.8235,0.79,0.7658,0.7577,0.7091,0.6762,0.66,0.5866,0.5269,0.4819,0.4271,0.3773,0.33,0.2531,0.1524,0.0408,0.0316,-0.0229,-0.108,-0.1753,-0.2295,-0.2763,-0.3425,-0.4154,-0.4828,-0.5033,-0.5583,-0.6325,-0.6996,-0.7808,-0.8638,-0.9073,-0.9734,-1.0283,-1.0283,-1.0395,-1.0539,-1.0905,-1.1468,-1.2071,-1.2395,-1.2832,-1.3295,-1.3648,-1.4123,-1.4627,-1.5165,-1.537,-1.558,-1.6145,-1.6644,-1.7115,-1.7608,-1.8268,-1.8702,-1.8702,-1.9121,-1.9523,-1.9823,-1.9839,-1.9945,-2.0174,-2.0449,-2.055,-2.0379,-2.0967,-2.1323,-2.1323,-2.1693,-2.2031,-2.2379,-2.248,-2.2367,-2.2019,-2.2634,-2.2417,-2.134,-2.1505,-2.0987,-1.9806,-1.9806,-1.9427,1.4547,1.5754,1.6594,1.6996,1.787,1.8485,0.0,0.0,1.666,1.6634,1.5632,1.477,1.4693,1.4062,0.0,0.0,0.0,0.0,0.0,0.0,0.0,0.0,0.0,0.0,0.0,0.0,0.0,0.0,0.9608,0.8711,0.8583,0.8383,0.8117,0.7796,0.7562,0.7187,0.66,0.5866,0.5483,0.544,0.4658,0.4263,0.4208,0.3524,0.2803,0.2045,0.1337,0.0553,-0.0247,-0.0163,-0.1164,-0.2697,-0.2763,-0.3298,-0.4132,-0.4828,-0.4939,-0.4874,-0.5923,-0.696,-0.7896,-0.8169,-0.9192,-1.0283,-1.0283,-1.0616,-1.0976,-1.0976,-1.1726,-1.2467,-1.2502,-1.2832,-1.3198,-1.3232,-1.3868,-1.4721,-1.558,-1.5763,-1.5935,-1.6562,-1.7212,-1.7652,-1.7682,-1.8268,-1.8702,-1.8702,-1.8732,-1.9136,-2.0135,-2.028,-2.0575,-2.1422,-2.1521,-2.1688,-2.2143,-2.2217,-2.2245,-2.2245,-2.2475,-2.2643,-2.2678,-2.2972,-2.3147,-2.3112,-2.3473,-2.2738,-2.0919,-2.0636,-2.0328,-2.0091,-2.0091,-1.9802,1.3088,1.4419,1.5632,1.6388,1.7128,1.7803,1.8392,1.7928,1.7446,1.7633,1.6521,1.547,1.5338,1.4476,0.0,0.0,0.0,0.0,0.0,0.0,0.0,0.0,0.0,0.0,0.0,0.0,0.0,0.0,0.0,0.9167,0.9119,0.8801,0.8569,0.8436,0.7956,0.7402,0.6805,0.6538,0.633,0.6201,0.5566,0.5261,0.5228,0.4342,0.3791,0.3496,0.2595,0.1606,0.0582,0.0094,-0.0451,-0.1065,-0.1904,-0.2636,-0.3233,-0.3766,-0.44,-0.5055,-0.5425,-0.6357,-0.7454,-0.8127,-0.8848,-0.9568,-1.0118,-1.0616,-1.1014,-1.1014,-1.1505,-1.2066,-1.2066,-1.2608,-1.3348,-1.4193,-1.4883,-1.5418,-1.5733,-1.5799,-1.5866,-1.6076,-1.6614,-1.7062,-1.7062,-1.7959,-1.8805,-1.9091,-1.9477,-1.9983,-2.0659,-2.0935,-2.1186,-2.1508,-2.195,-2.2184,-2.2057,-2.2574,-2.2764,-2.2513,-2.283,-2.3021,-2.3021,-2.315,-2.3291,-2.3522,-2.355,-2.2776,-2.1153,-2.1251,-2.0707,-1.9592,-1.9721,-1.968,1.18,1.3306,1.4834,1.5887,1.6802,1.7651,1.8524,1.86,1.8453,1.8266,1.7228,1.6256,1.5868,1.4869,0.0,0.0,0.0,0.0,0.0,0.0,0.0,0.0,0.0,0.0,0.0,0.0,0.0,0.0,0.0,0.0,0.9517,0.9224,0.8988,0.8804,0.826,0.7752,0.731,0.7167,0.6996,0.6788,0.63,0.6018,0.591,0.5082,0.4604,0.4395,0.3625,0.2611,0.1405,0.0587,0.0123,-0.0162,-0.1172,-0.1943,-0.2504,-0.2929,-0.3737,-0.4602,-0.4894,-0.5752,-0.6837,-0.7666,-0.8302,-0.888,-0.9751,-1.0264,-1.0557,-1.0905,-1.1399,-1.1847,-1.1993,-1.2701,-1.363,-1.4638,-1.5232,-1.561,-1.577,-1.5799,-1.582,-1.5962,-1.6456,-1.6932,-1.7066,-1.803,-1.8946,-1.9531,-1.9931,-2.0454,-2.1118,-2.1389,-2.1576,-2.1749,-2.2207,-2.2417,-2.2197,-2.2694,-2.297,-2.2819,-2.3162,-2.3369,-2.3369,-2.3468,-2.3514,-2.3465,-2.3409,-2.2647,-2.1133,-2.159,-2.1004,-1.9467,-1.9595,-1.9666,0.0,0.0,0.0,1.5425,0.0,0.0,1.8335,0.0,1.9503,1.8553,1.779,1.7081,1.6404,1.5346,1.4644,0.0,0.0,0.0,0.0,0.0,0.0,0.0,0.0,0.0,0.0,0.0,0.0,0.0,1.1641,1.0741,0.9761,0.9642,0.9349,0.8826,0.8489,0.8248,0.8102,0.7716,0.7419,0.7211,0.6805,0.6474,0.6206,0.5738,0.5241,0.4724,0.4442,0.3544,0.2206,0.1457,0.0635,-0.0183,-0.0552,-0.1211,-0.2008,-0.2499,-0.2927,-0.339,-0.424,-0.511,-0.5981,-0.6731,-0.7511,-0.8329,-0.926,-0.9549,-0.979,-1.0748,-1.1431,-1.1951,-1.2425,-1.3244,-1.4019,-1.4438,-1.4845,-1.5262,-1.5704,-1.5799,-1.5906,-1.6238,-1.6843,-1.7416,-1.7863,-1.8483,-1.9188,-1.9931,-2.0044,-2.0445,-2.1491,-2.162,-2.1815,-2.2265,-2.2338,-2.2453,-2.2721,-2.2738,-2.2889,-2.3221,-2.3535,-2.3723,-2.3714,-2.4018,-2.3814,-2.3033,-2.3125,-2.2402,-2.0807,-2.1462,-2.1101,-1.98,-1.9802,-1.9811,0.9563,0.0,0.0,0.0,0.0,0.0,0.0,0.0,1.7741,1.9275,1.8272,1.7324,1.8077,1.7069,1.6021,0.0,0.0,0.0,0.0,0.0,0.0,0.0,0.0,0.0,0.0,0.0,0.0,0.0,1.1204,1.0209,0.9926,0.9719,0.9426,0.9028,0.8784,0.8534,0.8248,0.8046,0.7838,0.7636,0.722,0.6988,0.6901,0.6282,0.5933,0.5734,0.4943,0.4361,0.39,0.2482,0.1579,0.1003,0.003,-0.0495,-0.0788,-0.1447,-0.2199,-0.2893,-0.3155,-0.378,-0.4766,-0.6166,-0.6974,-0.7751,-0.9602,-1.0646,-1.1239,-1.151,-1.2128,-1.2901,-1.3664,-1.4068,-1.447,-1.5247,-1.5544,-1.5639,-1.577,-1.5799,-1.5906,-1.6238,-1.6843,-1.7572,-1.8483,-1.9191,-1.9971,-2.0999,-2.1174,-2.1376,-2.2007,-2.2284,-2.2538,-2.2924,-2.3177,-2.3441,-2.3774,-2.3795,-2.3816,-2.3917,-2.4016,-2.4125,-2.4275,-2.3765,-2.344,-2.3356,-2.2918,-2.2158,-2.1098,-2.1186,-2.0728,-1.98,-1.9892,-2.0022,0.8391,0.9253,1.0326,1.2101,0.0,0.0,1.6037,1.6492,1.6781,0.0,1.7897,1.7489,1.8271,1.7426,1.6661,0.0,0.0,0.0,0.0,0.0,0.0,0.0,0.0,0.0,0.0,1.432,1.3589,1.3233,1.1911,1.0804,1.0035,0.9855,0.9626,0.9313,0.9196,0.9002,0.8723,0.8506,0.8299,0.8091,0.7658,0.7404,0.7311,0.6835,0.653,0.6329,0.5741,0.5197,0.462,0.3639,0.269,0.1763,0.1025,0.0327,-0.0246,-0.0621,-0.1335,-0.2167,-0.2563,-0.3028,-0.3747,-0.5564,-0.6451,-0.7125,-0.9125,-1.0237,-1.0933,-1.1356,-1.2253,-1.3264,-1.3985,-1.4439,-1.4826,-1.5374,-1.5675,-1.5827,-1.5983,-1.6011,-1.6116,-1.6448,-1.6823,-1.7563,-1.911,-1.9669,-2.0434,-2.1838,-2.2046,-2.2203,-2.2625,-2.2823,-2.2988,-2.3165,-2.336,-2.3619,-2.3967,-2.3746,-2.363,-2.3759,-2.3515,-2.3429,-2.3546,-2.3054,-2.2684,-2.2461,-2.2133,-2.1585,-2.0824,-2.1079,-2.08,-2.0011,-2.0088,-2.0197,0.7214,0.8067,0.9084,1.0645,1.1364,0.0,1.4001,1.5162,1.5915,0.0,1.6749,1.7209,1.7461,1.7006,1.681,0.0,0.0,0.0,0.0,0.0,0.0,0.0,0.0,0.0,1.5199,1.5112,1.4728,1.3953,1.307,1.1854,1.024,1.0059,0.9889,0.9658,0.9621,0.952,0.9331,0.9016,0.8768,0.8567,0.8096,0.776,0.7554,0.7342,0.7027,0.6668,0.6617,0.594,0.4861,0.4807,0.3784,0.2238,0.2116,0.1247,0.0061,0.0097,-0.0398,-0.1235,-0.2199,-0.2596,-0.3012,-0.4964,-0.595,-0.6698,-0.8319,-0.9237,-0.9898,-1.0987,-1.2224,-1.3304,-1.394,-1.4627,-1.5165,-1.5165,-1.5514,-1.5877,-1.6163,-1.6246,-1.6348,-1.6738,-1.6841,-1.749,-1.9521,-1.9891,-2.0534,-2.2323,-2.2591,-2.2768,-2.3156,-2.3189,-2.3212,-2.3273,-2.3296,-2.3433,-2.3792,-2.327,-2.3012,-2.3215,-2.2665,-2.2312,-2.2245,-2.2137,-2.1768,-2.1081,-2.1101,-2.0853,-2.0312,-2.1023,-2.1004,-2.0312,-2.0312,-2.0312,0.6053,0.7167,0.8231,0.8272,0.9117,0.0,1.1273,1.1824,1.2615,0.0,1.4363,1.4707,1.6613,1.7065,1.6978,1.6447,0.0,0.0,0.0,0.0,0.0,0.0,0.0,0.0,1.5199,1.4574,1.4084,1.3905,1.2502,1.1502,1.1152,1.0407,0.9977,0.9926,0.9769,0.9633,0.9536,0.9367,0.9176,0.8979,0.856,0.8237,0.7979,0.7614,0.7311,0.7059,0.6745,0.6341,0.5873,0.5494,0.4228,0.253,0.2483,0.2186,0.1653,0.0973,0.0511,0.0066,-0.1165,-0.2068,-0.2929,-0.4366,-0.5797,-0.7213,-0.8611,-0.9805,-1.1057,-1.2767,-1.3458,-1.3939,-1.5113,-1.5544,-1.5675,-1.5675,-1.5733,-1.5827,-1.5877,-1.5906,-1.6088,-1.6686,-1.7035,-1.7617,-1.8881,-1.9286,-1.997,-2.1569,-2.1989,-2.2397,-2.3118,-2.3189,-2.3379,-2.3792,-2.3843,-2.4054,-2.4544,-2.4467,-2.4122,-2.3479,-2.3319,-2.2996,-2.246,-2.1764,-2.1421,-2.1474,-2.0868,-2.0499,-2.0379,-2.0485,-2.0485,-2.0379,-2.0379,-2.0379,0.5523,0.6132,0.6692,0.7142,0.0,0.0,0.0,0.9767,1.0291,1.2073,1.2519,1.3018,1.4565,0.0,1.5228,1.6102,0.0,0.0,0.0,0.0,0.0,0.0,0.0,0.0,1.6445,1.5695,1.4843,1.3968,1.3122,1.2281,1.1435,1.0952,1.0479,1.0006,0.9906,0.9816,0.9754,0.9582,0.9419,0.924,0.8836,0.8566,0.8383,0.809,0.7781,0.7479,0.7187,0.6799,0.637,0.601,0.4977,0.3622,0.3427,0.2959,0.2301,0.1529,0.1025,0.0575,-0.0596,-0.1305,-0.1999,-0.3708,-0.4988,-0.6173,-0.7835,-0.9234,-1.0642,-1.2559,-1.338,-1.3954,-1.5338,-1.5994,-1.6293,-1.6293,-1.6293,-1.634,-1.6512,-1.6557,-1.6688,-1.7207,-1.7532,-1.8034,-1.895,-1.9325,-2.0079,-2.1795,-2.226,-2.2759,-2.3717,-2.3938,-2.4109,-2.4366,-2.4409,-2.451,-2.479,-2.4133,-2.3513,-2.3075,-2.2363,-2.1805,-2.1474,-2.1034,-2.0854,-2.0998,-2.0607,-2.0415,-2.0446,-2.0417,-2.0403,-2.04,-2.04,-2.0424,0.0,0.0,0.5181,0.0,0.0,0.6147,0.0,0.0,0.0,0.9702,1.0444,0.0,0.0,0.0,0.0,0.0,0.0,0.0,0.0,0.0,0.0,0.0,0.0,0.0,0.0,1.7121,1.615,1.4743,1.4327,1.3557,1.2199,1.1666,1.1052,1.0292,1.0111,0.9987,0.9916,0.9745,0.9582,0.9436,0.9068,0.8838,0.8704,0.8534,0.8261,0.7896,0.7665,0.7227,0.6676,0.6399,0.5753,0.4898,0.4458,0.3722,0.2849,0.2131,0.1752,0.1405,-0.0032,-0.0497,-0.0829,-0.3133,-0.4551,-0.5679,-0.7446,-0.8761,-1.0045,-1.1998,-1.2954,-1.3732,-1.5257,-1.6177,-1.6712,-1.6712,-1.6738,-1.6858,-1.715,-1.7191,-1.7296,-1.7635,-1.7923,-1.8318,-1.8975,-1.9377,-2.0174,-2.1844,-2.2292,-2.2895,-2.4146,-2.4463,-2.4634,-2.4842,-2.4728,-2.4658,-2.468,-2.3452,-2.2606,-2.2434,-2.1307,-2.0576,-2.0403,-2.0412,-2.0424,-2.0425,-2.0428,-2.0457,-2.0498,-2.0498,-2.0467,-2.0416,-2.0416,-2.0438,0.0,0.0,0.0,0.0,0.5147,0.0,0.0,0.0,0.6481,0.6815,0.0,0.0,0.0,0.0,0.0,0.0,0.0,0.0,0.0,0.0,0.0,0.0,0.0,0.0,0.0,1.7651,1.7483,1.7276,1.5893,1.497,1.4778,1.2627,1.1348,1.1234,1.0494,1.0061,0.9992,0.9907,0.9774,0.9576,0.935,0.9083,0.8787,0.8708,0.8542,0.8309,0.7924,0.7496,0.7026,0.6686,0.6236,0.571,0.52,0.462,0.3998,0.3155,0.3375,0.3717,0.1031,0.0251,-0.0032,-0.2945,-0.575,-0.814,-0.9097,-0.978,-1.0585,-1.2406,-1.3,-1.3467,-1.5293,-1.608,-1.6348,-1.6348,-1.6581,-1.6815,-1.6841,-1.6866,-1.696,-1.7296,-1.756,-1.7876,-1.827,-1.8843,-1.9559,-2.0488,-2.0955,-2.1787,-2.3413,-2.3688,-2.4071,-2.497,-2.4487,-2.4149,-2.4261,-2.3456,-2.2621,-2.1848,-2.1647,-2.1211,-2.0428,-2.0463,-2.0491,-2.0494,-2.0545,-2.0552,-2.0495,-2.0495,-2.0498,-2.0489,-2.0489,-2.0463,0.0,0.0,0.0,0.0,0.0,0.0,0.3708,0.0,0.4312,0.0,0.0,0.0,0.0,0.0,0.0,0.0,1.013,0.0,0.0,0.0,0.0,0.0,0.0,0.0,0.0,0.0,0.0,0.0,1.7046,1.623,1.5249,1.4195,1.2926,1.1445,1.105,1.0582,1.0006,0.9938,0.9794,0.9599,0.9481,0.9266,0.8977,0.8949,0.8801,0.8554,0.8227,0.7933,0.7664,0.7406,0.7091,0.6744,0.6517,0.5841,0.4864,0.3849,0.3727,0.3781,0.1606,0.0917,0.0433,-0.3005,-0.544,-0.7356,-0.918,-1.0243,-1.1175,-1.2782,-1.3799,-1.4683,-1.6016,-1.6773,-1.7126,-1.6918,-1.7134,-1.7337,-1.7126,-1.7232,-1.7408,-1.7549,-1.8,-1.8369,-1.8526,-1.8907,-1.9549,-2.0583,-2.1017,-2.1649,-2.2823,-2.3142,-2.3408,-2.3836,-2.3598,-2.3441,-2.3504,-2.2773,-2.2153,-2.1775,-2.1282,-2.082,-2.0417,-2.0429,-2.0444,-2.0444,-2.0471,-2.0471,-2.0437,-2.0439,-2.0417,-2.0379,-2.0417,-2.0434,0.2437,0.0,0.0,0.0,0.0,0.0,0.0,0.0,0.0,0.0,0.0,0.0,0.0,0.0,0.0,0.0,0.0,0.8257,0.0,0.0,0.0,0.0,0.0,0.0,0.0,0.0,0.0,0.0,0.0,0.0,1.5958,1.5455,1.4232,1.2117,1.1614,1.1029,1.0308,1.0018,0.9806,0.9655,0.9549,0.9376,0.9158,0.9117,0.8979,0.8736,0.8534,0.8337,0.814,0.7996,0.7771,0.7512,0.7541,0.6976,0.6006,0.495,0.455,0.4343,0.2945,0.1871,0.0576,-0.2604,-0.4538,-0.6046,-0.8443,-0.9855,-1.1019,-1.287,-1.424,-1.5357,-1.6385,-1.7085,-1.7487,-1.7344,-1.761,-1.7852,-1.7602,-1.7791,-1.8005,-1.8005,-1.841,-1.8787,-1.8888,-1.9197,-1.972,-2.062,-2.0949,-2.1397,-2.2249,-2.252,-2.2743,-2.2966,-2.2792,-2.264,-2.264,-2.1891,-2.1423,-2.1423,-2.0823,-2.0455,-2.0405,-2.04,-2.04,-2.04,-2.04,-2.0391,-2.0371,-2.0368,-2.035,-2.0302,-2.035,-2.0369,0.0,0.0,0.0,0.1653,0.0,0.0,0.0,0.0,0.2031,0.0,0.0,0.0,0.0,0.0,0.0,0.0,0.0,0.0,0.0,0.0,0.0,0.0,0.0,0.0,0.0,0.0,0.0,0.0,0.0,0.0,1.7668,1.608,1.4756,1.3748,1.2154,1.1232,1.1067,1.023,0.9798,0.9791,0.959,0.943,0.9284,0.9158,0.9024,0.8891,0.8818,0.8605,0.8295,0.8283,0.8088,0.7801,0.7928,0.7881,0.7628,0.6814,0.6475,0.6318,0.5684,0.3325,0.0338,-0.1412,-0.3148,-0.4934,-0.696,-0.8314,-0.9767,-1.2592,-1.3907,-1.4732,-1.5999,-1.6581,-1.6909,-1.7224,-1.7743,-1.8187,-1.8166,-1.8382,-1.8566,-1.8566,-1.8585,-1.8726,-1.9129,-1.9619,-2.0012,-2.0115,-2.0249,-2.0667,-2.1609,-2.1739,-2.2059,-2.2906,-2.225,-2.1743,-2.1743,-2.0941,-2.0435,-2.0435,-2.0415,-2.0398,-2.0396,-2.0396,-2.0396,-2.0396,-2.0396,-2.0367,-2.03,-2.0302,-2.0302,-2.0302,-2.0302,-2.0302,0.0,0.0,0.1908,0.1182,0.0,0.0,0.0,0.0,0.0,0.0,0.0,0.0,0.0,0.0,0.0,0.0,0.0,0.0,0.0,0.0,0.0,0.0,0.0,0.0,0.0,0.0,0.0,0.0,2.0051,0.0,0.0,1.7435,1.611,1.4635,1.293,1.1713,1.1046,1.0205,0.9773,0.9734,0.9665,0.9568,0.9421,0.9294,0.9158,0.9035,0.9007,0.8882,0.8701,0.8787,0.8711,0.8542,0.8671,0.8545,0.8189,0.7516,0.7026,0.6583,0.5748,0.4119,0.2024,-0.0251,-0.1215,-0.2467,-0.7494,-0.958,-1.078,-1.3435,-1.5242,-1.6472,-1.691,-1.7468,-1.7905,-1.7792,-1.809,-1.8244,-1.7721,-1.8091,-1.8492,-1.8359,-1.8647,-1.903,-1.9341,-1.9879,-2.0224,-2.0114,-2.0287,-2.0531,-2.0802,-2.0877,-2.1002,-2.1245,-2.1022,-2.0843,-2.0843,-2.0576,-2.0275,-1.9965,-1.994,-1.9802,-1.9485,-1.964,-1.9799,-1.9933,-1.9981,-2.0098,-2.0302,-2.017,-2.017,-2.0302,-2.0302,-2.0302,0.1633,0.178,0.0,0.098,0.1057,0.0,0.0317,0.0,0.0,0.0,0.0,0.0,0.0,0.0,0.0,0.0,0.0,0.0,0.0,0.5236,0.0,0.0,0.0,0.0,0.0,0.0,1.9933,2.0137,2.0202,0.0,0.0,0.0,1.6827,1.5372,1.3396,1.2051,1.14,1.0315,0.9739,0.9698,0.9698,0.9625,0.95,0.9412,0.9275,0.9107,0.9207,0.9138,0.899,0.9117,0.9097,0.8981,0.9117,0.8983,0.8664,0.8274,0.817,0.804,0.6783,0.6094,0.5391,0.3144,0.2148,0.0845,-0.4321,-0.7676,-1.0328,-1.3387,-1.5442,-1.6923,-1.7747,-1.8035,-1.8162,-1.8382,-1.8668,-1.8758,-1.8239,-1.8594,-1.9004,-1.8862,-1.9156,-1.9474,-1.9653,-2.0054,-2.0342,-2.025,-2.0389,-2.0482,-2.0441,-2.0445,-2.0437,-2.0369,-2.036,-2.0308,-2.0164,-1.9992,-1.9777,-1.9465,-1.9452,-1.9314,-1.9011,-1.9174,-1.9313,-1.946,-1.9598,-1.9766,-1.9983,-1.9953,-2.0002,-2.0126,-2.017,-2.0187]}]]